<?xml version="1.0" encoding="utf-8"?>
<gpx xmlns:xsi="http://www.w3.org/2001/XMLSchema-instance" xmlns:xsd="http://www.w3.org/2001/XMLSchema" version="1.1" creator="Shapelink.com" xmlns="http://www.topografix.com/GPX/1/1" xmlns:gpxtpx="http://www.garmin.com/xmlschemas/TrackPointExtension/v1">
  <metadata>
    <name>Løping 5.60 km, 2012-10-11</name>
    <desc></desc>
    <author><name>Mikael Blom</name></author> 
    <time>2012-10-11T18:59:22Z</time>
  </metadata>
  <trk>
    <name>Løping 5.60 km, 2012-10-11</name>
    <trkseg>
      <trkpt lat="59.9788801" lon="17.7393441">
        <ele>34.2642</ele>
        <time>2012-10-11T18:59:22Z</time>
      </trkpt>
      <trkpt lat="59.9788582" lon="17.7393342">
        <ele>34.2642</ele>
        <time>2012-10-11T18:59:23Z</time>
      </trkpt>
      <trkpt lat="59.9788305" lon="17.7393182">
        <ele>34.7449</ele>
        <time>2012-10-11T18:59:24Z</time>
      </trkpt>
      <trkpt lat="59.9787935" lon="17.7393113">
        <ele>34.7449</ele>
        <time>2012-10-11T18:59:25Z</time>
      </trkpt>
      <trkpt lat="59.978757" lon="17.7393056">
        <ele>35.2255</ele>
        <time>2012-10-11T18:59:26Z</time>
      </trkpt>
      <trkpt lat="59.9787238" lon="17.739299">
        <ele>34.7449</ele>
        <time>2012-10-11T18:59:27Z</time>
      </trkpt>
      <trkpt lat="59.9786969" lon="17.7392828">
        <ele>34.2642</ele>
        <time>2012-10-11T18:59:28Z</time>
      </trkpt>
      <trkpt lat="59.9786791" lon="17.7392676">
        <ele>33.7834</ele>
        <time>2012-10-11T18:59:29Z</time>
      </trkpt>
      <trkpt lat="59.9786603" lon="17.7392538">
        <ele>33.7834</ele>
        <time>2012-10-11T18:59:30Z</time>
      </trkpt>
      <trkpt lat="59.9786354" lon="17.739246">
        <ele>34.2642</ele>
        <time>2012-10-11T18:59:31Z</time>
      </trkpt>
      <trkpt lat="59.9785984" lon="17.7392407">
        <ele>33.7834</ele>
        <time>2012-10-11T18:59:32Z</time>
      </trkpt>
      <trkpt lat="59.9785609" lon="17.7392502">
        <ele>33.3029</ele>
        <time>2012-10-11T18:59:33Z</time>
      </trkpt>
      <trkpt lat="59.9785273" lon="17.7392594">
        <ele>32.8223</ele>
        <time>2012-10-11T18:59:34Z</time>
      </trkpt>
      <trkpt lat="59.9784928" lon="17.7392607">
        <ele>33.3029</ele>
        <time>2012-10-11T18:59:35Z</time>
      </trkpt>
      <trkpt lat="59.9784606" lon="17.7392641">
        <ele>33.3029</ele>
        <time>2012-10-11T18:59:36Z</time>
      </trkpt>
      <trkpt lat="59.9784225" lon="17.7392721">
        <ele>33.3029</ele>
        <time>2012-10-11T18:59:37Z</time>
      </trkpt>
      <trkpt lat="59.9783829" lon="17.7392798">
        <ele>33.3029</ele>
        <time>2012-10-11T18:59:38Z</time>
      </trkpt>
      <trkpt lat="59.9783461" lon="17.7392919">
        <ele>33.7834</ele>
        <time>2012-10-11T18:59:39Z</time>
      </trkpt>
      <trkpt lat="59.9783158" lon="17.7392835">
        <ele>32.8223</ele>
        <time>2012-10-11T18:59:40Z</time>
      </trkpt>
      <trkpt lat="59.9782866" lon="17.7392776">
        <ele>33.3029</ele>
        <time>2012-10-11T18:59:41Z</time>
      </trkpt>
      <trkpt lat="59.9782586" lon="17.7392917">
        <ele>33.7834</ele>
        <time>2012-10-11T18:59:42Z</time>
      </trkpt>
      <trkpt lat="59.9782254" lon="17.73932">
        <ele>34.7449</ele>
        <time>2012-10-11T18:59:43Z</time>
      </trkpt>
      <trkpt lat="59.9781957" lon="17.7393208">
        <ele>35.2255</ele>
        <time>2012-10-11T18:59:44Z</time>
      </trkpt>
      <trkpt lat="59.9781671" lon="17.7393201">
        <ele>36.1868</ele>
        <time>2012-10-11T18:59:45Z</time>
      </trkpt>
      <trkpt lat="59.9781304" lon="17.7393077">
        <ele>37.1481</ele>
        <time>2012-10-11T18:59:46Z</time>
      </trkpt>
      <trkpt lat="59.9780917" lon="17.7392978">
        <ele>37.6287</ele>
        <time>2012-10-11T18:59:47Z</time>
      </trkpt>
      <trkpt lat="59.9780585" lon="17.7393021">
        <ele>38.1094</ele>
        <time>2012-10-11T18:59:48Z</time>
      </trkpt>
      <trkpt lat="59.9780285" lon="17.7392977">
        <ele>38.5901</ele>
        <time>2012-10-11T18:59:49Z</time>
      </trkpt>
      <trkpt lat="59.9780001" lon="17.7392881">
        <ele>38.5901</ele>
        <time>2012-10-11T18:59:50Z</time>
      </trkpt>
      <trkpt lat="59.9779747" lon="17.7392762">
        <ele>38.5901</ele>
        <time>2012-10-11T18:59:51Z</time>
      </trkpt>
      <trkpt lat="59.9779467" lon="17.7392398">
        <ele>38.5901</ele>
        <time>2012-10-11T18:59:52Z</time>
      </trkpt>
      <trkpt lat="59.9779157" lon="17.7391938">
        <ele>38.5901</ele>
        <time>2012-10-11T18:59:53Z</time>
      </trkpt>
      <trkpt lat="59.9778829" lon="17.7391667">
        <ele>38.5901</ele>
        <time>2012-10-11T18:59:54Z</time>
      </trkpt>
      <trkpt lat="59.9778524" lon="17.7391571">
        <ele>39.0707</ele>
        <time>2012-10-11T18:59:55Z</time>
      </trkpt>
      <trkpt lat="59.9778234" lon="17.7391492">
        <ele>39.0707</ele>
        <time>2012-10-11T18:59:56Z</time>
      </trkpt>
      <trkpt lat="59.9777939" lon="17.7391524">
        <ele>39.0707</ele>
        <time>2012-10-11T18:59:57Z</time>
      </trkpt>
      <trkpt lat="59.9777664" lon="17.7391483">
        <ele>38.5901</ele>
        <time>2012-10-11T18:59:58Z</time>
      </trkpt>
      <trkpt lat="59.9777403" lon="17.7391431">
        <ele>38.5901</ele>
        <time>2012-10-11T18:59:59Z</time>
      </trkpt>
      <trkpt lat="59.9777125" lon="17.7391396">
        <ele>38.1094</ele>
        <time>2012-10-11T19:00:00Z</time>
      </trkpt>
      <trkpt lat="59.9776857" lon="17.7391312">
        <ele>37.6287</ele>
        <time>2012-10-11T19:00:01Z</time>
      </trkpt>
      <trkpt lat="59.9776617" lon="17.7391165">
        <ele>37.1481</ele>
        <time>2012-10-11T19:00:02Z</time>
      </trkpt>
      <trkpt lat="59.9776362" lon="17.7390993">
        <ele>37.1481</ele>
        <time>2012-10-11T19:00:03Z</time>
      </trkpt>
      <trkpt lat="59.9776078" lon="17.7390907">
        <ele>36.6675</ele>
        <time>2012-10-11T19:00:04Z</time>
      </trkpt>
      <trkpt lat="59.9775763" lon="17.7391092">
        <ele>36.1868</ele>
        <time>2012-10-11T19:00:05Z</time>
      </trkpt>
      <trkpt lat="59.9775493" lon="17.7391363">
        <ele>35.7061</ele>
        <time>2012-10-11T19:00:06Z</time>
      </trkpt>
      <trkpt lat="59.9775199" lon="17.7391554">
        <ele>35.7061</ele>
        <time>2012-10-11T19:00:07Z</time>
      </trkpt>
      <trkpt lat="59.9774969" lon="17.7391795">
        <ele>35.2255</ele>
        <time>2012-10-11T19:00:08Z</time>
      </trkpt>
      <trkpt lat="59.9774809" lon="17.7391963">
        <ele>35.2255</ele>
        <time>2012-10-11T19:00:09Z</time>
      </trkpt>
      <trkpt lat="59.9774681" lon="17.7392046">
        <ele>34.7449</ele>
        <time>2012-10-11T19:00:10Z</time>
      </trkpt>
      <trkpt lat="59.9774416" lon="17.7392054">
        <ele>34.7449</ele>
        <time>2012-10-11T19:00:11Z</time>
      </trkpt>
      <trkpt lat="59.9774119" lon="17.7392138">
        <ele>34.7449</ele>
        <time>2012-10-11T19:00:12Z</time>
      </trkpt>
      <trkpt lat="59.9773883" lon="17.7392129">
        <ele>33.3029</ele>
        <time>2012-10-11T19:00:13Z</time>
      </trkpt>
      <trkpt lat="59.977365" lon="17.7392163">
        <ele>32.3416</ele>
        <time>2012-10-11T19:00:14Z</time>
      </trkpt>
      <trkpt lat="59.9773399" lon="17.7392247">
        <ele>30.8995</ele>
        <time>2012-10-11T19:00:15Z</time>
      </trkpt>
      <trkpt lat="59.9773141" lon="17.739234">
        <ele>29.9381</ele>
        <time>2012-10-11T19:00:16Z</time>
      </trkpt>
      <trkpt lat="59.9772877" lon="17.7392548">
        <ele>28.4962</ele>
        <time>2012-10-11T19:00:17Z</time>
      </trkpt>
      <trkpt lat="59.9772628" lon="17.7392787">
        <ele>28.0155</ele>
        <time>2012-10-11T19:00:18Z</time>
      </trkpt>
      <trkpt lat="59.9772368" lon="17.7392857">
        <ele>27.0543</ele>
        <time>2012-10-11T19:00:19Z</time>
      </trkpt>
      <trkpt lat="59.9772138" lon="17.7392902">
        <ele>26.0929</ele>
        <time>2012-10-11T19:00:20Z</time>
      </trkpt>
      <trkpt lat="59.9771933" lon="17.7393003">
        <ele>25.6123</ele>
        <time>2012-10-11T19:00:21Z</time>
      </trkpt>
      <trkpt lat="59.9771721" lon="17.7393107">
        <ele>25.6123</ele>
        <time>2012-10-11T19:00:22Z</time>
      </trkpt>
      <trkpt lat="59.9771527" lon="17.7393056">
        <ele>24.651</ele>
        <time>2012-10-11T19:00:23Z</time>
      </trkpt>
      <trkpt lat="59.9771318" lon="17.7393061">
        <ele>25.1317</ele>
        <time>2012-10-11T19:00:24Z</time>
      </trkpt>
      <trkpt lat="59.9771116" lon="17.7393098">
        <ele>24.651</ele>
        <time>2012-10-11T19:00:25Z</time>
      </trkpt>
      <trkpt lat="59.9770888" lon="17.7393258">
        <ele>24.1703</ele>
        <time>2012-10-11T19:00:26Z</time>
      </trkpt>
      <trkpt lat="59.977065" lon="17.739344">
        <ele>23.209</ele>
        <time>2012-10-11T19:00:27Z</time>
      </trkpt>
      <trkpt lat="59.9770396" lon="17.7393648">
        <ele>22.7283</ele>
        <time>2012-10-11T19:00:28Z</time>
      </trkpt>
      <trkpt lat="59.9770147" lon="17.7393777">
        <ele>22.2476</ele>
        <time>2012-10-11T19:00:29Z</time>
      </trkpt>
      <trkpt lat="59.9769916" lon="17.7393926">
        <ele>21.767</ele>
        <time>2012-10-11T19:00:30Z</time>
      </trkpt>
      <trkpt lat="59.9769687" lon="17.7394087">
        <ele>21.767</ele>
        <time>2012-10-11T19:00:31Z</time>
      </trkpt>
      <trkpt lat="59.9769457" lon="17.7394154">
        <ele>21.2864</ele>
        <time>2012-10-11T19:00:32Z</time>
      </trkpt>
      <trkpt lat="59.9769225" lon="17.7394134">
        <ele>21.2864</ele>
        <time>2012-10-11T19:00:33Z</time>
      </trkpt>
      <trkpt lat="59.9768956" lon="17.7394103">
        <ele>21.2864</ele>
        <time>2012-10-11T19:00:34Z</time>
      </trkpt>
      <trkpt lat="59.9768734" lon="17.7394092">
        <ele>21.2864</ele>
        <time>2012-10-11T19:00:35Z</time>
      </trkpt>
      <trkpt lat="59.9768557" lon="17.7394025">
        <ele>21.2864</ele>
        <time>2012-10-11T19:00:36Z</time>
      </trkpt>
      <trkpt lat="59.9768319" lon="17.7393787">
        <ele>21.2864</ele>
        <time>2012-10-11T19:00:37Z</time>
      </trkpt>
      <trkpt lat="59.9768065" lon="17.7393756">
        <ele>21.767</ele>
        <time>2012-10-11T19:00:38Z</time>
      </trkpt>
      <trkpt lat="59.9767835" lon="17.739381">
        <ele>22.2476</ele>
        <time>2012-10-11T19:00:39Z</time>
      </trkpt>
      <trkpt lat="59.9767649" lon="17.7393905">
        <ele>22.2476</ele>
        <time>2012-10-11T19:00:40Z</time>
      </trkpt>
      <trkpt lat="59.9767412" lon="17.7394">
        <ele>22.7283</ele>
        <time>2012-10-11T19:00:41Z</time>
      </trkpt>
      <trkpt lat="59.9767139" lon="17.7394135">
        <ele>23.209</ele>
        <time>2012-10-11T19:00:42Z</time>
      </trkpt>
      <trkpt lat="59.9766874" lon="17.7394093">
        <ele>23.6896</ele>
        <time>2012-10-11T19:00:43Z</time>
      </trkpt>
      <trkpt lat="59.9766613" lon="17.7394106">
        <ele>24.1703</ele>
        <time>2012-10-11T19:00:44Z</time>
      </trkpt>
      <trkpt lat="59.9766362" lon="17.7394292">
        <ele>24.1703</ele>
        <time>2012-10-11T19:00:45Z</time>
      </trkpt>
      <trkpt lat="59.9766076" lon="17.7394605">
        <ele>24.651</ele>
        <time>2012-10-11T19:00:46Z</time>
      </trkpt>
      <trkpt lat="59.9765817" lon="17.7394822">
        <ele>24.651</ele>
        <time>2012-10-11T19:00:47Z</time>
      </trkpt>
      <trkpt lat="59.97656" lon="17.7395097">
        <ele>24.651</ele>
        <time>2012-10-11T19:00:48Z</time>
      </trkpt>
      <trkpt lat="59.9765375" lon="17.7395345">
        <ele>24.651</ele>
        <time>2012-10-11T19:00:49Z</time>
      </trkpt>
      <trkpt lat="59.976518" lon="17.7395589">
        <ele>25.1317</ele>
        <time>2012-10-11T19:00:50Z</time>
      </trkpt>
      <trkpt lat="59.9765009" lon="17.7395862">
        <ele>25.1317</ele>
        <time>2012-10-11T19:00:51Z</time>
      </trkpt>
      <trkpt lat="59.9764828" lon="17.7396168">
        <ele>25.1317</ele>
        <time>2012-10-11T19:00:52Z</time>
      </trkpt>
      <trkpt lat="59.9764627" lon="17.7396423">
        <ele>25.6123</ele>
        <time>2012-10-11T19:00:53Z</time>
      </trkpt>
      <trkpt lat="59.9764429" lon="17.7396649">
        <ele>25.6123</ele>
        <time>2012-10-11T19:00:54Z</time>
      </trkpt>
      <trkpt lat="59.9764253" lon="17.739691">
        <ele>25.1317</ele>
        <time>2012-10-11T19:00:55Z</time>
      </trkpt>
      <trkpt lat="59.9764087" lon="17.7397221">
        <ele>25.1317</ele>
        <time>2012-10-11T19:00:56Z</time>
      </trkpt>
      <trkpt lat="59.976393" lon="17.739748">
        <ele>25.1317</ele>
        <time>2012-10-11T19:00:57Z</time>
      </trkpt>
      <trkpt lat="59.9763745" lon="17.7397786">
        <ele>25.1317</ele>
        <time>2012-10-11T19:00:58Z</time>
      </trkpt>
      <trkpt lat="59.9763555" lon="17.7398123">
        <ele>25.1317</ele>
        <time>2012-10-11T19:00:59Z</time>
      </trkpt>
      <trkpt lat="59.9763367" lon="17.7398526">
        <ele>25.6123</ele>
        <time>2012-10-11T19:01:00Z</time>
      </trkpt>
      <trkpt lat="59.9763237" lon="17.7398853">
        <ele>25.6123</ele>
        <time>2012-10-11T19:01:01Z</time>
      </trkpt>
      <trkpt lat="59.9763147" lon="17.7399225">
        <ele>25.6123</ele>
        <time>2012-10-11T19:01:02Z</time>
      </trkpt>
      <trkpt lat="59.9763045" lon="17.73997">
        <ele>25.6123</ele>
        <time>2012-10-11T19:01:03Z</time>
      </trkpt>
      <trkpt lat="59.9762912" lon="17.7400168">
        <ele>25.6123</ele>
        <time>2012-10-11T19:01:04Z</time>
      </trkpt>
      <trkpt lat="59.9762796" lon="17.7400557">
        <ele>26.0929</ele>
        <time>2012-10-11T19:01:05Z</time>
      </trkpt>
      <trkpt lat="59.9762713" lon="17.7400952">
        <ele>26.0929</ele>
        <time>2012-10-11T19:01:06Z</time>
      </trkpt>
      <trkpt lat="59.97626" lon="17.7401432">
        <ele>26.0929</ele>
        <time>2012-10-11T19:01:07Z</time>
      </trkpt>
      <trkpt lat="59.9762498" lon="17.740182">
        <ele>26.5736</ele>
        <time>2012-10-11T19:01:08Z</time>
      </trkpt>
      <trkpt lat="59.9762423" lon="17.740221">
        <ele>26.5736</ele>
        <time>2012-10-11T19:01:09Z</time>
      </trkpt>
      <trkpt lat="59.9762324" lon="17.7402659">
        <ele>27.0543</ele>
        <time>2012-10-11T19:01:10Z</time>
      </trkpt>
      <trkpt lat="59.9762212" lon="17.7403052">
        <ele>28.4962</ele>
        <time>2012-10-11T19:01:11Z</time>
      </trkpt>
      <trkpt lat="59.9762072" lon="17.7403442">
        <ele>28.4962</ele>
        <time>2012-10-11T19:01:12Z</time>
      </trkpt>
      <trkpt lat="59.9761931" lon="17.7403822">
        <ele>28.9769</ele>
        <time>2012-10-11T19:01:13Z</time>
      </trkpt>
      <trkpt lat="59.9761765" lon="17.7404156">
        <ele>29.4575</ele>
        <time>2012-10-11T19:01:14Z</time>
      </trkpt>
      <trkpt lat="59.976161" lon="17.740456">
        <ele>29.9381</ele>
        <time>2012-10-11T19:01:15Z</time>
      </trkpt>
      <trkpt lat="59.976148" lon="17.7405046">
        <ele>30.4188</ele>
        <time>2012-10-11T19:01:16Z</time>
      </trkpt>
      <trkpt lat="59.9761379" lon="17.7405533">
        <ele>30.4188</ele>
        <time>2012-10-11T19:01:17Z</time>
      </trkpt>
      <trkpt lat="59.9761269" lon="17.740597">
        <ele>31.3801</ele>
        <time>2012-10-11T19:01:18Z</time>
      </trkpt>
      <trkpt lat="59.9761133" lon="17.7406427">
        <ele>31.8607</ele>
        <time>2012-10-11T19:01:19Z</time>
      </trkpt>
      <trkpt lat="59.9760994" lon="17.7406935">
        <ele>31.8607</ele>
        <time>2012-10-11T19:01:20Z</time>
      </trkpt>
      <trkpt lat="59.9760825" lon="17.7407493">
        <ele>31.8607</ele>
        <time>2012-10-11T19:01:21Z</time>
      </trkpt>
      <trkpt lat="59.9760668" lon="17.7408001">
        <ele>32.8223</ele>
        <time>2012-10-11T19:01:22Z</time>
      </trkpt>
      <trkpt lat="59.9760528" lon="17.740851">
        <ele>32.8223</ele>
        <time>2012-10-11T19:01:23Z</time>
      </trkpt>
      <trkpt lat="59.9760413" lon="17.7408995">
        <ele>33.3029</ele>
        <time>2012-10-11T19:01:24Z</time>
      </trkpt>
      <trkpt lat="59.9760294" lon="17.7409446">
        <ele>33.3029</ele>
        <time>2012-10-11T19:01:25Z</time>
      </trkpt>
      <trkpt lat="59.9760207" lon="17.7409882">
        <ele>33.7834</ele>
        <time>2012-10-11T19:01:26Z</time>
      </trkpt>
      <trkpt lat="59.9760107" lon="17.7410323">
        <ele>33.7834</ele>
        <time>2012-10-11T19:01:27Z</time>
      </trkpt>
      <trkpt lat="59.975999" lon="17.7410752">
        <ele>33.7834</ele>
        <time>2012-10-11T19:01:28Z</time>
      </trkpt>
      <trkpt lat="59.9759842" lon="17.7411265">
        <ele>33.7834</ele>
        <time>2012-10-11T19:01:29Z</time>
      </trkpt>
      <trkpt lat="59.9759664" lon="17.741174">
        <ele>33.3029</ele>
        <time>2012-10-11T19:01:30Z</time>
      </trkpt>
      <trkpt lat="59.9759497" lon="17.7412247">
        <ele>33.3029</ele>
        <time>2012-10-11T19:01:31Z</time>
      </trkpt>
      <trkpt lat="59.9759335" lon="17.7412783">
        <ele>32.8223</ele>
        <time>2012-10-11T19:01:32Z</time>
      </trkpt>
      <trkpt lat="59.975916" lon="17.74133">
        <ele>32.8223</ele>
        <time>2012-10-11T19:01:33Z</time>
      </trkpt>
      <trkpt lat="59.9759016" lon="17.7413788">
        <ele>32.8223</ele>
        <time>2012-10-11T19:01:34Z</time>
      </trkpt>
      <trkpt lat="59.9758931" lon="17.7414272">
        <ele>32.3416</ele>
        <time>2012-10-11T19:01:35Z</time>
      </trkpt>
      <trkpt lat="59.9758803" lon="17.7414782">
        <ele>32.3416</ele>
        <time>2012-10-11T19:01:36Z</time>
      </trkpt>
      <trkpt lat="59.9758672" lon="17.7415331">
        <ele>31.8607</ele>
        <time>2012-10-11T19:01:37Z</time>
      </trkpt>
      <trkpt lat="59.9758608" lon="17.7415879">
        <ele>31.8607</ele>
        <time>2012-10-11T19:01:38Z</time>
      </trkpt>
      <trkpt lat="59.9758524" lon="17.7416428">
        <ele>32.3416</ele>
        <time>2012-10-11T19:01:39Z</time>
      </trkpt>
      <trkpt lat="59.9758434" lon="17.7416993">
        <ele>32.8223</ele>
        <time>2012-10-11T19:01:40Z</time>
      </trkpt>
      <trkpt lat="59.9758372" lon="17.7417582">
        <ele>32.8223</ele>
        <time>2012-10-11T19:01:41Z</time>
      </trkpt>
      <trkpt lat="59.9758296" lon="17.7418136">
        <ele>33.3029</ele>
        <time>2012-10-11T19:01:42Z</time>
      </trkpt>
      <trkpt lat="59.9758242" lon="17.7418651">
        <ele>33.3029</ele>
        <time>2012-10-11T19:01:43Z</time>
      </trkpt>
      <trkpt lat="59.9758161" lon="17.7419143">
        <ele>33.7834</ele>
        <time>2012-10-11T19:01:44Z</time>
      </trkpt>
      <trkpt lat="59.9758074" lon="17.741962">
        <ele>34.2642</ele>
        <time>2012-10-11T19:01:45Z</time>
      </trkpt>
      <trkpt lat="59.975799" lon="17.7420092">
        <ele>34.7449</ele>
        <time>2012-10-11T19:01:46Z</time>
      </trkpt>
      <trkpt lat="59.9757872" lon="17.7420562">
        <ele>35.2255</ele>
        <time>2012-10-11T19:01:47Z</time>
      </trkpt>
      <trkpt lat="59.9757766" lon="17.7421017">
        <ele>35.2255</ele>
        <time>2012-10-11T19:01:48Z</time>
      </trkpt>
      <trkpt lat="59.9757648" lon="17.7421516">
        <ele>35.2255</ele>
        <time>2012-10-11T19:01:49Z</time>
      </trkpt>
      <trkpt lat="59.9757535" lon="17.7421988">
        <ele>35.2255</ele>
        <time>2012-10-11T19:01:50Z</time>
      </trkpt>
      <trkpt lat="59.9757455" lon="17.7422411">
        <ele>35.7061</ele>
        <time>2012-10-11T19:01:51Z</time>
      </trkpt>
      <trkpt lat="59.9757354" lon="17.7422904">
        <ele>36.1868</ele>
        <time>2012-10-11T19:01:52Z</time>
      </trkpt>
      <trkpt lat="59.9757259" lon="17.7423405">
        <ele>36.6675</ele>
        <time>2012-10-11T19:01:53Z</time>
      </trkpt>
      <trkpt lat="59.9757172" lon="17.7423831">
        <ele>36.6675</ele>
        <time>2012-10-11T19:01:54Z</time>
      </trkpt>
      <trkpt lat="59.9757036" lon="17.7424259">
        <ele>37.1481</ele>
        <time>2012-10-11T19:01:55Z</time>
      </trkpt>
      <trkpt lat="59.9756916" lon="17.7424696">
        <ele>36.6675</ele>
        <time>2012-10-11T19:01:56Z</time>
      </trkpt>
      <trkpt lat="59.975682" lon="17.7425173">
        <ele>36.6675</ele>
        <time>2012-10-11T19:01:57Z</time>
      </trkpt>
      <trkpt lat="59.9756694" lon="17.7425644">
        <ele>37.1481</ele>
        <time>2012-10-11T19:01:58Z</time>
      </trkpt>
      <trkpt lat="59.9756567" lon="17.74261">
        <ele>36.6675</ele>
        <time>2012-10-11T19:01:59Z</time>
      </trkpt>
      <trkpt lat="59.9756445" lon="17.7426557">
        <ele>37.1481</ele>
        <time>2012-10-11T19:02:00Z</time>
      </trkpt>
      <trkpt lat="59.9756327" lon="17.7426981">
        <ele>37.1481</ele>
        <time>2012-10-11T19:02:01Z</time>
      </trkpt>
      <trkpt lat="59.9756213" lon="17.7427384">
        <ele>37.1481</ele>
        <time>2012-10-11T19:02:02Z</time>
      </trkpt>
      <trkpt lat="59.9756079" lon="17.7427815">
        <ele>37.6287</ele>
        <time>2012-10-11T19:02:03Z</time>
      </trkpt>
      <trkpt lat="59.9755906" lon="17.7428281">
        <ele>37.1481</ele>
        <time>2012-10-11T19:02:04Z</time>
      </trkpt>
      <trkpt lat="59.9755762" lon="17.742872">
        <ele>37.1481</ele>
        <time>2012-10-11T19:02:05Z</time>
      </trkpt>
      <trkpt lat="59.9755631" lon="17.7429194">
        <ele>37.1481</ele>
        <time>2012-10-11T19:02:06Z</time>
      </trkpt>
      <trkpt lat="59.9755463" lon="17.7429658">
        <ele>37.6287</ele>
        <time>2012-10-11T19:02:07Z</time>
      </trkpt>
      <trkpt lat="59.9755337" lon="17.7430068">
        <ele>38.1094</ele>
        <time>2012-10-11T19:02:08Z</time>
      </trkpt>
      <trkpt lat="59.9755214" lon="17.7430537">
        <ele>38.1094</ele>
        <time>2012-10-11T19:02:09Z</time>
      </trkpt>
      <trkpt lat="59.9755074" lon="17.7431024">
        <ele>38.5901</ele>
        <time>2012-10-11T19:02:10Z</time>
      </trkpt>
      <trkpt lat="59.9754955" lon="17.7431513">
        <ele>38.5901</ele>
        <time>2012-10-11T19:02:11Z</time>
      </trkpt>
      <trkpt lat="59.9754826" lon="17.7432011">
        <ele>38.5901</ele>
        <time>2012-10-11T19:02:12Z</time>
      </trkpt>
      <trkpt lat="59.9754685" lon="17.7432449">
        <ele>38.1094</ele>
        <time>2012-10-11T19:02:13Z</time>
      </trkpt>
      <trkpt lat="59.975456" lon="17.7432879">
        <ele>38.1094</ele>
        <time>2012-10-11T19:02:14Z</time>
      </trkpt>
      <trkpt lat="59.9754455" lon="17.7433331">
        <ele>38.1094</ele>
        <time>2012-10-11T19:02:15Z</time>
      </trkpt>
      <trkpt lat="59.9754364" lon="17.7433788">
        <ele>38.1094</ele>
        <time>2012-10-11T19:02:16Z</time>
      </trkpt>
      <trkpt lat="59.975427" lon="17.7434232">
        <ele>38.5901</ele>
        <time>2012-10-11T19:02:17Z</time>
      </trkpt>
      <trkpt lat="59.9754157" lon="17.7434689">
        <ele>38.5901</ele>
        <time>2012-10-11T19:02:18Z</time>
      </trkpt>
      <trkpt lat="59.9754057" lon="17.7435186">
        <ele>38.1094</ele>
        <time>2012-10-11T19:02:19Z</time>
      </trkpt>
      <trkpt lat="59.9753954" lon="17.7435751">
        <ele>38.1094</ele>
        <time>2012-10-11T19:02:20Z</time>
      </trkpt>
      <trkpt lat="59.9753851" lon="17.7436294">
        <ele>37.6287</ele>
        <time>2012-10-11T19:02:21Z</time>
      </trkpt>
      <trkpt lat="59.9753773" lon="17.7436777">
        <ele>37.1481</ele>
        <time>2012-10-11T19:02:22Z</time>
      </trkpt>
      <trkpt lat="59.9753702" lon="17.7437257">
        <ele>37.1481</ele>
        <time>2012-10-11T19:02:23Z</time>
      </trkpt>
      <trkpt lat="59.9753606" lon="17.7437709">
        <ele>37.1481</ele>
        <time>2012-10-11T19:02:24Z</time>
      </trkpt>
      <trkpt lat="59.9753512" lon="17.7438144">
        <ele>36.6675</ele>
        <time>2012-10-11T19:02:25Z</time>
      </trkpt>
      <trkpt lat="59.9753427" lon="17.7438641">
        <ele>36.6675</ele>
        <time>2012-10-11T19:02:26Z</time>
      </trkpt>
      <trkpt lat="59.9753355" lon="17.7439062">
        <ele>36.6675</ele>
        <time>2012-10-11T19:02:27Z</time>
      </trkpt>
      <trkpt lat="59.9753302" lon="17.7439453">
        <ele>36.1868</ele>
        <time>2012-10-11T19:02:28Z</time>
      </trkpt>
      <trkpt lat="59.975323" lon="17.743991">
        <ele>36.1868</ele>
        <time>2012-10-11T19:02:29Z</time>
      </trkpt>
      <trkpt lat="59.97531" lon="17.7440411">
        <ele>36.1868</ele>
        <time>2012-10-11T19:02:30Z</time>
      </trkpt>
      <trkpt lat="59.9753013" lon="17.7440869">
        <ele>35.7061</ele>
        <time>2012-10-11T19:02:31Z</time>
      </trkpt>
      <trkpt lat="59.9752971" lon="17.7441312">
        <ele>35.7061</ele>
        <time>2012-10-11T19:02:32Z</time>
      </trkpt>
      <trkpt lat="59.9752867" lon="17.7441789">
        <ele>35.2255</ele>
        <time>2012-10-11T19:02:33Z</time>
      </trkpt>
      <trkpt lat="59.9752756" lon="17.7442288">
        <ele>35.7061</ele>
        <time>2012-10-11T19:02:34Z</time>
      </trkpt>
      <trkpt lat="59.975268" lon="17.7442785">
        <ele>35.7061</ele>
        <time>2012-10-11T19:02:35Z</time>
      </trkpt>
      <trkpt lat="59.9752603" lon="17.7443265">
        <ele>36.1868</ele>
        <time>2012-10-11T19:02:36Z</time>
      </trkpt>
      <trkpt lat="59.9752513" lon="17.7443747">
        <ele>36.1868</ele>
        <time>2012-10-11T19:02:37Z</time>
      </trkpt>
      <trkpt lat="59.9752414" lon="17.7444228">
        <ele>35.7061</ele>
        <time>2012-10-11T19:02:38Z</time>
      </trkpt>
      <trkpt lat="59.975229" lon="17.744466">
        <ele>36.1868</ele>
        <time>2012-10-11T19:02:39Z</time>
      </trkpt>
      <trkpt lat="59.9752171" lon="17.744512">
        <ele>35.7061</ele>
        <time>2012-10-11T19:02:40Z</time>
      </trkpt>
      <trkpt lat="59.9752058" lon="17.7445629">
        <ele>36.1868</ele>
        <time>2012-10-11T19:02:41Z</time>
      </trkpt>
      <trkpt lat="59.9751927" lon="17.744611">
        <ele>36.6675</ele>
        <time>2012-10-11T19:02:42Z</time>
      </trkpt>
      <trkpt lat="59.975181" lon="17.7446598">
        <ele>37.1481</ele>
        <time>2012-10-11T19:02:43Z</time>
      </trkpt>
      <trkpt lat="59.9751665" lon="17.7447156">
        <ele>37.1481</ele>
        <time>2012-10-11T19:02:44Z</time>
      </trkpt>
      <trkpt lat="59.9751488" lon="17.7447701">
        <ele>37.6287</ele>
        <time>2012-10-11T19:02:45Z</time>
      </trkpt>
      <trkpt lat="59.9751339" lon="17.7448193">
        <ele>37.6287</ele>
        <time>2012-10-11T19:02:46Z</time>
      </trkpt>
      <trkpt lat="59.9751241" lon="17.7448635">
        <ele>38.1094</ele>
        <time>2012-10-11T19:02:47Z</time>
      </trkpt>
      <trkpt lat="59.9751128" lon="17.7449051">
        <ele>38.1094</ele>
        <time>2012-10-11T19:02:48Z</time>
      </trkpt>
      <trkpt lat="59.9750997" lon="17.7449499">
        <ele>38.1094</ele>
        <time>2012-10-11T19:02:49Z</time>
      </trkpt>
      <trkpt lat="59.9750848" lon="17.7449994">
        <ele>38.1094</ele>
        <time>2012-10-11T19:02:50Z</time>
      </trkpt>
      <trkpt lat="59.9750681" lon="17.7450486">
        <ele>38.5901</ele>
        <time>2012-10-11T19:02:51Z</time>
      </trkpt>
      <trkpt lat="59.9750562" lon="17.7450902">
        <ele>38.5901</ele>
        <time>2012-10-11T19:02:52Z</time>
      </trkpt>
      <trkpt lat="59.975041" lon="17.7451328">
        <ele>39.5513</ele>
        <time>2012-10-11T19:02:53Z</time>
      </trkpt>
      <trkpt lat="59.9750246" lon="17.7451751">
        <ele>39.5513</ele>
        <time>2012-10-11T19:02:54Z</time>
      </trkpt>
      <trkpt lat="59.975008" lon="17.7452216">
        <ele>40.5128</ele>
        <time>2012-10-11T19:02:55Z</time>
      </trkpt>
      <trkpt lat="59.9749892" lon="17.7452708">
        <ele>40.5128</ele>
        <time>2012-10-11T19:02:56Z</time>
      </trkpt>
      <trkpt lat="59.9749707" lon="17.7453145">
        <ele>40.9934</ele>
        <time>2012-10-11T19:02:57Z</time>
      </trkpt>
      <trkpt lat="59.9749536" lon="17.7453579">
        <ele>40.9934</ele>
        <time>2012-10-11T19:02:58Z</time>
      </trkpt>
      <trkpt lat="59.9749344" lon="17.7454006">
        <ele>41.9547</ele>
        <time>2012-10-11T19:02:59Z</time>
      </trkpt>
      <trkpt lat="59.9749172" lon="17.7454455">
        <ele>41.9547</ele>
        <time>2012-10-11T19:03:00Z</time>
      </trkpt>
      <trkpt lat="59.9749001" lon="17.7454936">
        <ele>42.4354</ele>
        <time>2012-10-11T19:03:01Z</time>
      </trkpt>
      <trkpt lat="59.9748816" lon="17.7455373">
        <ele>42.4354</ele>
        <time>2012-10-11T19:03:02Z</time>
      </trkpt>
      <trkpt lat="59.9748656" lon="17.7455761">
        <ele>42.4354</ele>
        <time>2012-10-11T19:03:03Z</time>
      </trkpt>
      <trkpt lat="59.9748472" lon="17.7456129">
        <ele>42.4354</ele>
        <time>2012-10-11T19:03:04Z</time>
      </trkpt>
      <trkpt lat="59.9748292" lon="17.745645">
        <ele>42.4354</ele>
        <time>2012-10-11T19:03:05Z</time>
      </trkpt>
      <trkpt lat="59.9748137" lon="17.7456823">
        <ele>42.4354</ele>
        <time>2012-10-11T19:03:06Z</time>
      </trkpt>
      <trkpt lat="59.974793" lon="17.7457243">
        <ele>42.916</ele>
        <time>2012-10-11T19:03:07Z</time>
      </trkpt>
      <trkpt lat="59.9747735" lon="17.7457648">
        <ele>43.3966</ele>
        <time>2012-10-11T19:03:08Z</time>
      </trkpt>
      <trkpt lat="59.9747529" lon="17.7458077">
        <ele>42.916</ele>
        <time>2012-10-11T19:03:09Z</time>
      </trkpt>
      <trkpt lat="59.9747309" lon="17.7458502">
        <ele>42.916</ele>
        <time>2012-10-11T19:03:10Z</time>
      </trkpt>
      <trkpt lat="59.9747107" lon="17.7458878">
        <ele>42.4354</ele>
        <time>2012-10-11T19:03:11Z</time>
      </trkpt>
      <trkpt lat="59.9746914" lon="17.7459227">
        <ele>42.4354</ele>
        <time>2012-10-11T19:03:12Z</time>
      </trkpt>
      <trkpt lat="59.9746707" lon="17.745947">
        <ele>42.4354</ele>
        <time>2012-10-11T19:03:13Z</time>
      </trkpt>
      <trkpt lat="59.974651" lon="17.7459717">
        <ele>41.9547</ele>
        <time>2012-10-11T19:03:14Z</time>
      </trkpt>
      <trkpt lat="59.9746329" lon="17.7460083">
        <ele>41.474</ele>
        <time>2012-10-11T19:03:15Z</time>
      </trkpt>
      <trkpt lat="59.9746124" lon="17.7460406">
        <ele>40.9934</ele>
        <time>2012-10-11T19:03:16Z</time>
      </trkpt>
      <trkpt lat="59.9745915" lon="17.7460718">
        <ele>40.9934</ele>
        <time>2012-10-11T19:03:17Z</time>
      </trkpt>
      <trkpt lat="59.9745703" lon="17.7461076">
        <ele>40.5128</ele>
        <time>2012-10-11T19:03:18Z</time>
      </trkpt>
      <trkpt lat="59.9745481" lon="17.7461491">
        <ele>40.5128</ele>
        <time>2012-10-11T19:03:19Z</time>
      </trkpt>
      <trkpt lat="59.9745268" lon="17.746189">
        <ele>40.0321</ele>
        <time>2012-10-11T19:03:20Z</time>
      </trkpt>
      <trkpt lat="59.9745061" lon="17.7462265">
        <ele>39.5513</ele>
        <time>2012-10-11T19:03:21Z</time>
      </trkpt>
      <trkpt lat="59.9744821" lon="17.7462579">
        <ele>39.0707</ele>
        <time>2012-10-11T19:03:22Z</time>
      </trkpt>
      <trkpt lat="59.9744572" lon="17.7462937">
        <ele>38.5901</ele>
        <time>2012-10-11T19:03:23Z</time>
      </trkpt>
      <trkpt lat="59.9744331" lon="17.7463252">
        <ele>38.5901</ele>
        <time>2012-10-11T19:03:24Z</time>
      </trkpt>
      <trkpt lat="59.9744095" lon="17.7463531">
        <ele>37.6287</ele>
        <time>2012-10-11T19:03:25Z</time>
      </trkpt>
      <trkpt lat="59.9743867" lon="17.7463858">
        <ele>36.6675</ele>
        <time>2012-10-11T19:03:26Z</time>
      </trkpt>
      <trkpt lat="59.9743645" lon="17.7464218">
        <ele>36.6675</ele>
        <time>2012-10-11T19:03:27Z</time>
      </trkpt>
      <trkpt lat="59.9743427" lon="17.7464562">
        <ele>36.6675</ele>
        <time>2012-10-11T19:03:28Z</time>
      </trkpt>
      <trkpt lat="59.9743206" lon="17.7464883">
        <ele>36.1868</ele>
        <time>2012-10-11T19:03:29Z</time>
      </trkpt>
      <trkpt lat="59.9742979" lon="17.7465195">
        <ele>35.7061</ele>
        <time>2012-10-11T19:03:30Z</time>
      </trkpt>
      <trkpt lat="59.9742735" lon="17.7465479">
        <ele>35.7061</ele>
        <time>2012-10-11T19:03:31Z</time>
      </trkpt>
      <trkpt lat="59.9742496" lon="17.7465774">
        <ele>35.2255</ele>
        <time>2012-10-11T19:03:32Z</time>
      </trkpt>
      <trkpt lat="59.9742249" lon="17.7466071">
        <ele>34.7449</ele>
        <time>2012-10-11T19:03:33Z</time>
      </trkpt>
      <trkpt lat="59.9742018" lon="17.7466364">
        <ele>34.7449</ele>
        <time>2012-10-11T19:03:34Z</time>
      </trkpt>
      <trkpt lat="59.9741813" lon="17.7466659">
        <ele>34.2642</ele>
        <time>2012-10-11T19:03:35Z</time>
      </trkpt>
      <trkpt lat="59.9741588" lon="17.7466943">
        <ele>34.2642</ele>
        <time>2012-10-11T19:03:36Z</time>
      </trkpt>
      <trkpt lat="59.9741355" lon="17.7467272">
        <ele>34.2642</ele>
        <time>2012-10-11T19:03:37Z</time>
      </trkpt>
      <trkpt lat="59.9741142" lon="17.7467624">
        <ele>33.7834</ele>
        <time>2012-10-11T19:03:38Z</time>
      </trkpt>
      <trkpt lat="59.9740927" lon="17.746794">
        <ele>33.3029</ele>
        <time>2012-10-11T19:03:39Z</time>
      </trkpt>
      <trkpt lat="59.9740718" lon="17.7468261">
        <ele>33.3029</ele>
        <time>2012-10-11T19:03:40Z</time>
      </trkpt>
      <trkpt lat="59.9740515" lon="17.7468591">
        <ele>32.8223</ele>
        <time>2012-10-11T19:03:41Z</time>
      </trkpt>
      <trkpt lat="59.9740305" lon="17.7468888">
        <ele>33.3029</ele>
        <time>2012-10-11T19:03:42Z</time>
      </trkpt>
      <trkpt lat="59.9740096" lon="17.7469186">
        <ele>32.8223</ele>
        <time>2012-10-11T19:03:43Z</time>
      </trkpt>
      <trkpt lat="59.9739843" lon="17.7469479">
        <ele>33.3029</ele>
        <time>2012-10-11T19:03:44Z</time>
      </trkpt>
      <trkpt lat="59.973958" lon="17.7469775">
        <ele>33.3029</ele>
        <time>2012-10-11T19:03:45Z</time>
      </trkpt>
      <trkpt lat="59.9739334" lon="17.7470079">
        <ele>33.3029</ele>
        <time>2012-10-11T19:03:46Z</time>
      </trkpt>
      <trkpt lat="59.973907" lon="17.7470359">
        <ele>33.7834</ele>
        <time>2012-10-11T19:03:47Z</time>
      </trkpt>
      <trkpt lat="59.9738808" lon="17.7470707">
        <ele>33.7834</ele>
        <time>2012-10-11T19:03:48Z</time>
      </trkpt>
      <trkpt lat="59.9738549" lon="17.7471092">
        <ele>33.7834</ele>
        <time>2012-10-11T19:03:49Z</time>
      </trkpt>
      <trkpt lat="59.97383" lon="17.7471391">
        <ele>33.7834</ele>
        <time>2012-10-11T19:03:50Z</time>
      </trkpt>
      <trkpt lat="59.9738072" lon="17.747167">
        <ele>33.7834</ele>
        <time>2012-10-11T19:03:51Z</time>
      </trkpt>
      <trkpt lat="59.973786" lon="17.7471966">
        <ele>33.7834</ele>
        <time>2012-10-11T19:03:52Z</time>
      </trkpt>
      <trkpt lat="59.9737633" lon="17.7472343">
        <ele>34.2642</ele>
        <time>2012-10-11T19:03:53Z</time>
      </trkpt>
      <trkpt lat="59.9737338" lon="17.747269">
        <ele>34.2642</ele>
        <time>2012-10-11T19:03:54Z</time>
      </trkpt>
      <trkpt lat="59.9737052" lon="17.7472975">
        <ele>34.2642</ele>
        <time>2012-10-11T19:03:55Z</time>
      </trkpt>
      <trkpt lat="59.9736788" lon="17.7473175">
        <ele>33.7834</ele>
        <time>2012-10-11T19:03:56Z</time>
      </trkpt>
      <trkpt lat="59.9736558" lon="17.7473406">
        <ele>33.3029</ele>
        <time>2012-10-11T19:03:57Z</time>
      </trkpt>
      <trkpt lat="59.9736352" lon="17.7473612">
        <ele>33.3029</ele>
        <time>2012-10-11T19:03:58Z</time>
      </trkpt>
      <trkpt lat="59.9736107" lon="17.7473858">
        <ele>32.8223</ele>
        <time>2012-10-11T19:03:59Z</time>
      </trkpt>
      <trkpt lat="59.9735839" lon="17.7474125">
        <ele>32.3416</ele>
        <time>2012-10-11T19:04:00Z</time>
      </trkpt>
      <trkpt lat="59.9735571" lon="17.7474368">
        <ele>32.3416</ele>
        <time>2012-10-11T19:04:01Z</time>
      </trkpt>
      <trkpt lat="59.9735331" lon="17.7474674">
        <ele>32.3416</ele>
        <time>2012-10-11T19:04:02Z</time>
      </trkpt>
      <trkpt lat="59.9735099" lon="17.7474913">
        <ele>31.8607</ele>
        <time>2012-10-11T19:04:03Z</time>
      </trkpt>
      <trkpt lat="59.9734866" lon="17.7475166">
        <ele>31.3801</ele>
        <time>2012-10-11T19:04:04Z</time>
      </trkpt>
      <trkpt lat="59.9734623" lon="17.7475493">
        <ele>30.8995</ele>
        <time>2012-10-11T19:04:05Z</time>
      </trkpt>
      <trkpt lat="59.9734396" lon="17.7475721">
        <ele>30.4188</ele>
        <time>2012-10-11T19:04:06Z</time>
      </trkpt>
      <trkpt lat="59.9734166" lon="17.747586">
        <ele>30.4188</ele>
        <time>2012-10-11T19:04:07Z</time>
      </trkpt>
      <trkpt lat="59.9733919" lon="17.7476067">
        <ele>30.4188</ele>
        <time>2012-10-11T19:04:08Z</time>
      </trkpt>
      <trkpt lat="59.9733669" lon="17.7476238">
        <ele>30.4188</ele>
        <time>2012-10-11T19:04:09Z</time>
      </trkpt>
      <trkpt lat="59.9733405" lon="17.7476412">
        <ele>30.4188</ele>
        <time>2012-10-11T19:04:10Z</time>
      </trkpt>
      <trkpt lat="59.9733167" lon="17.7476668">
        <ele>30.4188</ele>
        <time>2012-10-11T19:04:11Z</time>
      </trkpt>
      <trkpt lat="59.9732924" lon="17.7476948">
        <ele>29.9381</ele>
        <time>2012-10-11T19:04:12Z</time>
      </trkpt>
      <trkpt lat="59.973268" lon="17.7477176">
        <ele>29.9381</ele>
        <time>2012-10-11T19:04:13Z</time>
      </trkpt>
      <trkpt lat="59.9732414" lon="17.7477496">
        <ele>29.4575</ele>
        <time>2012-10-11T19:04:14Z</time>
      </trkpt>
      <trkpt lat="59.9732142" lon="17.7477849">
        <ele>29.4575</ele>
        <time>2012-10-11T19:04:15Z</time>
      </trkpt>
      <trkpt lat="59.9731899" lon="17.7478145">
        <ele>29.4575</ele>
        <time>2012-10-11T19:04:16Z</time>
      </trkpt>
      <trkpt lat="59.9731639" lon="17.7478419">
        <ele>29.4575</ele>
        <time>2012-10-11T19:04:17Z</time>
      </trkpt>
      <trkpt lat="59.9731375" lon="17.7478656">
        <ele>28.9769</ele>
        <time>2012-10-11T19:04:18Z</time>
      </trkpt>
      <trkpt lat="59.9731114" lon="17.7478964">
        <ele>28.9769</ele>
        <time>2012-10-11T19:04:19Z</time>
      </trkpt>
      <trkpt lat="59.9730826" lon="17.7479306">
        <ele>28.4962</ele>
        <time>2012-10-11T19:04:20Z</time>
      </trkpt>
      <trkpt lat="59.9730572" lon="17.7479729">
        <ele>28.4962</ele>
        <time>2012-10-11T19:04:21Z</time>
      </trkpt>
      <trkpt lat="59.9730344" lon="17.7480072">
        <ele>28.0155</ele>
        <time>2012-10-11T19:04:22Z</time>
      </trkpt>
      <trkpt lat="59.9730111" lon="17.7480372">
        <ele>28.0155</ele>
        <time>2012-10-11T19:04:23Z</time>
      </trkpt>
      <trkpt lat="59.9729862" lon="17.7480738">
        <ele>28.0155</ele>
        <time>2012-10-11T19:04:24Z</time>
      </trkpt>
      <trkpt lat="59.9729604" lon="17.7481086">
        <ele>28.0155</ele>
        <time>2012-10-11T19:04:25Z</time>
      </trkpt>
      <trkpt lat="59.9729381" lon="17.7481434">
        <ele>27.5349</ele>
        <time>2012-10-11T19:04:26Z</time>
      </trkpt>
      <trkpt lat="59.9729198" lon="17.7481815">
        <ele>27.5349</ele>
        <time>2012-10-11T19:04:27Z</time>
      </trkpt>
      <trkpt lat="59.9728951" lon="17.7482242">
        <ele>27.5349</ele>
        <time>2012-10-11T19:04:28Z</time>
      </trkpt>
      <trkpt lat="59.9728737" lon="17.7482659">
        <ele>27.5349</ele>
        <time>2012-10-11T19:04:29Z</time>
      </trkpt>
      <trkpt lat="59.9728572" lon="17.7483001">
        <ele>28.0155</ele>
        <time>2012-10-11T19:04:30Z</time>
      </trkpt>
      <trkpt lat="59.9728416" lon="17.7483299">
        <ele>28.0155</ele>
        <time>2012-10-11T19:04:31Z</time>
      </trkpt>
      <trkpt lat="59.9728316" lon="17.7483521">
        <ele>27.5349</ele>
        <time>2012-10-11T19:04:32Z</time>
      </trkpt>
      <trkpt lat="59.9728225" lon="17.7483729">
        <ele>27.5349</ele>
        <time>2012-10-11T19:04:33Z</time>
      </trkpt>
      <trkpt lat="59.9728039" lon="17.7484102">
        <ele>28.0155</ele>
        <time>2012-10-11T19:04:34Z</time>
      </trkpt>
      <trkpt lat="59.9727843" lon="17.7484515">
        <ele>28.0155</ele>
        <time>2012-10-11T19:04:35Z</time>
      </trkpt>
      <trkpt lat="59.9727684" lon="17.7484894">
        <ele>28.4962</ele>
        <time>2012-10-11T19:04:36Z</time>
      </trkpt>
      <trkpt lat="59.9727527" lon="17.7485288">
        <ele>28.9769</ele>
        <time>2012-10-11T19:04:37Z</time>
      </trkpt>
      <trkpt lat="59.9727318" lon="17.7485713">
        <ele>29.9381</ele>
        <time>2012-10-11T19:04:38Z</time>
      </trkpt>
      <trkpt lat="59.9727111" lon="17.7486096">
        <ele>29.9381</ele>
        <time>2012-10-11T19:04:39Z</time>
      </trkpt>
      <trkpt lat="59.9726925" lon="17.7486479">
        <ele>30.4188</ele>
        <time>2012-10-11T19:04:40Z</time>
      </trkpt>
      <trkpt lat="59.9726749" lon="17.7486905">
        <ele>30.8995</ele>
        <time>2012-10-11T19:04:41Z</time>
      </trkpt>
      <trkpt lat="59.972663" lon="17.748735">
        <ele>31.3801</ele>
        <time>2012-10-11T19:04:42Z</time>
      </trkpt>
      <trkpt lat="59.9726527" lon="17.7487674">
        <ele>31.3801</ele>
        <time>2012-10-11T19:04:43Z</time>
      </trkpt>
      <trkpt lat="59.9726408" lon="17.748805">
        <ele>31.8607</ele>
        <time>2012-10-11T19:04:44Z</time>
      </trkpt>
      <trkpt lat="59.9726304" lon="17.7488407">
        <ele>31.3801</ele>
        <time>2012-10-11T19:04:45Z</time>
      </trkpt>
      <trkpt lat="59.9726198" lon="17.7488691">
        <ele>31.8607</ele>
        <time>2012-10-11T19:04:46Z</time>
      </trkpt>
      <trkpt lat="59.9726033" lon="17.7489028">
        <ele>32.3416</ele>
        <time>2012-10-11T19:04:47Z</time>
      </trkpt>
      <trkpt lat="59.9725858" lon="17.7489432">
        <ele>32.8223</ele>
        <time>2012-10-11T19:04:48Z</time>
      </trkpt>
      <trkpt lat="59.9725656" lon="17.7489829">
        <ele>32.8223</ele>
        <time>2012-10-11T19:04:49Z</time>
      </trkpt>
      <trkpt lat="59.9725454" lon="17.7490239">
        <ele>32.8223</ele>
        <time>2012-10-11T19:04:50Z</time>
      </trkpt>
      <trkpt lat="59.9725242" lon="17.7490697">
        <ele>32.8223</ele>
        <time>2012-10-11T19:04:51Z</time>
      </trkpt>
      <trkpt lat="59.972504" lon="17.7491158">
        <ele>32.8223</ele>
        <time>2012-10-11T19:04:52Z</time>
      </trkpt>
      <trkpt lat="59.9724885" lon="17.7491602">
        <ele>32.8223</ele>
        <time>2012-10-11T19:04:53Z</time>
      </trkpt>
      <trkpt lat="59.9724719" lon="17.7492">
        <ele>33.3029</ele>
        <time>2012-10-11T19:04:54Z</time>
      </trkpt>
      <trkpt lat="59.9724527" lon="17.7492357">
        <ele>33.3029</ele>
        <time>2012-10-11T19:04:55Z</time>
      </trkpt>
      <trkpt lat="59.9724324" lon="17.7492725">
        <ele>33.7834</ele>
        <time>2012-10-11T19:04:56Z</time>
      </trkpt>
      <trkpt lat="59.97241" lon="17.7493097">
        <ele>34.2642</ele>
        <time>2012-10-11T19:04:57Z</time>
      </trkpt>
      <trkpt lat="59.972388" lon="17.7493566">
        <ele>35.2255</ele>
        <time>2012-10-11T19:04:58Z</time>
      </trkpt>
      <trkpt lat="59.9723729" lon="17.7494054">
        <ele>36.6675</ele>
        <time>2012-10-11T19:04:59Z</time>
      </trkpt>
      <trkpt lat="59.9723594" lon="17.7494425">
        <ele>36.6675</ele>
        <time>2012-10-11T19:05:00Z</time>
      </trkpt>
      <trkpt lat="59.9723464" lon="17.7494835">
        <ele>36.6675</ele>
        <time>2012-10-11T19:05:01Z</time>
      </trkpt>
      <trkpt lat="59.9723335" lon="17.7495295">
        <ele>37.6287</ele>
        <time>2012-10-11T19:05:02Z</time>
      </trkpt>
      <trkpt lat="59.9723216" lon="17.7495665">
        <ele>39.0707</ele>
        <time>2012-10-11T19:05:03Z</time>
      </trkpt>
      <trkpt lat="59.9723009" lon="17.7496082">
        <ele>38.1094</ele>
        <time>2012-10-11T19:05:04Z</time>
      </trkpt>
      <trkpt lat="59.9722802" lon="17.7496478">
        <ele>38.5901</ele>
        <time>2012-10-11T19:05:05Z</time>
      </trkpt>
      <trkpt lat="59.972258" lon="17.7496937">
        <ele>38.1094</ele>
        <time>2012-10-11T19:05:06Z</time>
      </trkpt>
      <trkpt lat="59.9722361" lon="17.7497412">
        <ele>37.6287</ele>
        <time>2012-10-11T19:05:07Z</time>
      </trkpt>
      <trkpt lat="59.9722155" lon="17.7497882">
        <ele>37.1481</ele>
        <time>2012-10-11T19:05:08Z</time>
      </trkpt>
      <trkpt lat="59.9721962" lon="17.7498357">
        <ele>37.6287</ele>
        <time>2012-10-11T19:05:09Z</time>
      </trkpt>
      <trkpt lat="59.9721765" lon="17.7498837">
        <ele>37.6287</ele>
        <time>2012-10-11T19:05:10Z</time>
      </trkpt>
      <trkpt lat="59.9721606" lon="17.7499343">
        <ele>38.1094</ele>
        <time>2012-10-11T19:05:11Z</time>
      </trkpt>
      <trkpt lat="59.9721455" lon="17.74997">
        <ele>38.1094</ele>
        <time>2012-10-11T19:05:12Z</time>
      </trkpt>
      <trkpt lat="59.9721306" lon="17.7500059">
        <ele>37.6287</ele>
        <time>2012-10-11T19:05:13Z</time>
      </trkpt>
      <trkpt lat="59.9721139" lon="17.7500335">
        <ele>36.6675</ele>
        <time>2012-10-11T19:05:14Z</time>
      </trkpt>
      <trkpt lat="59.9720963" lon="17.7500657">
        <ele>36.6675</ele>
        <time>2012-10-11T19:05:15Z</time>
      </trkpt>
      <trkpt lat="59.9720803" lon="17.7500981">
        <ele>36.6675</ele>
        <time>2012-10-11T19:05:16Z</time>
      </trkpt>
      <trkpt lat="59.9720582" lon="17.7501387">
        <ele>36.6675</ele>
        <time>2012-10-11T19:05:17Z</time>
      </trkpt>
      <trkpt lat="59.9720373" lon="17.7501683">
        <ele>36.1868</ele>
        <time>2012-10-11T19:05:18Z</time>
      </trkpt>
      <trkpt lat="59.9720201" lon="17.7502047">
        <ele>35.7061</ele>
        <time>2012-10-11T19:05:19Z</time>
      </trkpt>
      <trkpt lat="59.9719997" lon="17.750247">
        <ele>35.2255</ele>
        <time>2012-10-11T19:05:20Z</time>
      </trkpt>
      <trkpt lat="59.9719778" lon="17.7502955">
        <ele>35.2255</ele>
        <time>2012-10-11T19:05:21Z</time>
      </trkpt>
      <trkpt lat="59.9719576" lon="17.7503355">
        <ele>34.2642</ele>
        <time>2012-10-11T19:05:22Z</time>
      </trkpt>
      <trkpt lat="59.971941" lon="17.750373">
        <ele>33.7834</ele>
        <time>2012-10-11T19:05:23Z</time>
      </trkpt>
      <trkpt lat="59.9719238" lon="17.75041">
        <ele>34.2642</ele>
        <time>2012-10-11T19:05:24Z</time>
      </trkpt>
      <trkpt lat="59.9719004" lon="17.7504549">
        <ele>34.2642</ele>
        <time>2012-10-11T19:05:25Z</time>
      </trkpt>
      <trkpt lat="59.9718801" lon="17.7504887">
        <ele>33.3029</ele>
        <time>2012-10-11T19:05:26Z</time>
      </trkpt>
      <trkpt lat="59.9718559" lon="17.7505211">
        <ele>33.3029</ele>
        <time>2012-10-11T19:05:27Z</time>
      </trkpt>
      <trkpt lat="59.9718326" lon="17.7505675">
        <ele>32.8223</ele>
        <time>2012-10-11T19:05:28Z</time>
      </trkpt>
      <trkpt lat="59.9718119" lon="17.7506076">
        <ele>33.3029</ele>
        <time>2012-10-11T19:05:29Z</time>
      </trkpt>
      <trkpt lat="59.9717927" lon="17.7506405">
        <ele>32.8223</ele>
        <time>2012-10-11T19:05:30Z</time>
      </trkpt>
      <trkpt lat="59.9717741" lon="17.750678">
        <ele>31.8607</ele>
        <time>2012-10-11T19:05:31Z</time>
      </trkpt>
      <trkpt lat="59.9717619" lon="17.7507189">
        <ele>31.3801</ele>
        <time>2012-10-11T19:05:32Z</time>
      </trkpt>
      <trkpt lat="59.9717428" lon="17.7507543">
        <ele>31.8607</ele>
        <time>2012-10-11T19:05:33Z</time>
      </trkpt>
      <trkpt lat="59.9717205" lon="17.7507827">
        <ele>31.8607</ele>
        <time>2012-10-11T19:05:34Z</time>
      </trkpt>
      <trkpt lat="59.9717005" lon="17.750818">
        <ele>31.3801</ele>
        <time>2012-10-11T19:05:35Z</time>
      </trkpt>
      <trkpt lat="59.9716773" lon="17.7508509">
        <ele>31.3801</ele>
        <time>2012-10-11T19:05:36Z</time>
      </trkpt>
      <trkpt lat="59.971654" lon="17.7508862">
        <ele>30.8995</ele>
        <time>2012-10-11T19:05:37Z</time>
      </trkpt>
      <trkpt lat="59.9716327" lon="17.7509249">
        <ele>30.8995</ele>
        <time>2012-10-11T19:05:38Z</time>
      </trkpt>
      <trkpt lat="59.9716068" lon="17.7509594">
        <ele>30.4188</ele>
        <time>2012-10-11T19:05:39Z</time>
      </trkpt>
      <trkpt lat="59.9715819" lon="17.7509961">
        <ele>30.4188</ele>
        <time>2012-10-11T19:05:40Z</time>
      </trkpt>
      <trkpt lat="59.9715606" lon="17.7510378">
        <ele>30.8995</ele>
        <time>2012-10-11T19:05:41Z</time>
      </trkpt>
      <trkpt lat="59.971538" lon="17.7510754">
        <ele>30.8995</ele>
        <time>2012-10-11T19:05:42Z</time>
      </trkpt>
      <trkpt lat="59.9715161" lon="17.751109">
        <ele>30.4188</ele>
        <time>2012-10-11T19:05:43Z</time>
      </trkpt>
      <trkpt lat="59.9714927" lon="17.751143">
        <ele>30.4188</ele>
        <time>2012-10-11T19:05:44Z</time>
      </trkpt>
      <trkpt lat="59.9714643" lon="17.7511694">
        <ele>30.8995</ele>
        <time>2012-10-11T19:05:45Z</time>
      </trkpt>
      <trkpt lat="59.9714379" lon="17.7511934">
        <ele>31.3801</ele>
        <time>2012-10-11T19:05:46Z</time>
      </trkpt>
      <trkpt lat="59.9714128" lon="17.7512157">
        <ele>31.3801</ele>
        <time>2012-10-11T19:05:47Z</time>
      </trkpt>
      <trkpt lat="59.9713871" lon="17.7512494">
        <ele>31.3801</ele>
        <time>2012-10-11T19:05:48Z</time>
      </trkpt>
      <trkpt lat="59.9713598" lon="17.7512865">
        <ele>31.3801</ele>
        <time>2012-10-11T19:05:49Z</time>
      </trkpt>
      <trkpt lat="59.9713404" lon="17.7513203">
        <ele>30.8995</ele>
        <time>2012-10-11T19:05:50Z</time>
      </trkpt>
      <trkpt lat="59.971317" lon="17.7513546">
        <ele>30.8995</ele>
        <time>2012-10-11T19:05:51Z</time>
      </trkpt>
      <trkpt lat="59.9712913" lon="17.7513902">
        <ele>30.8995</ele>
        <time>2012-10-11T19:05:52Z</time>
      </trkpt>
      <trkpt lat="59.9712695" lon="17.7514228">
        <ele>30.4188</ele>
        <time>2012-10-11T19:05:53Z</time>
      </trkpt>
      <trkpt lat="59.9712457" lon="17.7514528">
        <ele>30.4188</ele>
        <time>2012-10-11T19:05:54Z</time>
      </trkpt>
      <trkpt lat="59.9712237" lon="17.7514843">
        <ele>29.9381</ele>
        <time>2012-10-11T19:05:55Z</time>
      </trkpt>
      <trkpt lat="59.9712037" lon="17.7515156">
        <ele>30.4188</ele>
        <time>2012-10-11T19:05:56Z</time>
      </trkpt>
      <trkpt lat="59.9711774" lon="17.7515498">
        <ele>29.9381</ele>
        <time>2012-10-11T19:05:57Z</time>
      </trkpt>
      <trkpt lat="59.9711466" lon="17.7515856">
        <ele>29.9381</ele>
        <time>2012-10-11T19:05:58Z</time>
      </trkpt>
      <trkpt lat="59.9711181" lon="17.7516245">
        <ele>29.4575</ele>
        <time>2012-10-11T19:05:59Z</time>
      </trkpt>
      <trkpt lat="59.9710887" lon="17.7516696">
        <ele>28.4962</ele>
        <time>2012-10-11T19:06:00Z</time>
      </trkpt>
      <trkpt lat="59.9710567" lon="17.7516793">
        <ele>28.4962</ele>
        <time>2012-10-11T19:06:01Z</time>
      </trkpt>
      <trkpt lat="59.9710316" lon="17.7516924">
        <ele>28.0155</ele>
        <time>2012-10-11T19:06:02Z</time>
      </trkpt>
      <trkpt lat="59.9710094" lon="17.7517099">
        <ele>27.5349</ele>
        <time>2012-10-11T19:06:03Z</time>
      </trkpt>
      <trkpt lat="59.9709854" lon="17.7517253">
        <ele>27.5349</ele>
        <time>2012-10-11T19:06:04Z</time>
      </trkpt>
      <trkpt lat="59.970963" lon="17.7517402">
        <ele>27.0543</ele>
        <time>2012-10-11T19:06:05Z</time>
      </trkpt>
      <trkpt lat="59.9709423" lon="17.7517695">
        <ele>26.5736</ele>
        <time>2012-10-11T19:06:06Z</time>
      </trkpt>
      <trkpt lat="59.9709209" lon="17.7518021">
        <ele>26.0929</ele>
        <time>2012-10-11T19:06:07Z</time>
      </trkpt>
      <trkpt lat="59.9709007" lon="17.7518407">
        <ele>25.1317</ele>
        <time>2012-10-11T19:06:08Z</time>
      </trkpt>
      <trkpt lat="59.9708818" lon="17.7518825">
        <ele>24.651</ele>
        <time>2012-10-11T19:06:09Z</time>
      </trkpt>
      <trkpt lat="59.9708628" lon="17.7519169">
        <ele>24.1703</ele>
        <time>2012-10-11T19:06:10Z</time>
      </trkpt>
      <trkpt lat="59.9708468" lon="17.7519658">
        <ele>23.6896</ele>
        <time>2012-10-11T19:06:11Z</time>
      </trkpt>
      <trkpt lat="59.9708271" lon="17.7520057">
        <ele>22.7283</ele>
        <time>2012-10-11T19:06:12Z</time>
      </trkpt>
      <trkpt lat="59.9708075" lon="17.7520536">
        <ele>22.2476</ele>
        <time>2012-10-11T19:06:13Z</time>
      </trkpt>
      <trkpt lat="59.9707842" lon="17.7520783">
        <ele>22.2476</ele>
        <time>2012-10-11T19:06:14Z</time>
      </trkpt>
      <trkpt lat="59.9707643" lon="17.7521103">
        <ele>21.767</ele>
        <time>2012-10-11T19:06:15Z</time>
      </trkpt>
      <trkpt lat="59.9707441" lon="17.7521408">
        <ele>21.2864</ele>
        <time>2012-10-11T19:06:16Z</time>
      </trkpt>
      <trkpt lat="59.9707261" lon="17.7521686">
        <ele>20.8057</ele>
        <time>2012-10-11T19:06:17Z</time>
      </trkpt>
      <trkpt lat="59.9707078" lon="17.7521967">
        <ele>20.325</ele>
        <time>2012-10-11T19:06:18Z</time>
      </trkpt>
      <trkpt lat="59.970693" lon="17.7522336">
        <ele>20.325</ele>
        <time>2012-10-11T19:06:19Z</time>
      </trkpt>
      <trkpt lat="59.9706754" lon="17.7522745">
        <ele>19.8444</ele>
        <time>2012-10-11T19:06:20Z</time>
      </trkpt>
      <trkpt lat="59.9706573" lon="17.7523215">
        <ele>19.8444</ele>
        <time>2012-10-11T19:06:21Z</time>
      </trkpt>
      <trkpt lat="59.970641" lon="17.7523699">
        <ele>19.3638</ele>
        <time>2012-10-11T19:06:22Z</time>
      </trkpt>
      <trkpt lat="59.9706236" lon="17.752414">
        <ele>19.3638</ele>
        <time>2012-10-11T19:06:23Z</time>
      </trkpt>
      <trkpt lat="59.9705997" lon="17.752433">
        <ele>19.8444</ele>
        <time>2012-10-11T19:06:24Z</time>
      </trkpt>
      <trkpt lat="59.9705778" lon="17.7524567">
        <ele>19.8444</ele>
        <time>2012-10-11T19:06:25Z</time>
      </trkpt>
      <trkpt lat="59.9705594" lon="17.7524853">
        <ele>20.325</ele>
        <time>2012-10-11T19:06:26Z</time>
      </trkpt>
      <trkpt lat="59.9705427" lon="17.7525097">
        <ele>20.325</ele>
        <time>2012-10-11T19:06:27Z</time>
      </trkpt>
      <trkpt lat="59.9705241" lon="17.7525328">
        <ele>20.8057</ele>
        <time>2012-10-11T19:06:28Z</time>
      </trkpt>
      <trkpt lat="59.9705068" lon="17.7525652">
        <ele>20.8057</ele>
        <time>2012-10-11T19:06:29Z</time>
      </trkpt>
      <trkpt lat="59.9704863" lon="17.7525998">
        <ele>20.8057</ele>
        <time>2012-10-11T19:06:30Z</time>
      </trkpt>
      <trkpt lat="59.9704691" lon="17.7526408">
        <ele>20.8057</ele>
        <time>2012-10-11T19:06:31Z</time>
      </trkpt>
      <trkpt lat="59.9704586" lon="17.75268">
        <ele>21.2864</ele>
        <time>2012-10-11T19:06:32Z</time>
      </trkpt>
      <trkpt lat="59.970448" lon="17.7527147">
        <ele>20.8057</ele>
        <time>2012-10-11T19:06:33Z</time>
      </trkpt>
      <trkpt lat="59.9704335" lon="17.7527506">
        <ele>21.2864</ele>
        <time>2012-10-11T19:06:34Z</time>
      </trkpt>
      <trkpt lat="59.970418" lon="17.7527858">
        <ele>21.2864</ele>
        <time>2012-10-11T19:06:35Z</time>
      </trkpt>
      <trkpt lat="59.9704039" lon="17.7528225">
        <ele>21.2864</ele>
        <time>2012-10-11T19:06:36Z</time>
      </trkpt>
      <trkpt lat="59.9703871" lon="17.7528679">
        <ele>21.767</ele>
        <time>2012-10-11T19:06:37Z</time>
      </trkpt>
      <trkpt lat="59.970368" lon="17.752907">
        <ele>21.767</ele>
        <time>2012-10-11T19:06:38Z</time>
      </trkpt>
      <trkpt lat="59.970346" lon="17.7529483">
        <ele>21.767</ele>
        <time>2012-10-11T19:06:39Z</time>
      </trkpt>
      <trkpt lat="59.9703221" lon="17.7529833">
        <ele>22.2476</ele>
        <time>2012-10-11T19:06:40Z</time>
      </trkpt>
      <trkpt lat="59.9703027" lon="17.7530251">
        <ele>21.767</ele>
        <time>2012-10-11T19:06:41Z</time>
      </trkpt>
      <trkpt lat="59.9702853" lon="17.753069">
        <ele>22.2476</ele>
        <time>2012-10-11T19:06:42Z</time>
      </trkpt>
      <trkpt lat="59.9702646" lon="17.7531184">
        <ele>22.2476</ele>
        <time>2012-10-11T19:06:43Z</time>
      </trkpt>
      <trkpt lat="59.9702485" lon="17.7531653">
        <ele>22.7283</ele>
        <time>2012-10-11T19:06:44Z</time>
      </trkpt>
      <trkpt lat="59.9702391" lon="17.7532067">
        <ele>23.209</ele>
        <time>2012-10-11T19:06:45Z</time>
      </trkpt>
      <trkpt lat="59.97023" lon="17.7532556">
        <ele>23.6896</ele>
        <time>2012-10-11T19:06:46Z</time>
      </trkpt>
      <trkpt lat="59.9702157" lon="17.7532992">
        <ele>24.651</ele>
        <time>2012-10-11T19:06:47Z</time>
      </trkpt>
      <trkpt lat="59.970204" lon="17.7533354">
        <ele>24.651</ele>
        <time>2012-10-11T19:06:48Z</time>
      </trkpt>
      <trkpt lat="59.9701944" lon="17.7533665">
        <ele>25.6123</ele>
        <time>2012-10-11T19:06:49Z</time>
      </trkpt>
      <trkpt lat="59.9701825" lon="17.7534038">
        <ele>25.6123</ele>
        <time>2012-10-11T19:06:50Z</time>
      </trkpt>
      <trkpt lat="59.9701671" lon="17.7534442">
        <ele>26.0929</ele>
        <time>2012-10-11T19:06:51Z</time>
      </trkpt>
      <trkpt lat="59.9701544" lon="17.7534836">
        <ele>26.0929</ele>
        <time>2012-10-11T19:06:52Z</time>
      </trkpt>
      <trkpt lat="59.970144" lon="17.7535254">
        <ele>26.0929</ele>
        <time>2012-10-11T19:06:53Z</time>
      </trkpt>
      <trkpt lat="59.9701315" lon="17.7535664">
        <ele>26.0929</ele>
        <time>2012-10-11T19:06:54Z</time>
      </trkpt>
      <trkpt lat="59.9701202" lon="17.7536017">
        <ele>26.0929</ele>
        <time>2012-10-11T19:06:55Z</time>
      </trkpt>
      <trkpt lat="59.9701082" lon="17.7536405">
        <ele>26.5736</ele>
        <time>2012-10-11T19:06:56Z</time>
      </trkpt>
      <trkpt lat="59.9700916" lon="17.7536768">
        <ele>26.5736</ele>
        <time>2012-10-11T19:06:57Z</time>
      </trkpt>
      <trkpt lat="59.970073" lon="17.7537115">
        <ele>27.0543</ele>
        <time>2012-10-11T19:06:58Z</time>
      </trkpt>
      <trkpt lat="59.9700507" lon="17.7537509">
        <ele>27.0543</ele>
        <time>2012-10-11T19:06:59Z</time>
      </trkpt>
      <trkpt lat="59.970031" lon="17.7537901">
        <ele>27.0543</ele>
        <time>2012-10-11T19:07:00Z</time>
      </trkpt>
      <trkpt lat="59.9700147" lon="17.753826">
        <ele>26.5736</ele>
        <time>2012-10-11T19:07:01Z</time>
      </trkpt>
      <trkpt lat="59.9699983" lon="17.75386">
        <ele>27.0543</ele>
        <time>2012-10-11T19:07:02Z</time>
      </trkpt>
      <trkpt lat="59.9699827" lon="17.7538931">
        <ele>26.5736</ele>
        <time>2012-10-11T19:07:03Z</time>
      </trkpt>
      <trkpt lat="59.969965" lon="17.7539378">
        <ele>26.5736</ele>
        <time>2012-10-11T19:07:04Z</time>
      </trkpt>
      <trkpt lat="59.9699453" lon="17.7539808">
        <ele>26.0929</ele>
        <time>2012-10-11T19:07:05Z</time>
      </trkpt>
      <trkpt lat="59.9699209" lon="17.7540201">
        <ele>26.0929</ele>
        <time>2012-10-11T19:07:06Z</time>
      </trkpt>
      <trkpt lat="59.9699004" lon="17.7540513">
        <ele>26.0929</ele>
        <time>2012-10-11T19:07:07Z</time>
      </trkpt>
      <trkpt lat="59.9698827" lon="17.7540891">
        <ele>26.0929</ele>
        <time>2012-10-11T19:07:08Z</time>
      </trkpt>
      <trkpt lat="59.9698622" lon="17.7541246">
        <ele>25.6123</ele>
        <time>2012-10-11T19:07:09Z</time>
      </trkpt>
      <trkpt lat="59.9698463" lon="17.7541585">
        <ele>25.6123</ele>
        <time>2012-10-11T19:07:10Z</time>
      </trkpt>
      <trkpt lat="59.9698325" lon="17.7541949">
        <ele>25.1317</ele>
        <time>2012-10-11T19:07:11Z</time>
      </trkpt>
      <trkpt lat="59.9698169" lon="17.7542352">
        <ele>25.1317</ele>
        <time>2012-10-11T19:07:12Z</time>
      </trkpt>
      <trkpt lat="59.9698011" lon="17.754272">
        <ele>25.1317</ele>
        <time>2012-10-11T19:07:13Z</time>
      </trkpt>
      <trkpt lat="59.969786" lon="17.7543005">
        <ele>25.1317</ele>
        <time>2012-10-11T19:07:14Z</time>
      </trkpt>
      <trkpt lat="59.9697694" lon="17.7543279">
        <ele>25.1317</ele>
        <time>2012-10-11T19:07:15Z</time>
      </trkpt>
      <trkpt lat="59.9697544" lon="17.7543575">
        <ele>25.1317</ele>
        <time>2012-10-11T19:07:16Z</time>
      </trkpt>
      <trkpt lat="59.9697382" lon="17.7543911">
        <ele>25.6123</ele>
        <time>2012-10-11T19:07:17Z</time>
      </trkpt>
      <trkpt lat="59.9697212" lon="17.7544269">
        <ele>25.1317</ele>
        <time>2012-10-11T19:07:18Z</time>
      </trkpt>
      <trkpt lat="59.9697051" lon="17.7544627">
        <ele>24.651</ele>
        <time>2012-10-11T19:07:19Z</time>
      </trkpt>
      <trkpt lat="59.9696906" lon="17.7544973">
        <ele>25.1317</ele>
        <time>2012-10-11T19:07:20Z</time>
      </trkpt>
      <trkpt lat="59.9696724" lon="17.7545258">
        <ele>25.1317</ele>
        <time>2012-10-11T19:07:21Z</time>
      </trkpt>
      <trkpt lat="59.9696509" lon="17.7545621">
        <ele>25.6123</ele>
        <time>2012-10-11T19:07:22Z</time>
      </trkpt>
      <trkpt lat="59.9696326" lon="17.7545946">
        <ele>25.6123</ele>
        <time>2012-10-11T19:07:23Z</time>
      </trkpt>
      <trkpt lat="59.9696185" lon="17.754621">
        <ele>26.0929</ele>
        <time>2012-10-11T19:07:24Z</time>
      </trkpt>
      <trkpt lat="59.9696056" lon="17.7546558">
        <ele>26.5736</ele>
        <time>2012-10-11T19:07:25Z</time>
      </trkpt>
      <trkpt lat="59.9695879" lon="17.7546987">
        <ele>26.0929</ele>
        <time>2012-10-11T19:07:26Z</time>
      </trkpt>
      <trkpt lat="59.9695668" lon="17.7547388">
        <ele>26.0929</ele>
        <time>2012-10-11T19:07:27Z</time>
      </trkpt>
      <trkpt lat="59.9695503" lon="17.7547702">
        <ele>25.1317</ele>
        <time>2012-10-11T19:07:28Z</time>
      </trkpt>
      <trkpt lat="59.9695347" lon="17.7548038">
        <ele>25.1317</ele>
        <time>2012-10-11T19:07:29Z</time>
      </trkpt>
      <trkpt lat="59.9695172" lon="17.7548413">
        <ele>24.651</ele>
        <time>2012-10-11T19:07:30Z</time>
      </trkpt>
      <trkpt lat="59.9694994" lon="17.7548827">
        <ele>24.1703</ele>
        <time>2012-10-11T19:07:31Z</time>
      </trkpt>
      <trkpt lat="59.9694803" lon="17.7549246">
        <ele>24.1703</ele>
        <time>2012-10-11T19:07:32Z</time>
      </trkpt>
      <trkpt lat="59.9694627" lon="17.7549522">
        <ele>23.6896</ele>
        <time>2012-10-11T19:07:33Z</time>
      </trkpt>
      <trkpt lat="59.9694466" lon="17.7549802">
        <ele>23.6896</ele>
        <time>2012-10-11T19:07:34Z</time>
      </trkpt>
      <trkpt lat="59.9694331" lon="17.7550153">
        <ele>23.6896</ele>
        <time>2012-10-11T19:07:35Z</time>
      </trkpt>
      <trkpt lat="59.9694188" lon="17.7550514">
        <ele>24.1703</ele>
        <time>2012-10-11T19:07:36Z</time>
      </trkpt>
      <trkpt lat="59.9694058" lon="17.75508">
        <ele>24.1703</ele>
        <time>2012-10-11T19:07:37Z</time>
      </trkpt>
      <trkpt lat="59.9693902" lon="17.7551157">
        <ele>24.651</ele>
        <time>2012-10-11T19:07:38Z</time>
      </trkpt>
      <trkpt lat="59.9693726" lon="17.755154">
        <ele>25.1317</ele>
        <time>2012-10-11T19:07:39Z</time>
      </trkpt>
      <trkpt lat="59.9693532" lon="17.7551909">
        <ele>25.1317</ele>
        <time>2012-10-11T19:07:40Z</time>
      </trkpt>
      <trkpt lat="59.9693284" lon="17.7552343">
        <ele>25.6123</ele>
        <time>2012-10-11T19:07:41Z</time>
      </trkpt>
      <trkpt lat="59.9693047" lon="17.7552733">
        <ele>25.6123</ele>
        <time>2012-10-11T19:07:42Z</time>
      </trkpt>
      <trkpt lat="59.969287" lon="17.755312">
        <ele>25.6123</ele>
        <time>2012-10-11T19:07:43Z</time>
      </trkpt>
      <trkpt lat="59.9692668" lon="17.7553541">
        <ele>26.0929</ele>
        <time>2012-10-11T19:07:44Z</time>
      </trkpt>
      <trkpt lat="59.9692472" lon="17.7553928">
        <ele>26.0929</ele>
        <time>2012-10-11T19:07:45Z</time>
      </trkpt>
      <trkpt lat="59.969228" lon="17.7554362">
        <ele>26.0929</ele>
        <time>2012-10-11T19:07:46Z</time>
      </trkpt>
      <trkpt lat="59.9692098" lon="17.7554809">
        <ele>26.0929</ele>
        <time>2012-10-11T19:07:47Z</time>
      </trkpt>
      <trkpt lat="59.9691903" lon="17.7555244">
        <ele>26.0929</ele>
        <time>2012-10-11T19:07:48Z</time>
      </trkpt>
      <trkpt lat="59.9691694" lon="17.7555701">
        <ele>25.6123</ele>
        <time>2012-10-11T19:07:49Z</time>
      </trkpt>
      <trkpt lat="59.9691487" lon="17.7556134">
        <ele>25.6123</ele>
        <time>2012-10-11T19:07:50Z</time>
      </trkpt>
      <trkpt lat="59.9691266" lon="17.755657">
        <ele>25.1317</ele>
        <time>2012-10-11T19:07:51Z</time>
      </trkpt>
      <trkpt lat="59.9691078" lon="17.7557">
        <ele>24.651</ele>
        <time>2012-10-11T19:07:52Z</time>
      </trkpt>
      <trkpt lat="59.9690906" lon="17.7557394">
        <ele>24.1703</ele>
        <time>2012-10-11T19:07:53Z</time>
      </trkpt>
      <trkpt lat="59.9690728" lon="17.7557779">
        <ele>23.6896</ele>
        <time>2012-10-11T19:07:54Z</time>
      </trkpt>
      <trkpt lat="59.9690555" lon="17.7558145">
        <ele>24.1703</ele>
        <time>2012-10-11T19:07:55Z</time>
      </trkpt>
      <trkpt lat="59.9690359" lon="17.7558543">
        <ele>23.6896</ele>
        <time>2012-10-11T19:07:56Z</time>
      </trkpt>
      <trkpt lat="59.9690177" lon="17.7558918">
        <ele>23.6896</ele>
        <time>2012-10-11T19:07:57Z</time>
      </trkpt>
      <trkpt lat="59.9690016" lon="17.7559306">
        <ele>23.209</ele>
        <time>2012-10-11T19:07:58Z</time>
      </trkpt>
      <trkpt lat="59.9689845" lon="17.7559677">
        <ele>23.209</ele>
        <time>2012-10-11T19:07:59Z</time>
      </trkpt>
      <trkpt lat="59.9689671" lon="17.7560069">
        <ele>22.7283</ele>
        <time>2012-10-11T19:08:00Z</time>
      </trkpt>
      <trkpt lat="59.968946" lon="17.7560509">
        <ele>22.7283</ele>
        <time>2012-10-11T19:08:01Z</time>
      </trkpt>
      <trkpt lat="59.9689276" lon="17.7560934">
        <ele>22.2476</ele>
        <time>2012-10-11T19:08:02Z</time>
      </trkpt>
      <trkpt lat="59.9689096" lon="17.7561392">
        <ele>22.2476</ele>
        <time>2012-10-11T19:08:03Z</time>
      </trkpt>
      <trkpt lat="59.9688913" lon="17.7561812">
        <ele>22.2476</ele>
        <time>2012-10-11T19:08:04Z</time>
      </trkpt>
      <trkpt lat="59.9688732" lon="17.7562208">
        <ele>22.2476</ele>
        <time>2012-10-11T19:08:05Z</time>
      </trkpt>
      <trkpt lat="59.9688616" lon="17.7562466">
        <ele>22.2476</ele>
        <time>2012-10-11T19:08:06Z</time>
      </trkpt>
      <trkpt lat="59.9688494" lon="17.7562736">
        <ele>22.2476</ele>
        <time>2012-10-11T19:08:07Z</time>
      </trkpt>
      <trkpt lat="59.9688354" lon="17.7563047">
        <ele>22.7283</ele>
        <time>2012-10-11T19:08:08Z</time>
      </trkpt>
      <trkpt lat="59.9688183" lon="17.7563331">
        <ele>22.7283</ele>
        <time>2012-10-11T19:08:09Z</time>
      </trkpt>
      <trkpt lat="59.9687997" lon="17.7563662">
        <ele>22.7283</ele>
        <time>2012-10-11T19:08:10Z</time>
      </trkpt>
      <trkpt lat="59.9687818" lon="17.7564031">
        <ele>22.7283</ele>
        <time>2012-10-11T19:08:11Z</time>
      </trkpt>
      <trkpt lat="59.9687608" lon="17.7564393">
        <ele>22.7283</ele>
        <time>2012-10-11T19:08:12Z</time>
      </trkpt>
      <trkpt lat="59.9687437" lon="17.7564728">
        <ele>22.7283</ele>
        <time>2012-10-11T19:08:13Z</time>
      </trkpt>
      <trkpt lat="59.9687283" lon="17.7565016">
        <ele>22.7283</ele>
        <time>2012-10-11T19:08:14Z</time>
      </trkpt>
      <trkpt lat="59.9687074" lon="17.7565295">
        <ele>23.209</ele>
        <time>2012-10-11T19:08:15Z</time>
      </trkpt>
      <trkpt lat="59.9686853" lon="17.75656">
        <ele>22.7283</ele>
        <time>2012-10-11T19:08:16Z</time>
      </trkpt>
      <trkpt lat="59.9686633" lon="17.7565937">
        <ele>22.7283</ele>
        <time>2012-10-11T19:08:17Z</time>
      </trkpt>
      <trkpt lat="59.9686392" lon="17.7566315">
        <ele>22.7283</ele>
        <time>2012-10-11T19:08:18Z</time>
      </trkpt>
      <trkpt lat="59.9686163" lon="17.7566729">
        <ele>22.2476</ele>
        <time>2012-10-11T19:08:19Z</time>
      </trkpt>
      <trkpt lat="59.9685957" lon="17.7567076">
        <ele>22.7283</ele>
        <time>2012-10-11T19:08:20Z</time>
      </trkpt>
      <trkpt lat="59.9685784" lon="17.7567359">
        <ele>22.7283</ele>
        <time>2012-10-11T19:08:21Z</time>
      </trkpt>
      <trkpt lat="59.9685599" lon="17.7567636">
        <ele>22.7283</ele>
        <time>2012-10-11T19:08:22Z</time>
      </trkpt>
      <trkpt lat="59.9685426" lon="17.7567848">
        <ele>22.7283</ele>
        <time>2012-10-11T19:08:23Z</time>
      </trkpt>
      <trkpt lat="59.9685252" lon="17.7568091">
        <ele>22.7283</ele>
        <time>2012-10-11T19:08:24Z</time>
      </trkpt>
      <trkpt lat="59.9685106" lon="17.7568351">
        <ele>23.209</ele>
        <time>2012-10-11T19:08:25Z</time>
      </trkpt>
      <trkpt lat="59.9684915" lon="17.7568678">
        <ele>23.209</ele>
        <time>2012-10-11T19:08:26Z</time>
      </trkpt>
      <trkpt lat="59.9684711" lon="17.7568957">
        <ele>23.209</ele>
        <time>2012-10-11T19:08:27Z</time>
      </trkpt>
      <trkpt lat="59.968448" lon="17.7569272">
        <ele>23.209</ele>
        <time>2012-10-11T19:08:28Z</time>
      </trkpt>
      <trkpt lat="59.968426" lon="17.7569558">
        <ele>23.6896</ele>
        <time>2012-10-11T19:08:29Z</time>
      </trkpt>
      <trkpt lat="59.9684065" lon="17.7569832">
        <ele>23.6896</ele>
        <time>2012-10-11T19:08:30Z</time>
      </trkpt>
      <trkpt lat="59.9683852" lon="17.7570154">
        <ele>23.6896</ele>
        <time>2012-10-11T19:08:31Z</time>
      </trkpt>
      <trkpt lat="59.9683635" lon="17.7570459">
        <ele>23.6896</ele>
        <time>2012-10-11T19:08:32Z</time>
      </trkpt>
      <trkpt lat="59.9683423" lon="17.7570786">
        <ele>24.1703</ele>
        <time>2012-10-11T19:08:33Z</time>
      </trkpt>
      <trkpt lat="59.968324" lon="17.7571044">
        <ele>24.651</ele>
        <time>2012-10-11T19:08:34Z</time>
      </trkpt>
      <trkpt lat="59.968305" lon="17.7571323">
        <ele>24.651</ele>
        <time>2012-10-11T19:08:35Z</time>
      </trkpt>
      <trkpt lat="59.9682801" lon="17.7571656">
        <ele>25.1317</ele>
        <time>2012-10-11T19:08:36Z</time>
      </trkpt>
      <trkpt lat="59.9682532" lon="17.7571988">
        <ele>25.6123</ele>
        <time>2012-10-11T19:08:37Z</time>
      </trkpt>
      <trkpt lat="59.9682303" lon="17.7572325">
        <ele>26.0929</ele>
        <time>2012-10-11T19:08:38Z</time>
      </trkpt>
      <trkpt lat="59.9682097" lon="17.7572638">
        <ele>26.5736</ele>
        <time>2012-10-11T19:08:39Z</time>
      </trkpt>
      <trkpt lat="59.9681864" lon="17.7572961">
        <ele>27.0543</ele>
        <time>2012-10-11T19:08:40Z</time>
      </trkpt>
      <trkpt lat="59.9681638" lon="17.7573361">
        <ele>27.0543</ele>
        <time>2012-10-11T19:08:41Z</time>
      </trkpt>
      <trkpt lat="59.96814" lon="17.7573739">
        <ele>27.0543</ele>
        <time>2012-10-11T19:08:42Z</time>
      </trkpt>
      <trkpt lat="59.9681148" lon="17.7574101">
        <ele>27.5349</ele>
        <time>2012-10-11T19:08:43Z</time>
      </trkpt>
      <trkpt lat="59.96809" lon="17.7574523">
        <ele>27.5349</ele>
        <time>2012-10-11T19:08:44Z</time>
      </trkpt>
      <trkpt lat="59.9680672" lon="17.7574954">
        <ele>27.5349</ele>
        <time>2012-10-11T19:08:45Z</time>
      </trkpt>
      <trkpt lat="59.9680449" lon="17.7575383">
        <ele>27.5349</ele>
        <time>2012-10-11T19:08:46Z</time>
      </trkpt>
      <trkpt lat="59.9680194" lon="17.7575816">
        <ele>27.0543</ele>
        <time>2012-10-11T19:08:47Z</time>
      </trkpt>
      <trkpt lat="59.9679957" lon="17.7576085">
        <ele>27.0543</ele>
        <time>2012-10-11T19:08:48Z</time>
      </trkpt>
      <trkpt lat="59.9679709" lon="17.7576401">
        <ele>26.5736</ele>
        <time>2012-10-11T19:08:49Z</time>
      </trkpt>
      <trkpt lat="59.9679535" lon="17.7576759">
        <ele>26.5736</ele>
        <time>2012-10-11T19:08:50Z</time>
      </trkpt>
      <trkpt lat="59.9679417" lon="17.7577084">
        <ele>26.5736</ele>
        <time>2012-10-11T19:08:51Z</time>
      </trkpt>
      <trkpt lat="59.9679206" lon="17.757736">
        <ele>26.5736</ele>
        <time>2012-10-11T19:08:52Z</time>
      </trkpt>
      <trkpt lat="59.9678938" lon="17.7577592">
        <ele>26.5736</ele>
        <time>2012-10-11T19:08:53Z</time>
      </trkpt>
      <trkpt lat="59.9678657" lon="17.7577925">
        <ele>26.5736</ele>
        <time>2012-10-11T19:08:54Z</time>
      </trkpt>
      <trkpt lat="59.9678424" lon="17.757824">
        <ele>26.5736</ele>
        <time>2012-10-11T19:08:55Z</time>
      </trkpt>
      <trkpt lat="59.9678268" lon="17.7578531">
        <ele>26.5736</ele>
        <time>2012-10-11T19:08:56Z</time>
      </trkpt>
      <trkpt lat="59.9678095" lon="17.7578759">
        <ele>27.0543</ele>
        <time>2012-10-11T19:08:57Z</time>
      </trkpt>
      <trkpt lat="59.9677842" lon="17.7579075">
        <ele>26.5736</ele>
        <time>2012-10-11T19:08:58Z</time>
      </trkpt>
      <trkpt lat="59.9677536" lon="17.757939">
        <ele>27.0543</ele>
        <time>2012-10-11T19:08:59Z</time>
      </trkpt>
      <trkpt lat="59.9677315" lon="17.757971">
        <ele>27.0543</ele>
        <time>2012-10-11T19:09:00Z</time>
      </trkpt>
      <trkpt lat="59.9677076" lon="17.7580062">
        <ele>27.0543</ele>
        <time>2012-10-11T19:09:01Z</time>
      </trkpt>
      <trkpt lat="59.96768" lon="17.7580387">
        <ele>26.5736</ele>
        <time>2012-10-11T19:09:02Z</time>
      </trkpt>
      <trkpt lat="59.9676576" lon="17.7580686">
        <ele>26.5736</ele>
        <time>2012-10-11T19:09:03Z</time>
      </trkpt>
      <trkpt lat="59.9676378" lon="17.7581048">
        <ele>25.6123</ele>
        <time>2012-10-11T19:09:04Z</time>
      </trkpt>
      <trkpt lat="59.9676096" lon="17.7581371">
        <ele>25.1317</ele>
        <time>2012-10-11T19:09:05Z</time>
      </trkpt>
      <trkpt lat="59.9675796" lon="17.7581817">
        <ele>24.651</ele>
        <time>2012-10-11T19:09:06Z</time>
      </trkpt>
      <trkpt lat="59.9675534" lon="17.7582213">
        <ele>24.1703</ele>
        <time>2012-10-11T19:09:07Z</time>
      </trkpt>
      <trkpt lat="59.9675322" lon="17.7582513">
        <ele>23.6896</ele>
        <time>2012-10-11T19:09:08Z</time>
      </trkpt>
      <trkpt lat="59.9675093" lon="17.7582736">
        <ele>22.7283</ele>
        <time>2012-10-11T19:09:09Z</time>
      </trkpt>
      <trkpt lat="59.9674818" lon="17.7582985">
        <ele>22.2476</ele>
        <time>2012-10-11T19:09:10Z</time>
      </trkpt>
      <trkpt lat="59.9674637" lon="17.7583185">
        <ele>21.767</ele>
        <time>2012-10-11T19:09:11Z</time>
      </trkpt>
      <trkpt lat="59.9674486" lon="17.7583421">
        <ele>21.767</ele>
        <time>2012-10-11T19:09:12Z</time>
      </trkpt>
      <trkpt lat="59.9674229" lon="17.7583571">
        <ele>21.767</ele>
        <time>2012-10-11T19:09:13Z</time>
      </trkpt>
      <trkpt lat="59.9673991" lon="17.7583724">
        <ele>20.8057</ele>
        <time>2012-10-11T19:09:14Z</time>
      </trkpt>
      <trkpt lat="59.9673772" lon="17.7583937">
        <ele>20.325</ele>
        <time>2012-10-11T19:09:15Z</time>
      </trkpt>
      <trkpt lat="59.9673514" lon="17.7584248">
        <ele>19.8444</ele>
        <time>2012-10-11T19:09:16Z</time>
      </trkpt>
      <trkpt lat="59.9673295" lon="17.7584616">
        <ele>18.8831</ele>
        <time>2012-10-11T19:09:17Z</time>
      </trkpt>
      <trkpt lat="59.9673017" lon="17.7584663">
        <ele>18.8831</ele>
        <time>2012-10-11T19:09:18Z</time>
      </trkpt>
      <trkpt lat="59.9672756" lon="17.7584772">
        <ele>18.8831</ele>
        <time>2012-10-11T19:09:19Z</time>
      </trkpt>
      <trkpt lat="59.9672498" lon="17.7584886">
        <ele>19.3638</ele>
        <time>2012-10-11T19:09:20Z</time>
      </trkpt>
      <trkpt lat="59.967227" lon="17.7585026">
        <ele>18.8831</ele>
        <time>2012-10-11T19:09:21Z</time>
      </trkpt>
      <trkpt lat="59.9672047" lon="17.7585232">
        <ele>18.4023</ele>
        <time>2012-10-11T19:09:22Z</time>
      </trkpt>
      <trkpt lat="59.9671741" lon="17.7585343">
        <ele>18.4023</ele>
        <time>2012-10-11T19:09:23Z</time>
      </trkpt>
      <trkpt lat="59.9671488" lon="17.7585424">
        <ele>18.4023</ele>
        <time>2012-10-11T19:09:24Z</time>
      </trkpt>
      <trkpt lat="59.9671273" lon="17.758548">
        <ele>18.4023</ele>
        <time>2012-10-11T19:09:25Z</time>
      </trkpt>
      <trkpt lat="59.9671037" lon="17.7585596">
        <ele>18.4023</ele>
        <time>2012-10-11T19:09:26Z</time>
      </trkpt>
      <trkpt lat="59.9670787" lon="17.7585709">
        <ele>18.4023</ele>
        <time>2012-10-11T19:09:27Z</time>
      </trkpt>
      <trkpt lat="59.9670535" lon="17.7585956">
        <ele>18.8831</ele>
        <time>2012-10-11T19:09:28Z</time>
      </trkpt>
      <trkpt lat="59.9670292" lon="17.7586295">
        <ele>19.3638</ele>
        <time>2012-10-11T19:09:29Z</time>
      </trkpt>
      <trkpt lat="59.9670056" lon="17.7586652">
        <ele>19.3638</ele>
        <time>2012-10-11T19:09:30Z</time>
      </trkpt>
      <trkpt lat="59.9669767" lon="17.7587041">
        <ele>19.8444</ele>
        <time>2012-10-11T19:09:31Z</time>
      </trkpt>
      <trkpt lat="59.9669498" lon="17.7587464">
        <ele>19.8444</ele>
        <time>2012-10-11T19:09:32Z</time>
      </trkpt>
      <trkpt lat="59.9669234" lon="17.7587786">
        <ele>19.3638</ele>
        <time>2012-10-11T19:09:33Z</time>
      </trkpt>
      <trkpt lat="59.9668961" lon="17.758802">
        <ele>18.8831</ele>
        <time>2012-10-11T19:09:34Z</time>
      </trkpt>
      <trkpt lat="59.9668722" lon="17.7588235">
        <ele>18.8831</ele>
        <time>2012-10-11T19:09:35Z</time>
      </trkpt>
      <trkpt lat="59.9668474" lon="17.7588465">
        <ele>18.8831</ele>
        <time>2012-10-11T19:09:36Z</time>
      </trkpt>
      <trkpt lat="59.9668251" lon="17.7588693">
        <ele>19.3638</ele>
        <time>2012-10-11T19:09:37Z</time>
      </trkpt>
      <trkpt lat="59.9668018" lon="17.7588979">
        <ele>19.8444</ele>
        <time>2012-10-11T19:09:38Z</time>
      </trkpt>
      <trkpt lat="59.9667741" lon="17.7589315">
        <ele>19.8444</ele>
        <time>2012-10-11T19:09:39Z</time>
      </trkpt>
      <trkpt lat="59.9667414" lon="17.7589381">
        <ele>20.8057</ele>
        <time>2012-10-11T19:09:40Z</time>
      </trkpt>
      <trkpt lat="59.9667115" lon="17.7589537">
        <ele>21.2864</ele>
        <time>2012-10-11T19:09:41Z</time>
      </trkpt>
      <trkpt lat="59.9666852" lon="17.7589943">
        <ele>21.767</ele>
        <time>2012-10-11T19:09:42Z</time>
      </trkpt>
      <trkpt lat="59.9666637" lon="17.7590206">
        <ele>21.767</ele>
        <time>2012-10-11T19:09:43Z</time>
      </trkpt>
      <trkpt lat="59.96664" lon="17.7590454">
        <ele>21.767</ele>
        <time>2012-10-11T19:09:44Z</time>
      </trkpt>
      <trkpt lat="59.9666171" lon="17.7590758">
        <ele>22.2476</ele>
        <time>2012-10-11T19:09:45Z</time>
      </trkpt>
      <trkpt lat="59.9665924" lon="17.7591154">
        <ele>22.2476</ele>
        <time>2012-10-11T19:09:46Z</time>
      </trkpt>
      <trkpt lat="59.9665644" lon="17.7591522">
        <ele>22.7283</ele>
        <time>2012-10-11T19:09:47Z</time>
      </trkpt>
      <trkpt lat="59.9665366" lon="17.7591747">
        <ele>23.209</ele>
        <time>2012-10-11T19:09:48Z</time>
      </trkpt>
      <trkpt lat="59.9665197" lon="17.7591801">
        <ele>24.1703</ele>
        <time>2012-10-11T19:09:49Z</time>
      </trkpt>
      <trkpt lat="59.9665063" lon="17.7591729">
        <ele>25.1317</ele>
        <time>2012-10-11T19:09:50Z</time>
      </trkpt>
      <trkpt lat="59.9664882" lon="17.7591864">
        <ele>26.0929</ele>
        <time>2012-10-11T19:09:51Z</time>
      </trkpt>
      <trkpt lat="59.966472" lon="17.7592087">
        <ele>26.0929</ele>
        <time>2012-10-11T19:09:52Z</time>
      </trkpt>
      <trkpt lat="59.9664515" lon="17.7592345">
        <ele>26.5736</ele>
        <time>2012-10-11T19:09:53Z</time>
      </trkpt>
      <trkpt lat="59.9664318" lon="17.7592604">
        <ele>27.5349</ele>
        <time>2012-10-11T19:09:54Z</time>
      </trkpt>
      <trkpt lat="59.9664171" lon="17.7592811">
        <ele>28.0155</ele>
        <time>2012-10-11T19:09:55Z</time>
      </trkpt>
      <trkpt lat="59.9663965" lon="17.7593065">
        <ele>28.4962</ele>
        <time>2012-10-11T19:09:56Z</time>
      </trkpt>
      <trkpt lat="59.9663726" lon="17.7593293">
        <ele>28.9769</ele>
        <time>2012-10-11T19:09:57Z</time>
      </trkpt>
      <trkpt lat="59.9663499" lon="17.7593557">
        <ele>29.4575</ele>
        <time>2012-10-11T19:09:58Z</time>
      </trkpt>
      <trkpt lat="59.9663291" lon="17.7593785">
        <ele>29.4575</ele>
        <time>2012-10-11T19:09:59Z</time>
      </trkpt>
      <trkpt lat="59.9663099" lon="17.7593997">
        <ele>29.9381</ele>
        <time>2012-10-11T19:10:00Z</time>
      </trkpt>
      <trkpt lat="59.9662892" lon="17.7594271">
        <ele>29.4575</ele>
        <time>2012-10-11T19:10:01Z</time>
      </trkpt>
      <trkpt lat="59.9662666" lon="17.7594537">
        <ele>29.9381</ele>
        <time>2012-10-11T19:10:02Z</time>
      </trkpt>
      <trkpt lat="59.9662459" lon="17.7594903">
        <ele>29.9381</ele>
        <time>2012-10-11T19:10:03Z</time>
      </trkpt>
      <trkpt lat="59.9662231" lon="17.7595252">
        <ele>29.9381</ele>
        <time>2012-10-11T19:10:04Z</time>
      </trkpt>
      <trkpt lat="59.9661985" lon="17.7595671">
        <ele>30.4188</ele>
        <time>2012-10-11T19:10:05Z</time>
      </trkpt>
      <trkpt lat="59.9661785" lon="17.7596111">
        <ele>30.4188</ele>
        <time>2012-10-11T19:10:06Z</time>
      </trkpt>
      <trkpt lat="59.9661615" lon="17.7596479">
        <ele>30.4188</ele>
        <time>2012-10-11T19:10:07Z</time>
      </trkpt>
      <trkpt lat="59.9661439" lon="17.759685">
        <ele>30.4188</ele>
        <time>2012-10-11T19:10:08Z</time>
      </trkpt>
      <trkpt lat="59.9661252" lon="17.7597181">
        <ele>30.8995</ele>
        <time>2012-10-11T19:10:09Z</time>
      </trkpt>
      <trkpt lat="59.9661077" lon="17.7597412">
        <ele>30.8995</ele>
        <time>2012-10-11T19:10:10Z</time>
      </trkpt>
      <trkpt lat="59.9660926" lon="17.7597665">
        <ele>31.3801</ele>
        <time>2012-10-11T19:10:11Z</time>
      </trkpt>
      <trkpt lat="59.9660817" lon="17.759794">
        <ele>31.3801</ele>
        <time>2012-10-11T19:10:12Z</time>
      </trkpt>
      <trkpt lat="59.9660733" lon="17.7598183">
        <ele>31.8607</ele>
        <time>2012-10-11T19:10:13Z</time>
      </trkpt>
      <trkpt lat="59.9660608" lon="17.7598461">
        <ele>32.3416</ele>
        <time>2012-10-11T19:10:14Z</time>
      </trkpt>
      <trkpt lat="59.9660464" lon="17.7598735">
        <ele>32.8223</ele>
        <time>2012-10-11T19:10:15Z</time>
      </trkpt>
      <trkpt lat="59.9660302" lon="17.7599065">
        <ele>33.3029</ele>
        <time>2012-10-11T19:10:16Z</time>
      </trkpt>
      <trkpt lat="59.9660122" lon="17.759941">
        <ele>33.7834</ele>
        <time>2012-10-11T19:10:17Z</time>
      </trkpt>
      <trkpt lat="59.9659908" lon="17.7599706">
        <ele>33.7834</ele>
        <time>2012-10-11T19:10:18Z</time>
      </trkpt>
      <trkpt lat="59.9659682" lon="17.7600074">
        <ele>34.2642</ele>
        <time>2012-10-11T19:10:19Z</time>
      </trkpt>
      <trkpt lat="59.9659435" lon="17.760038">
        <ele>34.2642</ele>
        <time>2012-10-11T19:10:20Z</time>
      </trkpt>
      <trkpt lat="59.9659199" lon="17.7600727">
        <ele>34.7449</ele>
        <time>2012-10-11T19:10:21Z</time>
      </trkpt>
      <trkpt lat="59.965901" lon="17.7601116">
        <ele>34.7449</ele>
        <time>2012-10-11T19:10:22Z</time>
      </trkpt>
      <trkpt lat="59.9658858" lon="17.7601422">
        <ele>34.7449</ele>
        <time>2012-10-11T19:10:23Z</time>
      </trkpt>
      <trkpt lat="59.9658708" lon="17.7601688">
        <ele>34.7449</ele>
        <time>2012-10-11T19:10:24Z</time>
      </trkpt>
      <trkpt lat="59.9658497" lon="17.7601959">
        <ele>34.7449</ele>
        <time>2012-10-11T19:10:25Z</time>
      </trkpt>
      <trkpt lat="59.9658256" lon="17.7602332">
        <ele>35.2255</ele>
        <time>2012-10-11T19:10:26Z</time>
      </trkpt>
      <trkpt lat="59.9657977" lon="17.7602726">
        <ele>34.7449</ele>
        <time>2012-10-11T19:10:27Z</time>
      </trkpt>
      <trkpt lat="59.9657722" lon="17.7603087">
        <ele>34.7449</ele>
        <time>2012-10-11T19:10:28Z</time>
      </trkpt>
      <trkpt lat="59.9657508" lon="17.760344">
        <ele>34.2642</ele>
        <time>2012-10-11T19:10:29Z</time>
      </trkpt>
      <trkpt lat="59.9657303" lon="17.7603832">
        <ele>33.7834</ele>
        <time>2012-10-11T19:10:30Z</time>
      </trkpt>
      <trkpt lat="59.9657093" lon="17.760418">
        <ele>33.7834</ele>
        <time>2012-10-11T19:10:31Z</time>
      </trkpt>
      <trkpt lat="59.9656906" lon="17.7604508">
        <ele>33.7834</ele>
        <time>2012-10-11T19:10:32Z</time>
      </trkpt>
      <trkpt lat="59.9656707" lon="17.7604786">
        <ele>32.8223</ele>
        <time>2012-10-11T19:10:33Z</time>
      </trkpt>
      <trkpt lat="59.9656502" lon="17.7605131">
        <ele>33.3029</ele>
        <time>2012-10-11T19:10:34Z</time>
      </trkpt>
      <trkpt lat="59.9656266" lon="17.7605472">
        <ele>32.8223</ele>
        <time>2012-10-11T19:10:35Z</time>
      </trkpt>
      <trkpt lat="59.9656046" lon="17.7605825">
        <ele>32.8223</ele>
        <time>2012-10-11T19:10:36Z</time>
      </trkpt>
      <trkpt lat="59.9655854" lon="17.7606096">
        <ele>32.8223</ele>
        <time>2012-10-11T19:10:37Z</time>
      </trkpt>
      <trkpt lat="59.9655673" lon="17.7606362">
        <ele>32.8223</ele>
        <time>2012-10-11T19:10:38Z</time>
      </trkpt>
      <trkpt lat="59.9655498" lon="17.7606677">
        <ele>32.8223</ele>
        <time>2012-10-11T19:10:39Z</time>
      </trkpt>
      <trkpt lat="59.9655336" lon="17.7606931">
        <ele>32.3416</ele>
        <time>2012-10-11T19:10:40Z</time>
      </trkpt>
      <trkpt lat="59.9655155" lon="17.7607227">
        <ele>32.3416</ele>
        <time>2012-10-11T19:10:41Z</time>
      </trkpt>
      <trkpt lat="59.9654941" lon="17.7607612">
        <ele>32.8223</ele>
        <time>2012-10-11T19:10:42Z</time>
      </trkpt>
      <trkpt lat="59.9654731" lon="17.7607979">
        <ele>32.8223</ele>
        <time>2012-10-11T19:10:43Z</time>
      </trkpt>
      <trkpt lat="59.965458" lon="17.7608394">
        <ele>33.3029</ele>
        <time>2012-10-11T19:10:44Z</time>
      </trkpt>
      <trkpt lat="59.9654462" lon="17.7608757">
        <ele>33.3029</ele>
        <time>2012-10-11T19:10:45Z</time>
      </trkpt>
      <trkpt lat="59.9654305" lon="17.760916">
        <ele>33.3029</ele>
        <time>2012-10-11T19:10:46Z</time>
      </trkpt>
      <trkpt lat="59.9654134" lon="17.7609665">
        <ele>33.7834</ele>
        <time>2012-10-11T19:10:47Z</time>
      </trkpt>
      <trkpt lat="59.9653953" lon="17.7610173">
        <ele>33.7834</ele>
        <time>2012-10-11T19:10:48Z</time>
      </trkpt>
      <trkpt lat="59.9653787" lon="17.7610707">
        <ele>34.2642</ele>
        <time>2012-10-11T19:10:49Z</time>
      </trkpt>
      <trkpt lat="59.9653631" lon="17.7611268">
        <ele>34.7449</ele>
        <time>2012-10-11T19:10:50Z</time>
      </trkpt>
      <trkpt lat="59.9653476" lon="17.7611744">
        <ele>34.2642</ele>
        <time>2012-10-11T19:10:51Z</time>
      </trkpt>
      <trkpt lat="59.9653342" lon="17.7612194">
        <ele>33.7834</ele>
        <time>2012-10-11T19:10:52Z</time>
      </trkpt>
      <trkpt lat="59.9653198" lon="17.7612639">
        <ele>34.2642</ele>
        <time>2012-10-11T19:10:53Z</time>
      </trkpt>
      <trkpt lat="59.9653057" lon="17.761308">
        <ele>34.2642</ele>
        <time>2012-10-11T19:10:54Z</time>
      </trkpt>
      <trkpt lat="59.9652904" lon="17.7613563">
        <ele>34.2642</ele>
        <time>2012-10-11T19:10:55Z</time>
      </trkpt>
      <trkpt lat="59.9652736" lon="17.7613993">
        <ele>34.7449</ele>
        <time>2012-10-11T19:10:56Z</time>
      </trkpt>
      <trkpt lat="59.9652561" lon="17.7614407">
        <ele>34.7449</ele>
        <time>2012-10-11T19:10:57Z</time>
      </trkpt>
      <trkpt lat="59.9652361" lon="17.7614837">
        <ele>34.7449</ele>
        <time>2012-10-11T19:10:58Z</time>
      </trkpt>
      <trkpt lat="59.9652177" lon="17.7615298">
        <ele>34.2642</ele>
        <time>2012-10-11T19:10:59Z</time>
      </trkpt>
      <trkpt lat="59.9652003" lon="17.7615728">
        <ele>34.2642</ele>
        <time>2012-10-11T19:11:00Z</time>
      </trkpt>
      <trkpt lat="59.9651833" lon="17.7616152">
        <ele>33.7834</ele>
        <time>2012-10-11T19:11:01Z</time>
      </trkpt>
      <trkpt lat="59.9651718" lon="17.7616547">
        <ele>33.7834</ele>
        <time>2012-10-11T19:11:02Z</time>
      </trkpt>
      <trkpt lat="59.9651578" lon="17.761694">
        <ele>33.3029</ele>
        <time>2012-10-11T19:11:03Z</time>
      </trkpt>
      <trkpt lat="59.9651404" lon="17.7617347">
        <ele>33.3029</ele>
        <time>2012-10-11T19:11:04Z</time>
      </trkpt>
      <trkpt lat="59.9651195" lon="17.7617752">
        <ele>33.3029</ele>
        <time>2012-10-11T19:11:05Z</time>
      </trkpt>
      <trkpt lat="59.9650979" lon="17.7618183">
        <ele>32.8223</ele>
        <time>2012-10-11T19:11:06Z</time>
      </trkpt>
      <trkpt lat="59.9650801" lon="17.7618618">
        <ele>32.3416</ele>
        <time>2012-10-11T19:11:07Z</time>
      </trkpt>
      <trkpt lat="59.9650644" lon="17.7619043">
        <ele>32.3416</ele>
        <time>2012-10-11T19:11:08Z</time>
      </trkpt>
      <trkpt lat="59.9650508" lon="17.761938">
        <ele>31.8607</ele>
        <time>2012-10-11T19:11:09Z</time>
      </trkpt>
      <trkpt lat="59.9650345" lon="17.761971">
        <ele>31.8607</ele>
        <time>2012-10-11T19:11:10Z</time>
      </trkpt>
      <trkpt lat="59.9650193" lon="17.7620039">
        <ele>31.8607</ele>
        <time>2012-10-11T19:11:11Z</time>
      </trkpt>
      <trkpt lat="59.9650071" lon="17.7620373">
        <ele>31.8607</ele>
        <time>2012-10-11T19:11:12Z</time>
      </trkpt>
      <trkpt lat="59.9649911" lon="17.7620722">
        <ele>31.8607</ele>
        <time>2012-10-11T19:11:13Z</time>
      </trkpt>
      <trkpt lat="59.9649717" lon="17.7621124">
        <ele>31.8607</ele>
        <time>2012-10-11T19:11:14Z</time>
      </trkpt>
      <trkpt lat="59.9649519" lon="17.7621556">
        <ele>31.8607</ele>
        <time>2012-10-11T19:11:15Z</time>
      </trkpt>
      <trkpt lat="59.9649336" lon="17.7621954">
        <ele>32.3416</ele>
        <time>2012-10-11T19:11:16Z</time>
      </trkpt>
      <trkpt lat="59.9649192" lon="17.7622322">
        <ele>32.8223</ele>
        <time>2012-10-11T19:11:17Z</time>
      </trkpt>
      <trkpt lat="59.9649078" lon="17.7622731">
        <ele>32.8223</ele>
        <time>2012-10-11T19:11:18Z</time>
      </trkpt>
      <trkpt lat="59.9648957" lon="17.7623218">
        <ele>33.3029</ele>
        <time>2012-10-11T19:11:19Z</time>
      </trkpt>
      <trkpt lat="59.9648803" lon="17.7623752">
        <ele>33.7834</ele>
        <time>2012-10-11T19:11:20Z</time>
      </trkpt>
      <trkpt lat="59.9648606" lon="17.7624311">
        <ele>33.7834</ele>
        <time>2012-10-11T19:11:21Z</time>
      </trkpt>
      <trkpt lat="59.9648457" lon="17.7624772">
        <ele>34.2642</ele>
        <time>2012-10-11T19:11:22Z</time>
      </trkpt>
      <trkpt lat="59.964832" lon="17.7625239">
        <ele>34.2642</ele>
        <time>2012-10-11T19:11:23Z</time>
      </trkpt>
      <trkpt lat="59.9648193" lon="17.7625654">
        <ele>34.2642</ele>
        <time>2012-10-11T19:11:24Z</time>
      </trkpt>
      <trkpt lat="59.9648078" lon="17.7626036">
        <ele>34.7449</ele>
        <time>2012-10-11T19:11:25Z</time>
      </trkpt>
      <trkpt lat="59.9647932" lon="17.7626451">
        <ele>35.2255</ele>
        <time>2012-10-11T19:11:26Z</time>
      </trkpt>
      <trkpt lat="59.9647773" lon="17.7626943">
        <ele>35.7061</ele>
        <time>2012-10-11T19:11:27Z</time>
      </trkpt>
      <trkpt lat="59.9647621" lon="17.7627448">
        <ele>35.7061</ele>
        <time>2012-10-11T19:11:28Z</time>
      </trkpt>
      <trkpt lat="59.9647483" lon="17.7627946">
        <ele>36.1868</ele>
        <time>2012-10-11T19:11:29Z</time>
      </trkpt>
      <trkpt lat="59.9647312" lon="17.7628393">
        <ele>36.1868</ele>
        <time>2012-10-11T19:11:30Z</time>
      </trkpt>
      <trkpt lat="59.9647149" lon="17.7628849">
        <ele>36.6675</ele>
        <time>2012-10-11T19:11:31Z</time>
      </trkpt>
      <trkpt lat="59.9647052" lon="17.7629378">
        <ele>37.1481</ele>
        <time>2012-10-11T19:11:32Z</time>
      </trkpt>
      <trkpt lat="59.9646997" lon="17.7629828">
        <ele>37.6287</ele>
        <time>2012-10-11T19:11:33Z</time>
      </trkpt>
      <trkpt lat="59.9646925" lon="17.7630225">
        <ele>38.1094</ele>
        <time>2012-10-11T19:11:34Z</time>
      </trkpt>
      <trkpt lat="59.9646811" lon="17.7630538">
        <ele>38.5901</ele>
        <time>2012-10-11T19:11:35Z</time>
      </trkpt>
      <trkpt lat="59.9646784" lon="17.763094">
        <ele>39.5513</ele>
        <time>2012-10-11T19:11:36Z</time>
      </trkpt>
      <trkpt lat="59.9646751" lon="17.763132">
        <ele>39.0707</ele>
        <time>2012-10-11T19:11:37Z</time>
      </trkpt>
      <trkpt lat="59.9646748" lon="17.7631589">
        <ele>38.5901</ele>
        <time>2012-10-11T19:11:38Z</time>
      </trkpt>
      <trkpt lat="59.9646704" lon="17.7631875">
        <ele>37.6287</ele>
        <time>2012-10-11T19:11:39Z</time>
      </trkpt>
      <trkpt lat="59.9646654" lon="17.763219">
        <ele>36.6675</ele>
        <time>2012-10-11T19:11:40Z</time>
      </trkpt>
      <trkpt lat="59.9646566" lon="17.7632533">
        <ele>35.2255</ele>
        <time>2012-10-11T19:11:41Z</time>
      </trkpt>
      <trkpt lat="59.9646432" lon="17.7633015">
        <ele>35.2255</ele>
        <time>2012-10-11T19:11:42Z</time>
      </trkpt>
      <trkpt lat="59.9646312" lon="17.7633579">
        <ele>35.2255</ele>
        <time>2012-10-11T19:11:43Z</time>
      </trkpt>
      <trkpt lat="59.9646201" lon="17.7634121">
        <ele>35.7061</ele>
        <time>2012-10-11T19:11:44Z</time>
      </trkpt>
      <trkpt lat="59.9646098" lon="17.7634525">
        <ele>35.7061</ele>
        <time>2012-10-11T19:11:45Z</time>
      </trkpt>
      <trkpt lat="59.9646001" lon="17.7634936">
        <ele>35.7061</ele>
        <time>2012-10-11T19:11:46Z</time>
      </trkpt>
      <trkpt lat="59.9645891" lon="17.7635417">
        <ele>35.2255</ele>
        <time>2012-10-11T19:11:47Z</time>
      </trkpt>
      <trkpt lat="59.9645799" lon="17.763593">
        <ele>34.2642</ele>
        <time>2012-10-11T19:11:48Z</time>
      </trkpt>
      <trkpt lat="59.9645707" lon="17.7636415">
        <ele>33.7834</ele>
        <time>2012-10-11T19:11:49Z</time>
      </trkpt>
      <trkpt lat="59.9645629" lon="17.7636809">
        <ele>33.3029</ele>
        <time>2012-10-11T19:11:50Z</time>
      </trkpt>
      <trkpt lat="59.9645535" lon="17.7637228">
        <ele>32.8223</ele>
        <time>2012-10-11T19:11:51Z</time>
      </trkpt>
      <trkpt lat="59.9645365" lon="17.7637734">
        <ele>32.8223</ele>
        <time>2012-10-11T19:11:52Z</time>
      </trkpt>
      <trkpt lat="59.9645202" lon="17.7638332">
        <ele>33.7834</ele>
        <time>2012-10-11T19:11:53Z</time>
      </trkpt>
      <trkpt lat="59.964506" lon="17.7638784">
        <ele>33.7834</ele>
        <time>2012-10-11T19:11:54Z</time>
      </trkpt>
      <trkpt lat="59.9644845" lon="17.7639389">
        <ele>34.7449</ele>
        <time>2012-10-11T19:11:55Z</time>
      </trkpt>
      <trkpt lat="59.9644656" lon="17.763998">
        <ele>34.7449</ele>
        <time>2012-10-11T19:11:56Z</time>
      </trkpt>
      <trkpt lat="59.9644509" lon="17.7640598">
        <ele>35.7061</ele>
        <time>2012-10-11T19:11:57Z</time>
      </trkpt>
      <trkpt lat="59.9644308" lon="17.764123">
        <ele>36.1868</ele>
        <time>2012-10-11T19:11:58Z</time>
      </trkpt>
      <trkpt lat="59.9644161" lon="17.7641789">
        <ele>36.6675</ele>
        <time>2012-10-11T19:11:59Z</time>
      </trkpt>
      <trkpt lat="59.9644041" lon="17.7642235">
        <ele>36.1868</ele>
        <time>2012-10-11T19:12:00Z</time>
      </trkpt>
      <trkpt lat="59.9643901" lon="17.7642504">
        <ele>35.7061</ele>
        <time>2012-10-11T19:12:01Z</time>
      </trkpt>
      <trkpt lat="59.9643738" lon="17.7642614">
        <ele>35.2255</ele>
        <time>2012-10-11T19:12:02Z</time>
      </trkpt>
      <trkpt lat="59.9643692" lon="17.7642432">
        <ele>35.2255</ele>
        <time>2012-10-11T19:12:03Z</time>
      </trkpt>
      <trkpt lat="59.9643699" lon="17.7641974">
        <ele>35.2255</ele>
        <time>2012-10-11T19:12:04Z</time>
      </trkpt>
      <trkpt lat="59.9643769" lon="17.7641466">
        <ele>34.2642</ele>
        <time>2012-10-11T19:12:05Z</time>
      </trkpt>
      <trkpt lat="59.9643909" lon="17.7641022">
        <ele>33.7834</ele>
        <time>2012-10-11T19:12:06Z</time>
      </trkpt>
      <trkpt lat="59.964405" lon="17.7640608">
        <ele>33.3029</ele>
        <time>2012-10-11T19:12:07Z</time>
      </trkpt>
      <trkpt lat="59.9644218" lon="17.7640217">
        <ele>32.8223</ele>
        <time>2012-10-11T19:12:08Z</time>
      </trkpt>
      <trkpt lat="59.964434" lon="17.7639876">
        <ele>32.8223</ele>
        <time>2012-10-11T19:12:09Z</time>
      </trkpt>
      <trkpt lat="59.9644448" lon="17.7639488">
        <ele>32.3416</ele>
        <time>2012-10-11T19:12:10Z</time>
      </trkpt>
      <trkpt lat="59.9644585" lon="17.7639069">
        <ele>32.3416</ele>
        <time>2012-10-11T19:12:11Z</time>
      </trkpt>
      <trkpt lat="59.9644738" lon="17.7638663">
        <ele>32.3416</ele>
        <time>2012-10-11T19:12:12Z</time>
      </trkpt>
      <trkpt lat="59.9644825" lon="17.7638251">
        <ele>32.3416</ele>
        <time>2012-10-11T19:12:13Z</time>
      </trkpt>
      <trkpt lat="59.9644913" lon="17.7637876">
        <ele>31.8607</ele>
        <time>2012-10-11T19:12:14Z</time>
      </trkpt>
      <trkpt lat="59.9645013" lon="17.7637458">
        <ele>31.8607</ele>
        <time>2012-10-11T19:12:15Z</time>
      </trkpt>
      <trkpt lat="59.9645145" lon="17.7637053">
        <ele>31.8607</ele>
        <time>2012-10-11T19:12:16Z</time>
      </trkpt>
      <trkpt lat="59.9645233" lon="17.7636542">
        <ele>31.8607</ele>
        <time>2012-10-11T19:12:17Z</time>
      </trkpt>
      <trkpt lat="59.9645248" lon="17.7635928">
        <ele>31.8607</ele>
        <time>2012-10-11T19:12:18Z</time>
      </trkpt>
      <trkpt lat="59.9645313" lon="17.7635344">
        <ele>31.3801</ele>
        <time>2012-10-11T19:12:19Z</time>
      </trkpt>
      <trkpt lat="59.964543" lon="17.7634906">
        <ele>30.8995</ele>
        <time>2012-10-11T19:12:20Z</time>
      </trkpt>
      <trkpt lat="59.9645556" lon="17.7634427">
        <ele>31.3801</ele>
        <time>2012-10-11T19:12:21Z</time>
      </trkpt>
      <trkpt lat="59.9645664" lon="17.7633929">
        <ele>30.8995</ele>
        <time>2012-10-11T19:12:22Z</time>
      </trkpt>
      <trkpt lat="59.9645764" lon="17.7633408">
        <ele>30.8995</ele>
        <time>2012-10-11T19:12:23Z</time>
      </trkpt>
      <trkpt lat="59.9645816" lon="17.7633041">
        <ele>30.8995</ele>
        <time>2012-10-11T19:12:24Z</time>
      </trkpt>
      <trkpt lat="59.9645939" lon="17.7632614">
        <ele>30.4188</ele>
        <time>2012-10-11T19:12:25Z</time>
      </trkpt>
      <trkpt lat="59.9646096" lon="17.7632108">
        <ele>29.9381</ele>
        <time>2012-10-11T19:12:26Z</time>
      </trkpt>
      <trkpt lat="59.9646259" lon="17.7631675">
        <ele>29.4575</ele>
        <time>2012-10-11T19:12:27Z</time>
      </trkpt>
      <trkpt lat="59.9646394" lon="17.7631241">
        <ele>29.4575</ele>
        <time>2012-10-11T19:12:28Z</time>
      </trkpt>
      <trkpt lat="59.9646548" lon="17.763079">
        <ele>29.4575</ele>
        <time>2012-10-11T19:12:29Z</time>
      </trkpt>
      <trkpt lat="59.9646685" lon="17.7630444">
        <ele>28.4962</ele>
        <time>2012-10-11T19:12:30Z</time>
      </trkpt>
      <trkpt lat="59.964682" lon="17.7630072">
        <ele>28.0155</ele>
        <time>2012-10-11T19:12:31Z</time>
      </trkpt>
      <trkpt lat="59.9646982" lon="17.7629762">
        <ele>27.5349</ele>
        <time>2012-10-11T19:12:32Z</time>
      </trkpt>
      <trkpt lat="59.9647131" lon="17.7629422">
        <ele>27.0543</ele>
        <time>2012-10-11T19:12:33Z</time>
      </trkpt>
      <trkpt lat="59.9647265" lon="17.7629025">
        <ele>26.5736</ele>
        <time>2012-10-11T19:12:34Z</time>
      </trkpt>
      <trkpt lat="59.9647398" lon="17.7628589">
        <ele>26.5736</ele>
        <time>2012-10-11T19:12:35Z</time>
      </trkpt>
      <trkpt lat="59.9647529" lon="17.7628145">
        <ele>26.5736</ele>
        <time>2012-10-11T19:12:36Z</time>
      </trkpt>
      <trkpt lat="59.9647689" lon="17.7627742">
        <ele>26.0929</ele>
        <time>2012-10-11T19:12:37Z</time>
      </trkpt>
      <trkpt lat="59.964784" lon="17.762733">
        <ele>26.0929</ele>
        <time>2012-10-11T19:12:38Z</time>
      </trkpt>
      <trkpt lat="59.9647996" lon="17.7626886">
        <ele>26.5736</ele>
        <time>2012-10-11T19:12:39Z</time>
      </trkpt>
      <trkpt lat="59.9648145" lon="17.7626509">
        <ele>26.0929</ele>
        <time>2012-10-11T19:12:40Z</time>
      </trkpt>
      <trkpt lat="59.9648294" lon="17.7626078">
        <ele>25.6123</ele>
        <time>2012-10-11T19:12:41Z</time>
      </trkpt>
      <trkpt lat="59.9648467" lon="17.7625677">
        <ele>25.6123</ele>
        <time>2012-10-11T19:12:42Z</time>
      </trkpt>
      <trkpt lat="59.9648629" lon="17.7625319">
        <ele>25.1317</ele>
        <time>2012-10-11T19:12:43Z</time>
      </trkpt>
      <trkpt lat="59.9648795" lon="17.7624885">
        <ele>24.651</ele>
        <time>2012-10-11T19:12:44Z</time>
      </trkpt>
      <trkpt lat="59.9648949" lon="17.7624446">
        <ele>24.1703</ele>
        <time>2012-10-11T19:12:45Z</time>
      </trkpt>
      <trkpt lat="59.9649113" lon="17.7624077">
        <ele>23.6896</ele>
        <time>2012-10-11T19:12:46Z</time>
      </trkpt>
      <trkpt lat="59.9649321" lon="17.7623709">
        <ele>23.209</ele>
        <time>2012-10-11T19:12:47Z</time>
      </trkpt>
      <trkpt lat="59.9649511" lon="17.7623368">
        <ele>23.209</ele>
        <time>2012-10-11T19:12:48Z</time>
      </trkpt>
      <trkpt lat="59.9649674" lon="17.762297">
        <ele>22.7283</ele>
        <time>2012-10-11T19:12:49Z</time>
      </trkpt>
      <trkpt lat="59.9649841" lon="17.7622575">
        <ele>22.7283</ele>
        <time>2012-10-11T19:12:50Z</time>
      </trkpt>
      <trkpt lat="59.9649996" lon="17.7622188">
        <ele>22.7283</ele>
        <time>2012-10-11T19:12:51Z</time>
      </trkpt>
      <trkpt lat="59.9650191" lon="17.7621866">
        <ele>22.2476</ele>
        <time>2012-10-11T19:12:52Z</time>
      </trkpt>
      <trkpt lat="59.9650397" lon="17.762158">
        <ele>21.2864</ele>
        <time>2012-10-11T19:12:53Z</time>
      </trkpt>
      <trkpt lat="59.9650553" lon="17.7621228">
        <ele>21.2864</ele>
        <time>2012-10-11T19:12:54Z</time>
      </trkpt>
      <trkpt lat="59.9650732" lon="17.7620908">
        <ele>20.8057</ele>
        <time>2012-10-11T19:12:55Z</time>
      </trkpt>
      <trkpt lat="59.9650931" lon="17.7620634">
        <ele>19.8444</ele>
        <time>2012-10-11T19:12:56Z</time>
      </trkpt>
      <trkpt lat="59.9651119" lon="17.7620317">
        <ele>18.8831</ele>
        <time>2012-10-11T19:12:57Z</time>
      </trkpt>
      <trkpt lat="59.9651291" lon="17.7619951">
        <ele>18.4023</ele>
        <time>2012-10-11T19:12:58Z</time>
      </trkpt>
      <trkpt lat="59.9651425" lon="17.7619597">
        <ele>17.4412</ele>
        <time>2012-10-11T19:12:59Z</time>
      </trkpt>
      <trkpt lat="59.9651581" lon="17.7619204">
        <ele>17.4412</ele>
        <time>2012-10-11T19:13:00Z</time>
      </trkpt>
      <trkpt lat="59.9651757" lon="17.7618849">
        <ele>16.9604</ele>
        <time>2012-10-11T19:13:01Z</time>
      </trkpt>
      <trkpt lat="59.9651958" lon="17.7618483">
        <ele>16.4797</ele>
        <time>2012-10-11T19:13:02Z</time>
      </trkpt>
      <trkpt lat="59.965214" lon="17.7618026">
        <ele>15.999</ele>
        <time>2012-10-11T19:13:03Z</time>
      </trkpt>
      <trkpt lat="59.9652306" lon="17.761762">
        <ele>15.5184</ele>
        <time>2012-10-11T19:13:04Z</time>
      </trkpt>
      <trkpt lat="59.9652466" lon="17.7617187">
        <ele>15.0377</ele>
        <time>2012-10-11T19:13:05Z</time>
      </trkpt>
      <trkpt lat="59.9652616" lon="17.7616759">
        <ele>14.557</ele>
        <time>2012-10-11T19:13:06Z</time>
      </trkpt>
      <trkpt lat="59.9652765" lon="17.7616373">
        <ele>14.0764</ele>
        <time>2012-10-11T19:13:07Z</time>
      </trkpt>
      <trkpt lat="59.965291" lon="17.7615966">
        <ele>13.5958</ele>
        <time>2012-10-11T19:13:08Z</time>
      </trkpt>
      <trkpt lat="59.9653057" lon="17.7615506">
        <ele>13.1151</ele>
        <time>2012-10-11T19:13:09Z</time>
      </trkpt>
      <trkpt lat="59.9653238" lon="17.7615166">
        <ele>12.1538</ele>
        <time>2012-10-11T19:13:10Z</time>
      </trkpt>
      <trkpt lat="59.965345" lon="17.7614856">
        <ele>11.6732</ele>
        <time>2012-10-11T19:13:11Z</time>
      </trkpt>
      <trkpt lat="59.9653647" lon="17.7614501">
        <ele>11.1925</ele>
        <time>2012-10-11T19:13:12Z</time>
      </trkpt>
      <trkpt lat="59.9653825" lon="17.7614112">
        <ele>10.2312</ele>
        <time>2012-10-11T19:13:13Z</time>
      </trkpt>
      <trkpt lat="59.9653954" lon="17.7613692">
        <ele>9.75061</ele>
        <time>2012-10-11T19:13:14Z</time>
      </trkpt>
      <trkpt lat="59.9654091" lon="17.7613239">
        <ele>9.2699</ele>
        <time>2012-10-11T19:13:15Z</time>
      </trkpt>
      <trkpt lat="59.9654265" lon="17.7612823">
        <ele>9.2699</ele>
        <time>2012-10-11T19:13:16Z</time>
      </trkpt>
      <trkpt lat="59.9654396" lon="17.7612507">
        <ele>8.30859</ele>
        <time>2012-10-11T19:13:17Z</time>
      </trkpt>
      <trkpt lat="59.9654533" lon="17.7612169">
        <ele>7.82788</ele>
        <time>2012-10-11T19:13:18Z</time>
      </trkpt>
      <trkpt lat="59.9654704" lon="17.7611847">
        <ele>7.34717</ele>
        <time>2012-10-11T19:13:19Z</time>
      </trkpt>
      <trkpt lat="59.9654891" lon="17.7611356">
        <ele>7.82788</ele>
        <time>2012-10-11T19:13:20Z</time>
      </trkpt>
      <trkpt lat="59.965509" lon="17.7610956">
        <ele>7.82788</ele>
        <time>2012-10-11T19:13:21Z</time>
      </trkpt>
      <trkpt lat="59.9655296" lon="17.7610558">
        <ele>7.82788</ele>
        <time>2012-10-11T19:13:22Z</time>
      </trkpt>
      <trkpt lat="59.9655474" lon="17.7610138">
        <ele>7.82788</ele>
        <time>2012-10-11T19:13:23Z</time>
      </trkpt>
      <trkpt lat="59.9655668" lon="17.7609743">
        <ele>7.82788</ele>
        <time>2012-10-11T19:13:24Z</time>
      </trkpt>
      <trkpt lat="59.9655865" lon="17.7609375">
        <ele>7.82788</ele>
        <time>2012-10-11T19:13:25Z</time>
      </trkpt>
      <trkpt lat="59.9656039" lon="17.7609034">
        <ele>7.82788</ele>
        <time>2012-10-11T19:13:26Z</time>
      </trkpt>
      <trkpt lat="59.965622" lon="17.7608723">
        <ele>7.34717</ele>
        <time>2012-10-11T19:13:27Z</time>
      </trkpt>
      <trkpt lat="59.9656399" lon="17.7608372">
        <ele>7.82788</ele>
        <time>2012-10-11T19:13:28Z</time>
      </trkpt>
      <trkpt lat="59.9656609" lon="17.7607997">
        <ele>7.82788</ele>
        <time>2012-10-11T19:13:29Z</time>
      </trkpt>
      <trkpt lat="59.9656836" lon="17.7607616">
        <ele>8.30859</ele>
        <time>2012-10-11T19:13:30Z</time>
      </trkpt>
      <trkpt lat="59.9657038" lon="17.7607268">
        <ele>8.30859</ele>
        <time>2012-10-11T19:13:31Z</time>
      </trkpt>
      <trkpt lat="59.9657254" lon="17.7606968">
        <ele>8.78918</ele>
        <time>2012-10-11T19:13:32Z</time>
      </trkpt>
      <trkpt lat="59.9657481" lon="17.7606669">
        <ele>8.78918</ele>
        <time>2012-10-11T19:13:33Z</time>
      </trkpt>
      <trkpt lat="59.9657665" lon="17.7606372">
        <ele>8.78918</ele>
        <time>2012-10-11T19:13:34Z</time>
      </trkpt>
      <trkpt lat="59.9657849" lon="17.7606046">
        <ele>8.78918</ele>
        <time>2012-10-11T19:13:35Z</time>
      </trkpt>
      <trkpt lat="59.9658025" lon="17.7605692">
        <ele>9.2699</ele>
        <time>2012-10-11T19:13:36Z</time>
      </trkpt>
      <trkpt lat="59.9658185" lon="17.7605357">
        <ele>8.78918</ele>
        <time>2012-10-11T19:13:37Z</time>
      </trkpt>
      <trkpt lat="59.9658383" lon="17.7605001">
        <ele>9.2699</ele>
        <time>2012-10-11T19:13:38Z</time>
      </trkpt>
      <trkpt lat="59.9658584" lon="17.7604731">
        <ele>9.2699</ele>
        <time>2012-10-11T19:13:39Z</time>
      </trkpt>
      <trkpt lat="59.9658759" lon="17.7604434">
        <ele>9.2699</ele>
        <time>2012-10-11T19:13:40Z</time>
      </trkpt>
      <trkpt lat="59.9658929" lon="17.7604088">
        <ele>9.2699</ele>
        <time>2012-10-11T19:13:41Z</time>
      </trkpt>
      <trkpt lat="59.9659124" lon="17.7603742">
        <ele>9.2699</ele>
        <time>2012-10-11T19:13:42Z</time>
      </trkpt>
      <trkpt lat="59.9659315" lon="17.7603432">
        <ele>9.2699</ele>
        <time>2012-10-11T19:13:43Z</time>
      </trkpt>
      <trkpt lat="59.9659552" lon="17.760313">
        <ele>9.2699</ele>
        <time>2012-10-11T19:13:44Z</time>
      </trkpt>
      <trkpt lat="59.9659787" lon="17.7602846">
        <ele>9.2699</ele>
        <time>2012-10-11T19:13:45Z</time>
      </trkpt>
      <trkpt lat="59.9659965" lon="17.7602525">
        <ele>8.78918</ele>
        <time>2012-10-11T19:13:46Z</time>
      </trkpt>
      <trkpt lat="59.9660158" lon="17.7602223">
        <ele>8.78918</ele>
        <time>2012-10-11T19:13:47Z</time>
      </trkpt>
      <trkpt lat="59.9660346" lon="17.7601927">
        <ele>8.78918</ele>
        <time>2012-10-11T19:13:48Z</time>
      </trkpt>
      <trkpt lat="59.966051" lon="17.7601555">
        <ele>8.78918</ele>
        <time>2012-10-11T19:13:49Z</time>
      </trkpt>
      <trkpt lat="59.9660711" lon="17.7601177">
        <ele>8.78918</ele>
        <time>2012-10-11T19:13:50Z</time>
      </trkpt>
      <trkpt lat="59.9660879" lon="17.7600861">
        <ele>8.78918</ele>
        <time>2012-10-11T19:13:51Z</time>
      </trkpt>
      <trkpt lat="59.9661042" lon="17.7600523">
        <ele>8.78918</ele>
        <time>2012-10-11T19:13:52Z</time>
      </trkpt>
      <trkpt lat="59.966122" lon="17.7600219">
        <ele>8.78918</ele>
        <time>2012-10-11T19:13:53Z</time>
      </trkpt>
      <trkpt lat="59.9661375" lon="17.7599882">
        <ele>8.78918</ele>
        <time>2012-10-11T19:13:54Z</time>
      </trkpt>
      <trkpt lat="59.9661537" lon="17.7599524">
        <ele>8.78918</ele>
        <time>2012-10-11T19:13:55Z</time>
      </trkpt>
      <trkpt lat="59.9661703" lon="17.759917">
        <ele>8.78918</ele>
        <time>2012-10-11T19:13:56Z</time>
      </trkpt>
      <trkpt lat="59.9661869" lon="17.7598845">
        <ele>8.30859</ele>
        <time>2012-10-11T19:13:57Z</time>
      </trkpt>
      <trkpt lat="59.9662087" lon="17.7598504">
        <ele>8.78918</ele>
        <time>2012-10-11T19:13:58Z</time>
      </trkpt>
      <trkpt lat="59.9662297" lon="17.7598176">
        <ele>8.30859</ele>
        <time>2012-10-11T19:13:59Z</time>
      </trkpt>
      <trkpt lat="59.9662479" lon="17.7597804">
        <ele>8.30859</ele>
        <time>2012-10-11T19:14:00Z</time>
      </trkpt>
      <trkpt lat="59.9662653" lon="17.7597482">
        <ele>8.30859</ele>
        <time>2012-10-11T19:14:01Z</time>
      </trkpt>
      <trkpt lat="59.9662811" lon="17.7597182">
        <ele>8.30859</ele>
        <time>2012-10-11T19:14:02Z</time>
      </trkpt>
      <trkpt lat="59.9663007" lon="17.759691">
        <ele>8.30859</ele>
        <time>2012-10-11T19:14:03Z</time>
      </trkpt>
      <trkpt lat="59.9663184" lon="17.7596629">
        <ele>8.30859</ele>
        <time>2012-10-11T19:14:04Z</time>
      </trkpt>
      <trkpt lat="59.9663344" lon="17.7596301">
        <ele>8.30859</ele>
        <time>2012-10-11T19:14:05Z</time>
      </trkpt>
      <trkpt lat="59.9663534" lon="17.7596034">
        <ele>7.82788</ele>
        <time>2012-10-11T19:14:06Z</time>
      </trkpt>
      <trkpt lat="59.9663717" lon="17.7595703">
        <ele>8.30859</ele>
        <time>2012-10-11T19:14:07Z</time>
      </trkpt>
      <trkpt lat="59.9663912" lon="17.7595391">
        <ele>8.30859</ele>
        <time>2012-10-11T19:14:08Z</time>
      </trkpt>
      <trkpt lat="59.9664115" lon="17.7595054">
        <ele>8.30859</ele>
        <time>2012-10-11T19:14:09Z</time>
      </trkpt>
      <trkpt lat="59.9664306" lon="17.7594672">
        <ele>8.78918</ele>
        <time>2012-10-11T19:14:10Z</time>
      </trkpt>
      <trkpt lat="59.9664505" lon="17.7594303">
        <ele>8.78918</ele>
        <time>2012-10-11T19:14:11Z</time>
      </trkpt>
      <trkpt lat="59.966472" lon="17.7593983">
        <ele>8.78918</ele>
        <time>2012-10-11T19:14:12Z</time>
      </trkpt>
      <trkpt lat="59.9664909" lon="17.759365">
        <ele>9.2699</ele>
        <time>2012-10-11T19:14:13Z</time>
      </trkpt>
      <trkpt lat="59.9665111" lon="17.7593286">
        <ele>9.2699</ele>
        <time>2012-10-11T19:14:14Z</time>
      </trkpt>
      <trkpt lat="59.9665311" lon="17.7592967">
        <ele>9.2699</ele>
        <time>2012-10-11T19:14:15Z</time>
      </trkpt>
      <trkpt lat="59.9665483" lon="17.7592711">
        <ele>9.2699</ele>
        <time>2012-10-11T19:14:16Z</time>
      </trkpt>
      <trkpt lat="59.966566" lon="17.7592457">
        <ele>9.2699</ele>
        <time>2012-10-11T19:14:17Z</time>
      </trkpt>
      <trkpt lat="59.9665861" lon="17.7592195">
        <ele>9.2699</ele>
        <time>2012-10-11T19:14:18Z</time>
      </trkpt>
      <trkpt lat="59.966607" lon="17.7591939">
        <ele>9.2699</ele>
        <time>2012-10-11T19:14:19Z</time>
      </trkpt>
      <trkpt lat="59.9666296" lon="17.7591686">
        <ele>9.2699</ele>
        <time>2012-10-11T19:14:20Z</time>
      </trkpt>
      <trkpt lat="59.9666499" lon="17.7591447">
        <ele>8.78918</ele>
        <time>2012-10-11T19:14:21Z</time>
      </trkpt>
      <trkpt lat="59.9666681" lon="17.7591159">
        <ele>8.78918</ele>
        <time>2012-10-11T19:14:22Z</time>
      </trkpt>
      <trkpt lat="59.9666878" lon="17.7590892">
        <ele>8.78918</ele>
        <time>2012-10-11T19:14:23Z</time>
      </trkpt>
      <trkpt lat="59.9667068" lon="17.7590639">
        <ele>9.2699</ele>
        <time>2012-10-11T19:14:24Z</time>
      </trkpt>
      <trkpt lat="59.9667265" lon="17.7590352">
        <ele>9.2699</ele>
        <time>2012-10-11T19:14:25Z</time>
      </trkpt>
      <trkpt lat="59.9667471" lon="17.7590162">
        <ele>9.2699</ele>
        <time>2012-10-11T19:14:26Z</time>
      </trkpt>
      <trkpt lat="59.966768" lon="17.7589898">
        <ele>9.75061</ele>
        <time>2012-10-11T19:14:27Z</time>
      </trkpt>
      <trkpt lat="59.9667896" lon="17.7589635">
        <ele>10.2312</ele>
        <time>2012-10-11T19:14:28Z</time>
      </trkpt>
      <trkpt lat="59.9668126" lon="17.7589428">
        <ele>10.7118</ele>
        <time>2012-10-11T19:14:29Z</time>
      </trkpt>
      <trkpt lat="59.9668352" lon="17.7589264">
        <ele>10.2312</ele>
        <time>2012-10-11T19:14:30Z</time>
      </trkpt>
      <trkpt lat="59.9668592" lon="17.7589038">
        <ele>10.7118</ele>
        <time>2012-10-11T19:14:31Z</time>
      </trkpt>
      <trkpt lat="59.9668825" lon="17.758888">
        <ele>10.7118</ele>
        <time>2012-10-11T19:14:32Z</time>
      </trkpt>
      <trkpt lat="59.9669037" lon="17.7588615">
        <ele>11.1925</ele>
        <time>2012-10-11T19:14:33Z</time>
      </trkpt>
      <trkpt lat="59.9669271" lon="17.7588391">
        <ele>11.6732</ele>
        <time>2012-10-11T19:14:34Z</time>
      </trkpt>
      <trkpt lat="59.9669513" lon="17.7588175">
        <ele>11.6732</ele>
        <time>2012-10-11T19:14:35Z</time>
      </trkpt>
      <trkpt lat="59.9669735" lon="17.758789">
        <ele>12.1538</ele>
        <time>2012-10-11T19:14:36Z</time>
      </trkpt>
      <trkpt lat="59.9669991" lon="17.7587671">
        <ele>12.1538</ele>
        <time>2012-10-11T19:14:37Z</time>
      </trkpt>
      <trkpt lat="59.9670238" lon="17.7587456">
        <ele>12.1538</ele>
        <time>2012-10-11T19:14:38Z</time>
      </trkpt>
      <trkpt lat="59.9670473" lon="17.7587192">
        <ele>12.6344</ele>
        <time>2012-10-11T19:14:39Z</time>
      </trkpt>
      <trkpt lat="59.9670716" lon="17.7586942">
        <ele>13.1151</ele>
        <time>2012-10-11T19:14:40Z</time>
      </trkpt>
      <trkpt lat="59.967096" lon="17.7586749">
        <ele>13.1151</ele>
        <time>2012-10-11T19:14:41Z</time>
      </trkpt>
      <trkpt lat="59.9671202" lon="17.7586595">
        <ele>13.1151</ele>
        <time>2012-10-11T19:14:42Z</time>
      </trkpt>
      <trkpt lat="59.9671418" lon="17.7586418">
        <ele>13.1151</ele>
        <time>2012-10-11T19:14:43Z</time>
      </trkpt>
      <trkpt lat="59.9671632" lon="17.7586211">
        <ele>13.1151</ele>
        <time>2012-10-11T19:14:44Z</time>
      </trkpt>
      <trkpt lat="59.9671869" lon="17.7586076">
        <ele>13.1151</ele>
        <time>2012-10-11T19:14:45Z</time>
      </trkpt>
      <trkpt lat="59.9672088" lon="17.7585906">
        <ele>13.1151</ele>
        <time>2012-10-11T19:14:46Z</time>
      </trkpt>
      <trkpt lat="59.9672296" lon="17.7585699">
        <ele>13.5958</ele>
        <time>2012-10-11T19:14:47Z</time>
      </trkpt>
      <trkpt lat="59.9672564" lon="17.7585579">
        <ele>13.5958</ele>
        <time>2012-10-11T19:14:48Z</time>
      </trkpt>
      <trkpt lat="59.9672823" lon="17.7585425">
        <ele>13.5958</ele>
        <time>2012-10-11T19:14:49Z</time>
      </trkpt>
      <trkpt lat="59.9673086" lon="17.7585233">
        <ele>13.5958</ele>
        <time>2012-10-11T19:14:50Z</time>
      </trkpt>
      <trkpt lat="59.9673359" lon="17.758497">
        <ele>13.5958</ele>
        <time>2012-10-11T19:14:51Z</time>
      </trkpt>
      <trkpt lat="59.9673617" lon="17.7584785">
        <ele>13.1151</ele>
        <time>2012-10-11T19:14:52Z</time>
      </trkpt>
      <trkpt lat="59.9673885" lon="17.7584617">
        <ele>13.1151</ele>
        <time>2012-10-11T19:14:53Z</time>
      </trkpt>
      <trkpt lat="59.9674135" lon="17.7584465">
        <ele>12.6344</ele>
        <time>2012-10-11T19:14:54Z</time>
      </trkpt>
      <trkpt lat="59.9674395" lon="17.7584306">
        <ele>12.6344</ele>
        <time>2012-10-11T19:14:55Z</time>
      </trkpt>
      <trkpt lat="59.9674657" lon="17.7584134">
        <ele>12.1538</ele>
        <time>2012-10-11T19:14:56Z</time>
      </trkpt>
      <trkpt lat="59.967492" lon="17.7583967">
        <ele>12.1538</ele>
        <time>2012-10-11T19:14:57Z</time>
      </trkpt>
      <trkpt lat="59.967517" lon="17.7583863">
        <ele>12.1538</ele>
        <time>2012-10-11T19:14:58Z</time>
      </trkpt>
      <trkpt lat="59.9675379" lon="17.7583679">
        <ele>12.1538</ele>
        <time>2012-10-11T19:14:59Z</time>
      </trkpt>
      <trkpt lat="59.9675588" lon="17.7583405">
        <ele>12.6344</ele>
        <time>2012-10-11T19:15:00Z</time>
      </trkpt>
      <trkpt lat="59.9675804" lon="17.7583164">
        <ele>12.6344</ele>
        <time>2012-10-11T19:15:01Z</time>
      </trkpt>
      <trkpt lat="59.9676044" lon="17.758291">
        <ele>13.1151</ele>
        <time>2012-10-11T19:15:02Z</time>
      </trkpt>
      <trkpt lat="59.967632" lon="17.7582626">
        <ele>13.5958</ele>
        <time>2012-10-11T19:15:03Z</time>
      </trkpt>
      <trkpt lat="59.9676558" lon="17.7582316">
        <ele>14.0764</ele>
        <time>2012-10-11T19:15:04Z</time>
      </trkpt>
      <trkpt lat="59.9676783" lon="17.7582015">
        <ele>14.0764</ele>
        <time>2012-10-11T19:15:05Z</time>
      </trkpt>
      <trkpt lat="59.9677011" lon="17.7581715">
        <ele>14.557</ele>
        <time>2012-10-11T19:15:06Z</time>
      </trkpt>
      <trkpt lat="59.9677243" lon="17.7581389">
        <ele>14.557</ele>
        <time>2012-10-11T19:15:07Z</time>
      </trkpt>
      <trkpt lat="59.9677512" lon="17.7581104">
        <ele>15.0377</ele>
        <time>2012-10-11T19:15:08Z</time>
      </trkpt>
      <trkpt lat="59.9677777" lon="17.7580839">
        <ele>15.0377</ele>
        <time>2012-10-11T19:15:09Z</time>
      </trkpt>
      <trkpt lat="59.9678016" lon="17.7580607">
        <ele>15.0377</ele>
        <time>2012-10-11T19:15:10Z</time>
      </trkpt>
      <trkpt lat="59.9678225" lon="17.7580471">
        <ele>15.0377</ele>
        <time>2012-10-11T19:15:11Z</time>
      </trkpt>
      <trkpt lat="59.9678456" lon="17.758023">
        <ele>15.0377</ele>
        <time>2012-10-11T19:15:12Z</time>
      </trkpt>
      <trkpt lat="59.9678693" lon="17.757997">
        <ele>14.557</ele>
        <time>2012-10-11T19:15:13Z</time>
      </trkpt>
      <trkpt lat="59.9678917" lon="17.7579657">
        <ele>14.557</ele>
        <time>2012-10-11T19:15:14Z</time>
      </trkpt>
      <trkpt lat="59.967915" lon="17.7579401">
        <ele>14.557</ele>
        <time>2012-10-11T19:15:15Z</time>
      </trkpt>
      <trkpt lat="59.9679382" lon="17.7579105">
        <ele>14.0764</ele>
        <time>2012-10-11T19:15:16Z</time>
      </trkpt>
      <trkpt lat="59.9679598" lon="17.7578798">
        <ele>14.557</ele>
        <time>2012-10-11T19:15:17Z</time>
      </trkpt>
      <trkpt lat="59.9679813" lon="17.7578534">
        <ele>14.557</ele>
        <time>2012-10-11T19:15:18Z</time>
      </trkpt>
      <trkpt lat="59.9680034" lon="17.7578272">
        <ele>14.557</ele>
        <time>2012-10-11T19:15:19Z</time>
      </trkpt>
      <trkpt lat="59.9680263" lon="17.7578026">
        <ele>14.557</ele>
        <time>2012-10-11T19:15:20Z</time>
      </trkpt>
      <trkpt lat="59.9680475" lon="17.7577764">
        <ele>15.0377</ele>
        <time>2012-10-11T19:15:21Z</time>
      </trkpt>
      <trkpt lat="59.9680691" lon="17.7577498">
        <ele>15.5184</ele>
        <time>2012-10-11T19:15:22Z</time>
      </trkpt>
      <trkpt lat="59.9680891" lon="17.7577186">
        <ele>15.5184</ele>
        <time>2012-10-11T19:15:23Z</time>
      </trkpt>
      <trkpt lat="59.9681098" lon="17.7576934">
        <ele>15.999</ele>
        <time>2012-10-11T19:15:24Z</time>
      </trkpt>
      <trkpt lat="59.9681345" lon="17.757666">
        <ele>16.4797</ele>
        <time>2012-10-11T19:15:25Z</time>
      </trkpt>
      <trkpt lat="59.9681579" lon="17.757635">
        <ele>16.9604</ele>
        <time>2012-10-11T19:15:26Z</time>
      </trkpt>
      <trkpt lat="59.9681797" lon="17.7575984">
        <ele>17.4412</ele>
        <time>2012-10-11T19:15:27Z</time>
      </trkpt>
      <trkpt lat="59.9682034" lon="17.7575738">
        <ele>17.4412</ele>
        <time>2012-10-11T19:15:28Z</time>
      </trkpt>
      <trkpt lat="59.9682226" lon="17.7575519">
        <ele>17.4412</ele>
        <time>2012-10-11T19:15:29Z</time>
      </trkpt>
      <trkpt lat="59.9682428" lon="17.7575259">
        <ele>17.9218</ele>
        <time>2012-10-11T19:15:30Z</time>
      </trkpt>
      <trkpt lat="59.9682638" lon="17.7575028">
        <ele>17.9218</ele>
        <time>2012-10-11T19:15:31Z</time>
      </trkpt>
      <trkpt lat="59.9682821" lon="17.7574782">
        <ele>17.9218</ele>
        <time>2012-10-11T19:15:32Z</time>
      </trkpt>
      <trkpt lat="59.9683014" lon="17.7574575">
        <ele>18.4023</ele>
        <time>2012-10-11T19:15:33Z</time>
      </trkpt>
      <trkpt lat="59.9683214" lon="17.7574417">
        <ele>18.4023</ele>
        <time>2012-10-11T19:15:34Z</time>
      </trkpt>
      <trkpt lat="59.968342" lon="17.7574172">
        <ele>18.8831</ele>
        <time>2012-10-11T19:15:35Z</time>
      </trkpt>
      <trkpt lat="59.9683614" lon="17.7573924">
        <ele>18.8831</ele>
        <time>2012-10-11T19:15:36Z</time>
      </trkpt>
      <trkpt lat="59.9683785" lon="17.7573624">
        <ele>19.3638</ele>
        <time>2012-10-11T19:15:37Z</time>
      </trkpt>
      <trkpt lat="59.9683982" lon="17.7573288">
        <ele>19.3638</ele>
        <time>2012-10-11T19:15:38Z</time>
      </trkpt>
      <trkpt lat="59.9684199" lon="17.757297">
        <ele>19.8444</ele>
        <time>2012-10-11T19:15:39Z</time>
      </trkpt>
      <trkpt lat="59.968437" lon="17.7572688">
        <ele>19.8444</ele>
        <time>2012-10-11T19:15:40Z</time>
      </trkpt>
      <trkpt lat="59.9684531" lon="17.7572396">
        <ele>19.8444</ele>
        <time>2012-10-11T19:15:41Z</time>
      </trkpt>
      <trkpt lat="59.9684723" lon="17.7572118">
        <ele>19.8444</ele>
        <time>2012-10-11T19:15:42Z</time>
      </trkpt>
      <trkpt lat="59.96849" lon="17.7571911">
        <ele>19.3638</ele>
        <time>2012-10-11T19:15:43Z</time>
      </trkpt>
      <trkpt lat="59.9685074" lon="17.7571625">
        <ele>19.3638</ele>
        <time>2012-10-11T19:15:44Z</time>
      </trkpt>
      <trkpt lat="59.9685272" lon="17.7571356">
        <ele>18.8831</ele>
        <time>2012-10-11T19:15:45Z</time>
      </trkpt>
      <trkpt lat="59.9685448" lon="17.7571066">
        <ele>18.8831</ele>
        <time>2012-10-11T19:15:46Z</time>
      </trkpt>
      <trkpt lat="59.9685618" lon="17.7570769">
        <ele>18.8831</ele>
        <time>2012-10-11T19:15:47Z</time>
      </trkpt>
      <trkpt lat="59.9685803" lon="17.7570501">
        <ele>18.8831</ele>
        <time>2012-10-11T19:15:48Z</time>
      </trkpt>
      <trkpt lat="59.968595" lon="17.7570257">
        <ele>18.4023</ele>
        <time>2012-10-11T19:15:49Z</time>
      </trkpt>
      <trkpt lat="59.9686111" lon="17.7569986">
        <ele>18.4023</ele>
        <time>2012-10-11T19:15:50Z</time>
      </trkpt>
      <trkpt lat="59.9686282" lon="17.756968">
        <ele>18.4023</ele>
        <time>2012-10-11T19:15:51Z</time>
      </trkpt>
      <trkpt lat="59.9686468" lon="17.7569328">
        <ele>18.8831</ele>
        <time>2012-10-11T19:15:52Z</time>
      </trkpt>
      <trkpt lat="59.9686681" lon="17.7569025">
        <ele>19.3638</ele>
        <time>2012-10-11T19:15:53Z</time>
      </trkpt>
      <trkpt lat="59.9686862" lon="17.7568703">
        <ele>19.3638</ele>
        <time>2012-10-11T19:15:54Z</time>
      </trkpt>
      <trkpt lat="59.9687022" lon="17.756839">
        <ele>19.3638</ele>
        <time>2012-10-11T19:15:55Z</time>
      </trkpt>
      <trkpt lat="59.9687214" lon="17.7568123">
        <ele>19.3638</ele>
        <time>2012-10-11T19:15:56Z</time>
      </trkpt>
      <trkpt lat="59.9687402" lon="17.7567756">
        <ele>19.8444</ele>
        <time>2012-10-11T19:15:57Z</time>
      </trkpt>
      <trkpt lat="59.9687587" lon="17.7567387">
        <ele>19.8444</ele>
        <time>2012-10-11T19:15:58Z</time>
      </trkpt>
      <trkpt lat="59.968778" lon="17.7567067">
        <ele>20.325</ele>
        <time>2012-10-11T19:15:59Z</time>
      </trkpt>
      <trkpt lat="59.9688096" lon="17.7566292">
        <ele>20.8057</ele>
        <time>2012-10-11T19:16:01Z</time>
      </trkpt>
      <trkpt lat="59.9688256" lon="17.7565925">
        <ele>20.8057</ele>
        <time>2012-10-11T19:16:02Z</time>
      </trkpt>
      <trkpt lat="59.9688398" lon="17.7565532">
        <ele>20.8057</ele>
        <time>2012-10-11T19:16:03Z</time>
      </trkpt>
      <trkpt lat="59.9688555" lon="17.7565186">
        <ele>21.2864</ele>
        <time>2012-10-11T19:16:04Z</time>
      </trkpt>
      <trkpt lat="59.9688715" lon="17.7564818">
        <ele>21.2864</ele>
        <time>2012-10-11T19:16:05Z</time>
      </trkpt>
      <trkpt lat="59.968887" lon="17.7564433">
        <ele>21.2864</ele>
        <time>2012-10-11T19:16:06Z</time>
      </trkpt>
      <trkpt lat="59.9689053" lon="17.7564094">
        <ele>21.2864</ele>
        <time>2012-10-11T19:16:07Z</time>
      </trkpt>
      <trkpt lat="59.9689233" lon="17.7563751">
        <ele>21.2864</ele>
        <time>2012-10-11T19:16:08Z</time>
      </trkpt>
      <trkpt lat="59.9689375" lon="17.7563433">
        <ele>21.2864</ele>
        <time>2012-10-11T19:16:09Z</time>
      </trkpt>
      <trkpt lat="59.968954" lon="17.7563092">
        <ele>21.2864</ele>
        <time>2012-10-11T19:16:10Z</time>
      </trkpt>
      <trkpt lat="59.9689707" lon="17.7562714">
        <ele>21.2864</ele>
        <time>2012-10-11T19:16:11Z</time>
      </trkpt>
      <trkpt lat="59.9689855" lon="17.7562332">
        <ele>21.2864</ele>
        <time>2012-10-11T19:16:12Z</time>
      </trkpt>
      <trkpt lat="59.9690017" lon="17.7561954">
        <ele>21.2864</ele>
        <time>2012-10-11T19:16:13Z</time>
      </trkpt>
      <trkpt lat="59.9690177" lon="17.7561556">
        <ele>21.2864</ele>
        <time>2012-10-11T19:16:14Z</time>
      </trkpt>
      <trkpt lat="59.9690349" lon="17.7561191">
        <ele>20.8057</ele>
        <time>2012-10-11T19:16:15Z</time>
      </trkpt>
      <trkpt lat="59.9690545" lon="17.7560818">
        <ele>20.8057</ele>
        <time>2012-10-11T19:16:16Z</time>
      </trkpt>
      <trkpt lat="59.9690715" lon="17.7560475">
        <ele>20.8057</ele>
        <time>2012-10-11T19:16:17Z</time>
      </trkpt>
      <trkpt lat="59.9690856" lon="17.7560098">
        <ele>20.8057</ele>
        <time>2012-10-11T19:16:18Z</time>
      </trkpt>
      <trkpt lat="59.9691032" lon="17.755972">
        <ele>20.325</ele>
        <time>2012-10-11T19:16:19Z</time>
      </trkpt>
      <trkpt lat="59.9691214" lon="17.7559387">
        <ele>20.325</ele>
        <time>2012-10-11T19:16:20Z</time>
      </trkpt>
      <trkpt lat="59.9691391" lon="17.7559066">
        <ele>20.325</ele>
        <time>2012-10-11T19:16:21Z</time>
      </trkpt>
      <trkpt lat="59.9691576" lon="17.7558707">
        <ele>20.325</ele>
        <time>2012-10-11T19:16:22Z</time>
      </trkpt>
      <trkpt lat="59.969174" lon="17.7558379">
        <ele>20.325</ele>
        <time>2012-10-11T19:16:23Z</time>
      </trkpt>
      <trkpt lat="59.9691886" lon="17.7558073">
        <ele>19.8444</ele>
        <time>2012-10-11T19:16:24Z</time>
      </trkpt>
      <trkpt lat="59.969205" lon="17.7557711">
        <ele>19.8444</ele>
        <time>2012-10-11T19:16:25Z</time>
      </trkpt>
      <trkpt lat="59.9692225" lon="17.7557307">
        <ele>19.8444</ele>
        <time>2012-10-11T19:16:26Z</time>
      </trkpt>
      <trkpt lat="59.9692392" lon="17.7556885">
        <ele>19.8444</ele>
        <time>2012-10-11T19:16:27Z</time>
      </trkpt>
      <trkpt lat="59.9692579" lon="17.7556535">
        <ele>19.3638</ele>
        <time>2012-10-11T19:16:28Z</time>
      </trkpt>
      <trkpt lat="59.9692798" lon="17.755624">
        <ele>18.8831</ele>
        <time>2012-10-11T19:16:29Z</time>
      </trkpt>
      <trkpt lat="59.9693002" lon="17.7555944">
        <ele>18.8831</ele>
        <time>2012-10-11T19:16:30Z</time>
      </trkpt>
      <trkpt lat="59.9693186" lon="17.7555603">
        <ele>18.4023</ele>
        <time>2012-10-11T19:16:31Z</time>
      </trkpt>
      <trkpt lat="59.9693358" lon="17.7555287">
        <ele>18.4023</ele>
        <time>2012-10-11T19:16:32Z</time>
      </trkpt>
      <trkpt lat="59.9693523" lon="17.7554965">
        <ele>18.4023</ele>
        <time>2012-10-11T19:16:33Z</time>
      </trkpt>
      <trkpt lat="59.9693721" lon="17.7554616">
        <ele>18.4023</ele>
        <time>2012-10-11T19:16:34Z</time>
      </trkpt>
      <trkpt lat="59.9693903" lon="17.7554261">
        <ele>18.4023</ele>
        <time>2012-10-11T19:16:35Z</time>
      </trkpt>
      <trkpt lat="59.9694114" lon="17.7553856">
        <ele>18.4023</ele>
        <time>2012-10-11T19:16:36Z</time>
      </trkpt>
      <trkpt lat="59.9694347" lon="17.7553488">
        <ele>18.8831</ele>
        <time>2012-10-11T19:16:37Z</time>
      </trkpt>
      <trkpt lat="59.9694508" lon="17.75531">
        <ele>18.8831</ele>
        <time>2012-10-11T19:16:38Z</time>
      </trkpt>
      <trkpt lat="59.9694663" lon="17.755264">
        <ele>18.8831</ele>
        <time>2012-10-11T19:16:39Z</time>
      </trkpt>
      <trkpt lat="59.9694876" lon="17.75522">
        <ele>18.8831</ele>
        <time>2012-10-11T19:16:40Z</time>
      </trkpt>
      <trkpt lat="59.9695065" lon="17.7551847">
        <ele>18.8831</ele>
        <time>2012-10-11T19:16:41Z</time>
      </trkpt>
      <trkpt lat="59.9695211" lon="17.7551495">
        <ele>18.8831</ele>
        <time>2012-10-11T19:16:42Z</time>
      </trkpt>
      <trkpt lat="59.9695378" lon="17.7551149">
        <ele>19.3638</ele>
        <time>2012-10-11T19:16:43Z</time>
      </trkpt>
      <trkpt lat="59.9695571" lon="17.7550858">
        <ele>19.3638</ele>
        <time>2012-10-11T19:16:44Z</time>
      </trkpt>
      <trkpt lat="59.9695751" lon="17.7550481">
        <ele>19.3638</ele>
        <time>2012-10-11T19:16:45Z</time>
      </trkpt>
      <trkpt lat="59.9695922" lon="17.7549998">
        <ele>19.8444</ele>
        <time>2012-10-11T19:16:46Z</time>
      </trkpt>
      <trkpt lat="59.9696102" lon="17.7549531">
        <ele>19.8444</ele>
        <time>2012-10-11T19:16:47Z</time>
      </trkpt>
      <trkpt lat="59.9696278" lon="17.7549169">
        <ele>20.325</ele>
        <time>2012-10-11T19:16:48Z</time>
      </trkpt>
      <trkpt lat="59.9696477" lon="17.7548784">
        <ele>20.325</ele>
        <time>2012-10-11T19:16:49Z</time>
      </trkpt>
      <trkpt lat="59.9696689" lon="17.754835">
        <ele>20.8057</ele>
        <time>2012-10-11T19:16:50Z</time>
      </trkpt>
      <trkpt lat="59.9696871" lon="17.7548054">
        <ele>21.2864</ele>
        <time>2012-10-11T19:16:51Z</time>
      </trkpt>
      <trkpt lat="59.9697046" lon="17.7547743">
        <ele>21.767</ele>
        <time>2012-10-11T19:16:52Z</time>
      </trkpt>
      <trkpt lat="59.9697253" lon="17.7547398">
        <ele>21.767</ele>
        <time>2012-10-11T19:16:53Z</time>
      </trkpt>
      <trkpt lat="59.969743" lon="17.7546988">
        <ele>22.7283</ele>
        <time>2012-10-11T19:16:54Z</time>
      </trkpt>
      <trkpt lat="59.9697607" lon="17.7546563">
        <ele>23.209</ele>
        <time>2012-10-11T19:16:55Z</time>
      </trkpt>
      <trkpt lat="59.9697849" lon="17.7546136">
        <ele>23.6896</ele>
        <time>2012-10-11T19:16:56Z</time>
      </trkpt>
      <trkpt lat="59.9698042" lon="17.7545791">
        <ele>23.6896</ele>
        <time>2012-10-11T19:16:57Z</time>
      </trkpt>
      <trkpt lat="59.9698207" lon="17.7545414">
        <ele>24.1703</ele>
        <time>2012-10-11T19:16:58Z</time>
      </trkpt>
      <trkpt lat="59.9698398" lon="17.7545061">
        <ele>24.651</ele>
        <time>2012-10-11T19:16:59Z</time>
      </trkpt>
      <trkpt lat="59.9698554" lon="17.7544727">
        <ele>24.651</ele>
        <time>2012-10-11T19:17:00Z</time>
      </trkpt>
      <trkpt lat="59.9698689" lon="17.7544341">
        <ele>24.651</ele>
        <time>2012-10-11T19:17:01Z</time>
      </trkpt>
      <trkpt lat="59.969888" lon="17.7543956">
        <ele>25.1317</ele>
        <time>2012-10-11T19:17:02Z</time>
      </trkpt>
      <trkpt lat="59.9699065" lon="17.7543634">
        <ele>25.1317</ele>
        <time>2012-10-11T19:17:03Z</time>
      </trkpt>
      <trkpt lat="59.9699217" lon="17.754318">
        <ele>25.6123</ele>
        <time>2012-10-11T19:17:04Z</time>
      </trkpt>
      <trkpt lat="59.9699367" lon="17.7542771">
        <ele>25.6123</ele>
        <time>2012-10-11T19:17:05Z</time>
      </trkpt>
      <trkpt lat="59.9699533" lon="17.7542351">
        <ele>25.6123</ele>
        <time>2012-10-11T19:17:06Z</time>
      </trkpt>
      <trkpt lat="59.969967" lon="17.7541987">
        <ele>25.1317</ele>
        <time>2012-10-11T19:17:07Z</time>
      </trkpt>
      <trkpt lat="59.9699812" lon="17.754163">
        <ele>24.651</ele>
        <time>2012-10-11T19:17:08Z</time>
      </trkpt>
      <trkpt lat="59.9699962" lon="17.7541331">
        <ele>24.1703</ele>
        <time>2012-10-11T19:17:09Z</time>
      </trkpt>
      <trkpt lat="59.9700088" lon="17.7541024">
        <ele>23.6896</ele>
        <time>2012-10-11T19:17:10Z</time>
      </trkpt>
      <trkpt lat="59.9700233" lon="17.7540719">
        <ele>23.6896</ele>
        <time>2012-10-11T19:17:11Z</time>
      </trkpt>
      <trkpt lat="59.9700357" lon="17.7540388">
        <ele>23.209</ele>
        <time>2012-10-11T19:17:12Z</time>
      </trkpt>
      <trkpt lat="59.9700465" lon="17.7540021">
        <ele>23.209</ele>
        <time>2012-10-11T19:17:13Z</time>
      </trkpt>
      <trkpt lat="59.9700626" lon="17.7539689">
        <ele>23.209</ele>
        <time>2012-10-11T19:17:14Z</time>
      </trkpt>
      <trkpt lat="59.9700786" lon="17.7539333">
        <ele>22.7283</ele>
        <time>2012-10-11T19:17:15Z</time>
      </trkpt>
      <trkpt lat="59.9700925" lon="17.7539011">
        <ele>22.7283</ele>
        <time>2012-10-11T19:17:16Z</time>
      </trkpt>
      <trkpt lat="59.970108" lon="17.7538643">
        <ele>22.2476</ele>
        <time>2012-10-11T19:17:17Z</time>
      </trkpt>
      <trkpt lat="59.9701221" lon="17.7538259">
        <ele>22.2476</ele>
        <time>2012-10-11T19:17:18Z</time>
      </trkpt>
      <trkpt lat="59.970135" lon="17.7537886">
        <ele>22.2476</ele>
        <time>2012-10-11T19:17:19Z</time>
      </trkpt>
      <trkpt lat="59.9701491" lon="17.7537504">
        <ele>21.767</ele>
        <time>2012-10-11T19:17:20Z</time>
      </trkpt>
      <trkpt lat="59.9701615" lon="17.7537134">
        <ele>21.2864</ele>
        <time>2012-10-11T19:17:21Z</time>
      </trkpt>
      <trkpt lat="59.9701735" lon="17.7536746">
        <ele>21.2864</ele>
        <time>2012-10-11T19:17:22Z</time>
      </trkpt>
      <trkpt lat="59.9701872" lon="17.7536396">
        <ele>20.8057</ele>
        <time>2012-10-11T19:17:23Z</time>
      </trkpt>
      <trkpt lat="59.9701993" lon="17.753598">
        <ele>20.8057</ele>
        <time>2012-10-11T19:17:24Z</time>
      </trkpt>
      <trkpt lat="59.9702117" lon="17.75356">
        <ele>20.325</ele>
        <time>2012-10-11T19:17:25Z</time>
      </trkpt>
      <trkpt lat="59.9702268" lon="17.7535215">
        <ele>19.8444</ele>
        <time>2012-10-11T19:17:26Z</time>
      </trkpt>
      <trkpt lat="59.97024" lon="17.7534813">
        <ele>20.325</ele>
        <time>2012-10-11T19:17:27Z</time>
      </trkpt>
      <trkpt lat="59.9702528" lon="17.7534457">
        <ele>19.8444</ele>
        <time>2012-10-11T19:17:28Z</time>
      </trkpt>
      <trkpt lat="59.9702659" lon="17.7534074">
        <ele>19.3638</ele>
        <time>2012-10-11T19:17:29Z</time>
      </trkpt>
      <trkpt lat="59.9702773" lon="17.7533675">
        <ele>19.3638</ele>
        <time>2012-10-11T19:17:30Z</time>
      </trkpt>
      <trkpt lat="59.9702925" lon="17.7533225">
        <ele>19.3638</ele>
        <time>2012-10-11T19:17:31Z</time>
      </trkpt>
      <trkpt lat="59.9703087" lon="17.7532857">
        <ele>18.4023</ele>
        <time>2012-10-11T19:17:32Z</time>
      </trkpt>
      <trkpt lat="59.9703242" lon="17.75324">
        <ele>18.4023</ele>
        <time>2012-10-11T19:17:33Z</time>
      </trkpt>
      <trkpt lat="59.9703422" lon="17.7531928">
        <ele>18.4023</ele>
        <time>2012-10-11T19:17:34Z</time>
      </trkpt>
      <trkpt lat="59.9703579" lon="17.7531504">
        <ele>17.9218</ele>
        <time>2012-10-11T19:17:35Z</time>
      </trkpt>
      <trkpt lat="59.9703749" lon="17.7531026">
        <ele>17.9218</ele>
        <time>2012-10-11T19:17:36Z</time>
      </trkpt>
      <trkpt lat="59.9703946" lon="17.7530588">
        <ele>17.4412</ele>
        <time>2012-10-11T19:17:37Z</time>
      </trkpt>
      <trkpt lat="59.9704122" lon="17.7530122">
        <ele>17.9218</ele>
        <time>2012-10-11T19:17:38Z</time>
      </trkpt>
      <trkpt lat="59.9704303" lon="17.7529656">
        <ele>17.4412</ele>
        <time>2012-10-11T19:17:39Z</time>
      </trkpt>
      <trkpt lat="59.9704491" lon="17.7529283">
        <ele>16.9604</ele>
        <time>2012-10-11T19:17:40Z</time>
      </trkpt>
      <trkpt lat="59.9704656" lon="17.7528785">
        <ele>17.4412</ele>
        <time>2012-10-11T19:17:41Z</time>
      </trkpt>
      <trkpt lat="59.9704837" lon="17.7528371">
        <ele>17.4412</ele>
        <time>2012-10-11T19:17:42Z</time>
      </trkpt>
      <trkpt lat="59.9705023" lon="17.7527952">
        <ele>17.4412</ele>
        <time>2012-10-11T19:17:43Z</time>
      </trkpt>
      <trkpt lat="59.9705204" lon="17.7527542">
        <ele>16.9604</ele>
        <time>2012-10-11T19:17:44Z</time>
      </trkpt>
      <trkpt lat="59.9705389" lon="17.7527107">
        <ele>16.9604</ele>
        <time>2012-10-11T19:17:45Z</time>
      </trkpt>
      <trkpt lat="59.9705581" lon="17.7526611">
        <ele>16.9604</ele>
        <time>2012-10-11T19:17:46Z</time>
      </trkpt>
      <trkpt lat="59.9705791" lon="17.7526129">
        <ele>16.9604</ele>
        <time>2012-10-11T19:17:47Z</time>
      </trkpt>
      <trkpt lat="59.9706021" lon="17.752577">
        <ele>16.4797</ele>
        <time>2012-10-11T19:17:48Z</time>
      </trkpt>
      <trkpt lat="59.970623" lon="17.7525406">
        <ele>16.4797</ele>
        <time>2012-10-11T19:17:49Z</time>
      </trkpt>
      <trkpt lat="59.9706442" lon="17.752504">
        <ele>15.999</ele>
        <time>2012-10-11T19:17:50Z</time>
      </trkpt>
      <trkpt lat="59.9706627" lon="17.7524666">
        <ele>15.999</ele>
        <time>2012-10-11T19:17:51Z</time>
      </trkpt>
      <trkpt lat="59.970679" lon="17.7524273">
        <ele>15.999</ele>
        <time>2012-10-11T19:17:52Z</time>
      </trkpt>
      <trkpt lat="59.9706976" lon="17.7523947">
        <ele>15.5184</ele>
        <time>2012-10-11T19:17:53Z</time>
      </trkpt>
      <trkpt lat="59.9707146" lon="17.752362">
        <ele>15.5184</ele>
        <time>2012-10-11T19:17:54Z</time>
      </trkpt>
      <trkpt lat="59.9707313" lon="17.7523324">
        <ele>15.0377</ele>
        <time>2012-10-11T19:17:55Z</time>
      </trkpt>
      <trkpt lat="59.97075" lon="17.7523034">
        <ele>14.0764</ele>
        <time>2012-10-11T19:17:56Z</time>
      </trkpt>
      <trkpt lat="59.9707674" lon="17.7522744">
        <ele>14.0764</ele>
        <time>2012-10-11T19:17:57Z</time>
      </trkpt>
      <trkpt lat="59.9707862" lon="17.752245">
        <ele>13.5958</ele>
        <time>2012-10-11T19:17:58Z</time>
      </trkpt>
      <trkpt lat="59.9708036" lon="17.7522181">
        <ele>13.1151</ele>
        <time>2012-10-11T19:17:59Z</time>
      </trkpt>
      <trkpt lat="59.97082" lon="17.7521791">
        <ele>13.1151</ele>
        <time>2012-10-11T19:18:00Z</time>
      </trkpt>
      <trkpt lat="59.970842" lon="17.7521424">
        <ele>13.1151</ele>
        <time>2012-10-11T19:18:01Z</time>
      </trkpt>
      <trkpt lat="59.9708612" lon="17.7521054">
        <ele>13.1151</ele>
        <time>2012-10-11T19:18:02Z</time>
      </trkpt>
      <trkpt lat="59.9708805" lon="17.7520747">
        <ele>12.6344</ele>
        <time>2012-10-11T19:18:03Z</time>
      </trkpt>
      <trkpt lat="59.9708998" lon="17.7520455">
        <ele>12.6344</ele>
        <time>2012-10-11T19:18:04Z</time>
      </trkpt>
      <trkpt lat="59.9709173" lon="17.7520083">
        <ele>12.6344</ele>
        <time>2012-10-11T19:18:05Z</time>
      </trkpt>
      <trkpt lat="59.9709399" lon="17.7519703">
        <ele>12.6344</ele>
        <time>2012-10-11T19:18:06Z</time>
      </trkpt>
      <trkpt lat="59.9709625" lon="17.7519398">
        <ele>12.6344</ele>
        <time>2012-10-11T19:18:07Z</time>
      </trkpt>
      <trkpt lat="59.9709842" lon="17.7519135">
        <ele>12.6344</ele>
        <time>2012-10-11T19:18:08Z</time>
      </trkpt>
      <trkpt lat="59.9710082" lon="17.7518786">
        <ele>13.5958</ele>
        <time>2012-10-11T19:18:09Z</time>
      </trkpt>
      <trkpt lat="59.9710313" lon="17.751842">
        <ele>13.5958</ele>
        <time>2012-10-11T19:18:10Z</time>
      </trkpt>
      <trkpt lat="59.9710551" lon="17.7518103">
        <ele>13.5958</ele>
        <time>2012-10-11T19:18:11Z</time>
      </trkpt>
      <trkpt lat="59.9710772" lon="17.7517777">
        <ele>14.0764</ele>
        <time>2012-10-11T19:18:12Z</time>
      </trkpt>
      <trkpt lat="59.9710979" lon="17.7517449">
        <ele>14.0764</ele>
        <time>2012-10-11T19:18:13Z</time>
      </trkpt>
      <trkpt lat="59.9711175" lon="17.751714">
        <ele>14.557</ele>
        <time>2012-10-11T19:18:14Z</time>
      </trkpt>
      <trkpt lat="59.9711333" lon="17.7516876">
        <ele>14.557</ele>
        <time>2012-10-11T19:18:15Z</time>
      </trkpt>
      <trkpt lat="59.971154" lon="17.7516656">
        <ele>15.0377</ele>
        <time>2012-10-11T19:18:16Z</time>
      </trkpt>
      <trkpt lat="59.9711742" lon="17.7516415">
        <ele>15.5184</ele>
        <time>2012-10-11T19:18:17Z</time>
      </trkpt>
      <trkpt lat="59.9711917" lon="17.751613">
        <ele>15.5184</ele>
        <time>2012-10-11T19:18:18Z</time>
      </trkpt>
      <trkpt lat="59.9712114" lon="17.751584">
        <ele>15.999</ele>
        <time>2012-10-11T19:18:19Z</time>
      </trkpt>
      <trkpt lat="59.9712315" lon="17.7515591">
        <ele>15.999</ele>
        <time>2012-10-11T19:18:20Z</time>
      </trkpt>
      <trkpt lat="59.9712544" lon="17.7515301">
        <ele>16.4797</ele>
        <time>2012-10-11T19:18:21Z</time>
      </trkpt>
      <trkpt lat="59.9712804" lon="17.7515073">
        <ele>15.999</ele>
        <time>2012-10-11T19:18:22Z</time>
      </trkpt>
      <trkpt lat="59.9713025" lon="17.751484">
        <ele>15.5184</ele>
        <time>2012-10-11T19:18:23Z</time>
      </trkpt>
      <trkpt lat="59.9713255" lon="17.7514586">
        <ele>15.5184</ele>
        <time>2012-10-11T19:18:24Z</time>
      </trkpt>
      <trkpt lat="59.9713479" lon="17.7514405">
        <ele>15.0377</ele>
        <time>2012-10-11T19:18:25Z</time>
      </trkpt>
      <trkpt lat="59.9713691" lon="17.7514222">
        <ele>15.0377</ele>
        <time>2012-10-11T19:18:26Z</time>
      </trkpt>
      <trkpt lat="59.9713937" lon="17.7514064">
        <ele>15.0377</ele>
        <time>2012-10-11T19:18:27Z</time>
      </trkpt>
      <trkpt lat="59.9714176" lon="17.7513847">
        <ele>15.5184</ele>
        <time>2012-10-11T19:18:28Z</time>
      </trkpt>
      <trkpt lat="59.9714435" lon="17.7513592">
        <ele>15.5184</ele>
        <time>2012-10-11T19:18:29Z</time>
      </trkpt>
      <trkpt lat="59.9714703" lon="17.751337">
        <ele>15.999</ele>
        <time>2012-10-11T19:18:30Z</time>
      </trkpt>
      <trkpt lat="59.9714928" lon="17.7513119">
        <ele>15.999</ele>
        <time>2012-10-11T19:18:31Z</time>
      </trkpt>
      <trkpt lat="59.9715134" lon="17.7512909">
        <ele>15.999</ele>
        <time>2012-10-11T19:18:32Z</time>
      </trkpt>
      <trkpt lat="59.9715311" lon="17.7512649">
        <ele>15.999</ele>
        <time>2012-10-11T19:18:33Z</time>
      </trkpt>
      <trkpt lat="59.9715525" lon="17.7512336">
        <ele>16.4797</ele>
        <time>2012-10-11T19:18:34Z</time>
      </trkpt>
      <trkpt lat="59.9715744" lon="17.7512116">
        <ele>16.4797</ele>
        <time>2012-10-11T19:18:35Z</time>
      </trkpt>
      <trkpt lat="59.9715942" lon="17.7511839">
        <ele>16.9604</ele>
        <time>2012-10-11T19:18:36Z</time>
      </trkpt>
      <trkpt lat="59.9716177" lon="17.751157">
        <ele>17.4412</ele>
        <time>2012-10-11T19:18:37Z</time>
      </trkpt>
      <trkpt lat="59.9716404" lon="17.751137">
        <ele>17.4412</ele>
        <time>2012-10-11T19:18:38Z</time>
      </trkpt>
      <trkpt lat="59.9716617" lon="17.7511137">
        <ele>16.9604</ele>
        <time>2012-10-11T19:18:39Z</time>
      </trkpt>
      <trkpt lat="59.9716815" lon="17.7510889">
        <ele>17.4412</ele>
        <time>2012-10-11T19:18:40Z</time>
      </trkpt>
      <trkpt lat="59.9717003" lon="17.7510653">
        <ele>17.4412</ele>
        <time>2012-10-11T19:18:41Z</time>
      </trkpt>
      <trkpt lat="59.97172" lon="17.7510375">
        <ele>16.9604</ele>
        <time>2012-10-11T19:18:42Z</time>
      </trkpt>
      <trkpt lat="59.9717384" lon="17.7510076">
        <ele>17.4412</ele>
        <time>2012-10-11T19:18:43Z</time>
      </trkpt>
      <trkpt lat="59.971758" lon="17.7509809">
        <ele>17.9218</ele>
        <time>2012-10-11T19:18:44Z</time>
      </trkpt>
      <trkpt lat="59.9717794" lon="17.7509557">
        <ele>18.4023</ele>
        <time>2012-10-11T19:18:45Z</time>
      </trkpt>
      <trkpt lat="59.971799" lon="17.7509308">
        <ele>18.8831</ele>
        <time>2012-10-11T19:18:46Z</time>
      </trkpt>
      <trkpt lat="59.9718194" lon="17.7508986">
        <ele>19.3638</ele>
        <time>2012-10-11T19:18:47Z</time>
      </trkpt>
      <trkpt lat="59.9718404" lon="17.7508655">
        <ele>19.8444</ele>
        <time>2012-10-11T19:18:48Z</time>
      </trkpt>
      <trkpt lat="59.9718585" lon="17.7508267">
        <ele>19.8444</ele>
        <time>2012-10-11T19:18:49Z</time>
      </trkpt>
      <trkpt lat="59.9718765" lon="17.7507893">
        <ele>20.325</ele>
        <time>2012-10-11T19:18:50Z</time>
      </trkpt>
      <trkpt lat="59.971894" lon="17.7507529">
        <ele>20.8057</ele>
        <time>2012-10-11T19:18:51Z</time>
      </trkpt>
      <trkpt lat="59.9719103" lon="17.7507141">
        <ele>21.2864</ele>
        <time>2012-10-11T19:18:52Z</time>
      </trkpt>
      <trkpt lat="59.9719284" lon="17.7506862">
        <ele>21.767</ele>
        <time>2012-10-11T19:18:53Z</time>
      </trkpt>
      <trkpt lat="59.9719434" lon="17.7506576">
        <ele>21.767</ele>
        <time>2012-10-11T19:18:54Z</time>
      </trkpt>
      <trkpt lat="59.9719579" lon="17.7506221">
        <ele>22.2476</ele>
        <time>2012-10-11T19:18:55Z</time>
      </trkpt>
      <trkpt lat="59.9719757" lon="17.7505889">
        <ele>22.2476</ele>
        <time>2012-10-11T19:18:56Z</time>
      </trkpt>
      <trkpt lat="59.9719942" lon="17.7505486">
        <ele>22.7283</ele>
        <time>2012-10-11T19:18:57Z</time>
      </trkpt>
      <trkpt lat="59.9720121" lon="17.7505071">
        <ele>22.7283</ele>
        <time>2012-10-11T19:18:58Z</time>
      </trkpt>
      <trkpt lat="59.9720284" lon="17.7504755">
        <ele>22.7283</ele>
        <time>2012-10-11T19:18:59Z</time>
      </trkpt>
      <trkpt lat="59.9720428" lon="17.7504479">
        <ele>22.7283</ele>
        <time>2012-10-11T19:19:00Z</time>
      </trkpt>
      <trkpt lat="59.972058" lon="17.7504195">
        <ele>22.7283</ele>
        <time>2012-10-11T19:19:01Z</time>
      </trkpt>
      <trkpt lat="59.9720735" lon="17.750391">
        <ele>22.7283</ele>
        <time>2012-10-11T19:19:02Z</time>
      </trkpt>
      <trkpt lat="59.9720893" lon="17.7503661">
        <ele>22.7283</ele>
        <time>2012-10-11T19:19:03Z</time>
      </trkpt>
      <trkpt lat="59.9721067" lon="17.7503372">
        <ele>22.7283</ele>
        <time>2012-10-11T19:19:04Z</time>
      </trkpt>
      <trkpt lat="59.9721217" lon="17.7502982">
        <ele>22.7283</ele>
        <time>2012-10-11T19:19:05Z</time>
      </trkpt>
      <trkpt lat="59.9721341" lon="17.7502481">
        <ele>22.7283</ele>
        <time>2012-10-11T19:19:06Z</time>
      </trkpt>
      <trkpt lat="59.9721465" lon="17.7501952">
        <ele>23.209</ele>
        <time>2012-10-11T19:19:07Z</time>
      </trkpt>
      <trkpt lat="59.9721591" lon="17.7501595">
        <ele>23.209</ele>
        <time>2012-10-11T19:19:08Z</time>
      </trkpt>
      <trkpt lat="59.9721739" lon="17.7501336">
        <ele>23.6896</ele>
        <time>2012-10-11T19:19:09Z</time>
      </trkpt>
      <trkpt lat="59.9721879" lon="17.7500942">
        <ele>23.6896</ele>
        <time>2012-10-11T19:19:10Z</time>
      </trkpt>
      <trkpt lat="59.9722012" lon="17.7500474">
        <ele>23.6896</ele>
        <time>2012-10-11T19:19:11Z</time>
      </trkpt>
      <trkpt lat="59.9722197" lon="17.7500067">
        <ele>23.6896</ele>
        <time>2012-10-11T19:19:12Z</time>
      </trkpt>
      <trkpt lat="59.9722422" lon="17.7499808">
        <ele>23.6896</ele>
        <time>2012-10-11T19:19:13Z</time>
      </trkpt>
      <trkpt lat="59.9722594" lon="17.7499595">
        <ele>23.209</ele>
        <time>2012-10-11T19:19:14Z</time>
      </trkpt>
      <trkpt lat="59.9722765" lon="17.7499339">
        <ele>22.7283</ele>
        <time>2012-10-11T19:19:15Z</time>
      </trkpt>
      <trkpt lat="59.972291" lon="17.7498953">
        <ele>22.7283</ele>
        <time>2012-10-11T19:19:16Z</time>
      </trkpt>
      <trkpt lat="59.9723055" lon="17.7498606">
        <ele>22.7283</ele>
        <time>2012-10-11T19:19:17Z</time>
      </trkpt>
      <trkpt lat="59.9723233" lon="17.7498296">
        <ele>22.7283</ele>
        <time>2012-10-11T19:19:18Z</time>
      </trkpt>
      <trkpt lat="59.9723404" lon="17.7498025">
        <ele>22.7283</ele>
        <time>2012-10-11T19:19:19Z</time>
      </trkpt>
      <trkpt lat="59.9723567" lon="17.749782">
        <ele>22.2476</ele>
        <time>2012-10-11T19:19:20Z</time>
      </trkpt>
      <trkpt lat="59.9723739" lon="17.7497592">
        <ele>21.767</ele>
        <time>2012-10-11T19:19:21Z</time>
      </trkpt>
      <trkpt lat="59.9723879" lon="17.7497328">
        <ele>21.767</ele>
        <time>2012-10-11T19:19:22Z</time>
      </trkpt>
      <trkpt lat="59.9723998" lon="17.7496901">
        <ele>21.767</ele>
        <time>2012-10-11T19:19:23Z</time>
      </trkpt>
      <trkpt lat="59.9724115" lon="17.7496503">
        <ele>21.2864</ele>
        <time>2012-10-11T19:19:24Z</time>
      </trkpt>
      <trkpt lat="59.9724246" lon="17.749617">
        <ele>20.8057</ele>
        <time>2012-10-11T19:19:25Z</time>
      </trkpt>
      <trkpt lat="59.9724382" lon="17.7495793">
        <ele>20.325</ele>
        <time>2012-10-11T19:19:26Z</time>
      </trkpt>
      <trkpt lat="59.972451" lon="17.7495389">
        <ele>19.8444</ele>
        <time>2012-10-11T19:19:27Z</time>
      </trkpt>
      <trkpt lat="59.9724677" lon="17.7495001">
        <ele>19.3638</ele>
        <time>2012-10-11T19:19:28Z</time>
      </trkpt>
      <trkpt lat="59.9724826" lon="17.7494574">
        <ele>19.3638</ele>
        <time>2012-10-11T19:19:29Z</time>
      </trkpt>
      <trkpt lat="59.9724976" lon="17.7494082">
        <ele>18.8831</ele>
        <time>2012-10-11T19:19:30Z</time>
      </trkpt>
      <trkpt lat="59.9725143" lon="17.7493607">
        <ele>18.8831</ele>
        <time>2012-10-11T19:19:31Z</time>
      </trkpt>
      <trkpt lat="59.9725297" lon="17.7493276">
        <ele>17.9218</ele>
        <time>2012-10-11T19:19:32Z</time>
      </trkpt>
      <trkpt lat="59.9725426" lon="17.7492976">
        <ele>17.9218</ele>
        <time>2012-10-11T19:19:33Z</time>
      </trkpt>
      <trkpt lat="59.9725532" lon="17.7492679">
        <ele>16.9604</ele>
        <time>2012-10-11T19:19:34Z</time>
      </trkpt>
      <trkpt lat="59.9725697" lon="17.7492302">
        <ele>16.9604</ele>
        <time>2012-10-11T19:19:35Z</time>
      </trkpt>
      <trkpt lat="59.9725878" lon="17.7491951">
        <ele>17.4412</ele>
        <time>2012-10-11T19:19:36Z</time>
      </trkpt>
      <trkpt lat="59.9726034" lon="17.7491608">
        <ele>17.4412</ele>
        <time>2012-10-11T19:19:37Z</time>
      </trkpt>
      <trkpt lat="59.972621" lon="17.7491406">
        <ele>16.9604</ele>
        <time>2012-10-11T19:19:38Z</time>
      </trkpt>
      <trkpt lat="59.972638" lon="17.7491063">
        <ele>17.4412</ele>
        <time>2012-10-11T19:19:39Z</time>
      </trkpt>
      <trkpt lat="59.9726553" lon="17.7490607">
        <ele>17.9218</ele>
        <time>2012-10-11T19:19:40Z</time>
      </trkpt>
      <trkpt lat="59.9726747" lon="17.7490187">
        <ele>18.4023</ele>
        <time>2012-10-11T19:19:41Z</time>
      </trkpt>
      <trkpt lat="59.972691" lon="17.748978">
        <ele>18.4023</ele>
        <time>2012-10-11T19:19:42Z</time>
      </trkpt>
      <trkpt lat="59.9727076" lon="17.7489333">
        <ele>18.4023</ele>
        <time>2012-10-11T19:19:43Z</time>
      </trkpt>
      <trkpt lat="59.9727251" lon="17.7488939">
        <ele>18.4023</ele>
        <time>2012-10-11T19:19:44Z</time>
      </trkpt>
      <trkpt lat="59.9727403" lon="17.7488573">
        <ele>17.9218</ele>
        <time>2012-10-11T19:19:45Z</time>
      </trkpt>
      <trkpt lat="59.9727589" lon="17.7488205">
        <ele>17.4412</ele>
        <time>2012-10-11T19:19:46Z</time>
      </trkpt>
      <trkpt lat="59.9727794" lon="17.7487982">
        <ele>16.9604</ele>
        <time>2012-10-11T19:19:47Z</time>
      </trkpt>
      <trkpt lat="59.9727971" lon="17.7487645">
        <ele>16.9604</ele>
        <time>2012-10-11T19:19:48Z</time>
      </trkpt>
      <trkpt lat="59.9728199" lon="17.748734">
        <ele>16.9604</ele>
        <time>2012-10-11T19:19:49Z</time>
      </trkpt>
      <trkpt lat="59.9728413" lon="17.7486935">
        <ele>17.4412</ele>
        <time>2012-10-11T19:19:50Z</time>
      </trkpt>
      <trkpt lat="59.9728578" lon="17.7486482">
        <ele>17.4412</ele>
        <time>2012-10-11T19:19:51Z</time>
      </trkpt>
      <trkpt lat="59.9728746" lon="17.7485966">
        <ele>18.4023</ele>
        <time>2012-10-11T19:19:52Z</time>
      </trkpt>
      <trkpt lat="59.9728926" lon="17.7485573">
        <ele>18.4023</ele>
        <time>2012-10-11T19:19:53Z</time>
      </trkpt>
      <trkpt lat="59.9729097" lon="17.7485206">
        <ele>18.4023</ele>
        <time>2012-10-11T19:19:54Z</time>
      </trkpt>
      <trkpt lat="59.972924" lon="17.7484806">
        <ele>18.4023</ele>
        <time>2012-10-11T19:19:55Z</time>
      </trkpt>
      <trkpt lat="59.9729417" lon="17.7484441">
        <ele>18.4023</ele>
        <time>2012-10-11T19:19:56Z</time>
      </trkpt>
      <trkpt lat="59.9729586" lon="17.7483994">
        <ele>18.4023</ele>
        <time>2012-10-11T19:19:57Z</time>
      </trkpt>
      <trkpt lat="59.9729782" lon="17.7483567">
        <ele>18.4023</ele>
        <time>2012-10-11T19:19:58Z</time>
      </trkpt>
      <trkpt lat="59.9729996" lon="17.7483195">
        <ele>18.4023</ele>
        <time>2012-10-11T19:19:59Z</time>
      </trkpt>
      <trkpt lat="59.9730205" lon="17.7482898">
        <ele>18.4023</ele>
        <time>2012-10-11T19:20:00Z</time>
      </trkpt>
      <trkpt lat="59.9730416" lon="17.7482526">
        <ele>18.4023</ele>
        <time>2012-10-11T19:20:01Z</time>
      </trkpt>
      <trkpt lat="59.9730622" lon="17.7482238">
        <ele>18.4023</ele>
        <time>2012-10-11T19:20:02Z</time>
      </trkpt>
      <trkpt lat="59.9730834" lon="17.7482004">
        <ele>18.4023</ele>
        <time>2012-10-11T19:20:03Z</time>
      </trkpt>
      <trkpt lat="59.9731049" lon="17.7481703">
        <ele>18.8831</ele>
        <time>2012-10-11T19:20:04Z</time>
      </trkpt>
      <trkpt lat="59.9731295" lon="17.7481401">
        <ele>18.8831</ele>
        <time>2012-10-11T19:20:05Z</time>
      </trkpt>
      <trkpt lat="59.9731525" lon="17.7481108">
        <ele>18.8831</ele>
        <time>2012-10-11T19:20:06Z</time>
      </trkpt>
      <trkpt lat="59.9731731" lon="17.7480889">
        <ele>18.8831</ele>
        <time>2012-10-11T19:20:07Z</time>
      </trkpt>
      <trkpt lat="59.9731945" lon="17.7480656">
        <ele>18.8831</ele>
        <time>2012-10-11T19:20:08Z</time>
      </trkpt>
      <trkpt lat="59.9732157" lon="17.7480397">
        <ele>19.3638</ele>
        <time>2012-10-11T19:20:09Z</time>
      </trkpt>
      <trkpt lat="59.973236" lon="17.7480072">
        <ele>19.3638</ele>
        <time>2012-10-11T19:20:10Z</time>
      </trkpt>
      <trkpt lat="59.9732556" lon="17.7479745">
        <ele>18.8831</ele>
        <time>2012-10-11T19:20:11Z</time>
      </trkpt>
      <trkpt lat="59.9732768" lon="17.7479394">
        <ele>19.3638</ele>
        <time>2012-10-11T19:20:12Z</time>
      </trkpt>
      <trkpt lat="59.9733011" lon="17.7479124">
        <ele>19.3638</ele>
        <time>2012-10-11T19:20:13Z</time>
      </trkpt>
      <trkpt lat="59.973325" lon="17.7478885">
        <ele>19.8444</ele>
        <time>2012-10-11T19:20:14Z</time>
      </trkpt>
      <trkpt lat="59.9733443" lon="17.747865">
        <ele>19.8444</ele>
        <time>2012-10-11T19:20:15Z</time>
      </trkpt>
      <trkpt lat="59.9733668" lon="17.7478429">
        <ele>19.8444</ele>
        <time>2012-10-11T19:20:16Z</time>
      </trkpt>
      <trkpt lat="59.9733926" lon="17.7478217">
        <ele>19.8444</ele>
        <time>2012-10-11T19:20:17Z</time>
      </trkpt>
      <trkpt lat="59.9734175" lon="17.7477922">
        <ele>20.325</ele>
        <time>2012-10-11T19:20:18Z</time>
      </trkpt>
      <trkpt lat="59.9734424" lon="17.7477645">
        <ele>20.8057</ele>
        <time>2012-10-11T19:20:19Z</time>
      </trkpt>
      <trkpt lat="59.9734662" lon="17.7477435">
        <ele>20.8057</ele>
        <time>2012-10-11T19:20:20Z</time>
      </trkpt>
      <trkpt lat="59.9734927" lon="17.7477246">
        <ele>21.2864</ele>
        <time>2012-10-11T19:20:21Z</time>
      </trkpt>
      <trkpt lat="59.9735194" lon="17.7477103">
        <ele>21.2864</ele>
        <time>2012-10-11T19:20:22Z</time>
      </trkpt>
      <trkpt lat="59.9735416" lon="17.7476864">
        <ele>21.2864</ele>
        <time>2012-10-11T19:20:23Z</time>
      </trkpt>
      <trkpt lat="59.9735607" lon="17.7476653">
        <ele>20.8057</ele>
        <time>2012-10-11T19:20:24Z</time>
      </trkpt>
      <trkpt lat="59.9735796" lon="17.7476412">
        <ele>21.2864</ele>
        <time>2012-10-11T19:20:25Z</time>
      </trkpt>
      <trkpt lat="59.9736041" lon="17.7476208">
        <ele>21.2864</ele>
        <time>2012-10-11T19:20:26Z</time>
      </trkpt>
      <trkpt lat="59.9736284" lon="17.747597">
        <ele>21.767</ele>
        <time>2012-10-11T19:20:27Z</time>
      </trkpt>
      <trkpt lat="59.9736472" lon="17.747557">
        <ele>23.209</ele>
        <time>2012-10-11T19:20:28Z</time>
      </trkpt>
      <trkpt lat="59.9736651" lon="17.7475012">
        <ele>25.1317</ele>
        <time>2012-10-11T19:20:29Z</time>
      </trkpt>
      <trkpt lat="59.9736835" lon="17.7474457">
        <ele>26.5736</ele>
        <time>2012-10-11T19:20:30Z</time>
      </trkpt>
      <trkpt lat="59.9737016" lon="17.7473948">
        <ele>28.4962</ele>
        <time>2012-10-11T19:20:31Z</time>
      </trkpt>
      <trkpt lat="59.9737285" lon="17.7473748">
        <ele>28.9769</ele>
        <time>2012-10-11T19:20:32Z</time>
      </trkpt>
      <trkpt lat="59.973761" lon="17.7473579">
        <ele>29.4575</ele>
        <time>2012-10-11T19:20:33Z</time>
      </trkpt>
      <trkpt lat="59.9737806" lon="17.7473104">
        <ele>30.4188</ele>
        <time>2012-10-11T19:20:34Z</time>
      </trkpt>
      <trkpt lat="59.9737953" lon="17.7472865">
        <ele>30.4188</ele>
        <time>2012-10-11T19:20:35Z</time>
      </trkpt>
      <trkpt lat="59.9738034" lon="17.7472269">
        <ele>31.3801</ele>
        <time>2012-10-11T19:20:36Z</time>
      </trkpt>
      <trkpt lat="59.9738136" lon="17.747168">
        <ele>32.3416</ele>
        <time>2012-10-11T19:20:37Z</time>
      </trkpt>
      <trkpt lat="59.9738283" lon="17.7471303">
        <ele>33.3029</ele>
        <time>2012-10-11T19:20:38Z</time>
      </trkpt>
      <trkpt lat="59.9738457" lon="17.7471036">
        <ele>33.3029</ele>
        <time>2012-10-11T19:20:39Z</time>
      </trkpt>
      <trkpt lat="59.9738658" lon="17.7470777">
        <ele>33.7834</ele>
        <time>2012-10-11T19:20:40Z</time>
      </trkpt>
      <trkpt lat="59.973886" lon="17.7470566">
        <ele>33.7834</ele>
        <time>2012-10-11T19:20:41Z</time>
      </trkpt>
      <trkpt lat="59.9739067" lon="17.7470405">
        <ele>34.2642</ele>
        <time>2012-10-11T19:20:42Z</time>
      </trkpt>
      <trkpt lat="59.9739324" lon="17.7470188">
        <ele>34.7449</ele>
        <time>2012-10-11T19:20:43Z</time>
      </trkpt>
      <trkpt lat="59.9739528" lon="17.7469908">
        <ele>34.7449</ele>
        <time>2012-10-11T19:20:44Z</time>
      </trkpt>
      <trkpt lat="59.9739689" lon="17.7469728">
        <ele>33.7834</ele>
        <time>2012-10-11T19:20:45Z</time>
      </trkpt>
      <trkpt lat="59.9739931" lon="17.7469401">
        <ele>34.7449</ele>
        <time>2012-10-11T19:20:46Z</time>
      </trkpt>
      <trkpt lat="59.9740107" lon="17.7469271">
        <ele>33.7834</ele>
        <time>2012-10-11T19:20:47Z</time>
      </trkpt>
      <trkpt lat="59.9740321" lon="17.7469058">
        <ele>32.8223</ele>
        <time>2012-10-11T19:20:48Z</time>
      </trkpt>
      <trkpt lat="59.9740594" lon="17.7468831">
        <ele>33.3029</ele>
        <time>2012-10-11T19:20:49Z</time>
      </trkpt>
      <trkpt lat="59.9740814" lon="17.7468607">
        <ele>32.8223</ele>
        <time>2012-10-11T19:20:50Z</time>
      </trkpt>
      <trkpt lat="59.9741006" lon="17.7468388">
        <ele>32.3416</ele>
        <time>2012-10-11T19:20:51Z</time>
      </trkpt>
      <trkpt lat="59.9741222" lon="17.7468179">
        <ele>31.3801</ele>
        <time>2012-10-11T19:20:52Z</time>
      </trkpt>
      <trkpt lat="59.9741448" lon="17.7468033">
        <ele>31.3801</ele>
        <time>2012-10-11T19:20:53Z</time>
      </trkpt>
      <trkpt lat="59.9741676" lon="17.7467894">
        <ele>30.8995</ele>
        <time>2012-10-11T19:20:54Z</time>
      </trkpt>
      <trkpt lat="59.9741888" lon="17.7467707">
        <ele>30.4188</ele>
        <time>2012-10-11T19:20:55Z</time>
      </trkpt>
      <trkpt lat="59.9742096" lon="17.7467474">
        <ele>30.4188</ele>
        <time>2012-10-11T19:20:56Z</time>
      </trkpt>
      <trkpt lat="59.974232" lon="17.7467194">
        <ele>30.4188</ele>
        <time>2012-10-11T19:20:57Z</time>
      </trkpt>
      <trkpt lat="59.9742539" lon="17.7466886">
        <ele>29.9381</ele>
        <time>2012-10-11T19:20:58Z</time>
      </trkpt>
      <trkpt lat="59.9742756" lon="17.746655">
        <ele>29.9381</ele>
        <time>2012-10-11T19:20:59Z</time>
      </trkpt>
      <trkpt lat="59.9742957" lon="17.746624">
        <ele>29.9381</ele>
        <time>2012-10-11T19:21:00Z</time>
      </trkpt>
      <trkpt lat="59.9743144" lon="17.7465949">
        <ele>29.4575</ele>
        <time>2012-10-11T19:21:01Z</time>
      </trkpt>
      <trkpt lat="59.974335" lon="17.7465686">
        <ele>29.4575</ele>
        <time>2012-10-11T19:21:02Z</time>
      </trkpt>
      <trkpt lat="59.9743554" lon="17.7465496">
        <ele>29.4575</ele>
        <time>2012-10-11T19:21:03Z</time>
      </trkpt>
      <trkpt lat="59.9743767" lon="17.7465285">
        <ele>29.4575</ele>
        <time>2012-10-11T19:21:04Z</time>
      </trkpt>
      <trkpt lat="59.9744004" lon="17.7465073">
        <ele>28.9769</ele>
        <time>2012-10-11T19:21:05Z</time>
      </trkpt>
      <trkpt lat="59.9744242" lon="17.7464883">
        <ele>28.9769</ele>
        <time>2012-10-11T19:21:06Z</time>
      </trkpt>
      <trkpt lat="59.9744443" lon="17.7464626">
        <ele>28.4962</ele>
        <time>2012-10-11T19:21:07Z</time>
      </trkpt>
      <trkpt lat="59.9744634" lon="17.7464341">
        <ele>28.4962</ele>
        <time>2012-10-11T19:21:08Z</time>
      </trkpt>
      <trkpt lat="59.974487" lon="17.7464048">
        <ele>28.4962</ele>
        <time>2012-10-11T19:21:09Z</time>
      </trkpt>
      <trkpt lat="59.9745084" lon="17.7463738">
        <ele>28.4962</ele>
        <time>2012-10-11T19:21:10Z</time>
      </trkpt>
      <trkpt lat="59.9745277" lon="17.7463424">
        <ele>28.4962</ele>
        <time>2012-10-11T19:21:11Z</time>
      </trkpt>
      <trkpt lat="59.9745438" lon="17.746318">
        <ele>28.0155</ele>
        <time>2012-10-11T19:21:12Z</time>
      </trkpt>
      <trkpt lat="59.974563" lon="17.7462942">
        <ele>28.0155</ele>
        <time>2012-10-11T19:21:13Z</time>
      </trkpt>
      <trkpt lat="59.974587" lon="17.7462702">
        <ele>28.0155</ele>
        <time>2012-10-11T19:21:14Z</time>
      </trkpt>
      <trkpt lat="59.9746051" lon="17.7462447">
        <ele>28.0155</ele>
        <time>2012-10-11T19:21:15Z</time>
      </trkpt>
      <trkpt lat="59.9746236" lon="17.7462172">
        <ele>28.0155</ele>
        <time>2012-10-11T19:21:16Z</time>
      </trkpt>
      <trkpt lat="59.974645" lon="17.7461889">
        <ele>27.5349</ele>
        <time>2012-10-11T19:21:17Z</time>
      </trkpt>
      <trkpt lat="59.9746656" lon="17.7461516">
        <ele>27.5349</ele>
        <time>2012-10-11T19:21:18Z</time>
      </trkpt>
      <trkpt lat="59.9746854" lon="17.746115">
        <ele>27.5349</ele>
        <time>2012-10-11T19:21:19Z</time>
      </trkpt>
      <trkpt lat="59.9747029" lon="17.7460812">
        <ele>27.5349</ele>
        <time>2012-10-11T19:21:20Z</time>
      </trkpt>
      <trkpt lat="59.9747184" lon="17.7460417">
        <ele>27.5349</ele>
        <time>2012-10-11T19:21:21Z</time>
      </trkpt>
      <trkpt lat="59.9747359" lon="17.7459993">
        <ele>28.0155</ele>
        <time>2012-10-11T19:21:22Z</time>
      </trkpt>
      <trkpt lat="59.9747543" lon="17.7459595">
        <ele>27.5349</ele>
        <time>2012-10-11T19:21:23Z</time>
      </trkpt>
      <trkpt lat="59.9747713" lon="17.745918">
        <ele>28.0155</ele>
        <time>2012-10-11T19:21:24Z</time>
      </trkpt>
      <trkpt lat="59.9747867" lon="17.7458842">
        <ele>27.0543</ele>
        <time>2012-10-11T19:21:25Z</time>
      </trkpt>
      <trkpt lat="59.974806" lon="17.7458409">
        <ele>27.5349</ele>
        <time>2012-10-11T19:21:26Z</time>
      </trkpt>
      <trkpt lat="59.9748242" lon="17.7457997">
        <ele>27.5349</ele>
        <time>2012-10-11T19:21:27Z</time>
      </trkpt>
      <trkpt lat="59.9748403" lon="17.7457568">
        <ele>27.5349</ele>
        <time>2012-10-11T19:21:28Z</time>
      </trkpt>
      <trkpt lat="59.9748605" lon="17.7457218">
        <ele>27.0543</ele>
        <time>2012-10-11T19:21:29Z</time>
      </trkpt>
      <trkpt lat="59.9748801" lon="17.7456854">
        <ele>26.5736</ele>
        <time>2012-10-11T19:21:30Z</time>
      </trkpt>
      <trkpt lat="59.9748947" lon="17.7456472">
        <ele>26.0929</ele>
        <time>2012-10-11T19:21:31Z</time>
      </trkpt>
      <trkpt lat="59.9749127" lon="17.7456056">
        <ele>25.6123</ele>
        <time>2012-10-11T19:21:32Z</time>
      </trkpt>
      <trkpt lat="59.9749318" lon="17.7455651">
        <ele>25.6123</ele>
        <time>2012-10-11T19:21:33Z</time>
      </trkpt>
      <trkpt lat="59.9749484" lon="17.7455278">
        <ele>24.651</ele>
        <time>2012-10-11T19:21:34Z</time>
      </trkpt>
      <trkpt lat="59.9749653" lon="17.7454877">
        <ele>24.1703</ele>
        <time>2012-10-11T19:21:35Z</time>
      </trkpt>
      <trkpt lat="59.9749809" lon="17.745444">
        <ele>23.6896</ele>
        <time>2012-10-11T19:21:36Z</time>
      </trkpt>
      <trkpt lat="59.9749961" lon="17.7454027">
        <ele>23.209</ele>
        <time>2012-10-11T19:21:37Z</time>
      </trkpt>
      <trkpt lat="59.9750102" lon="17.7453599">
        <ele>22.2476</ele>
        <time>2012-10-11T19:21:38Z</time>
      </trkpt>
      <trkpt lat="59.9750235" lon="17.7453145">
        <ele>22.2476</ele>
        <time>2012-10-11T19:21:39Z</time>
      </trkpt>
      <trkpt lat="59.9750412" lon="17.7452767">
        <ele>21.2864</ele>
        <time>2012-10-11T19:21:40Z</time>
      </trkpt>
      <trkpt lat="59.9750586" lon="17.7452378">
        <ele>20.8057</ele>
        <time>2012-10-11T19:21:41Z</time>
      </trkpt>
      <trkpt lat="59.975072" lon="17.7451921">
        <ele>20.8057</ele>
        <time>2012-10-11T19:21:42Z</time>
      </trkpt>
      <trkpt lat="59.9750868" lon="17.7451529">
        <ele>20.325</ele>
        <time>2012-10-11T19:21:43Z</time>
      </trkpt>
      <trkpt lat="59.9750997" lon="17.7451149">
        <ele>19.3638</ele>
        <time>2012-10-11T19:21:44Z</time>
      </trkpt>
      <trkpt lat="59.9751096" lon="17.7450712">
        <ele>18.8831</ele>
        <time>2012-10-11T19:21:45Z</time>
      </trkpt>
      <trkpt lat="59.975121" lon="17.7450291">
        <ele>17.9218</ele>
        <time>2012-10-11T19:21:46Z</time>
      </trkpt>
      <trkpt lat="59.9751322" lon="17.7449836">
        <ele>17.4412</ele>
        <time>2012-10-11T19:21:47Z</time>
      </trkpt>
      <trkpt lat="59.9751437" lon="17.7449307">
        <ele>17.4412</ele>
        <time>2012-10-11T19:21:48Z</time>
      </trkpt>
      <trkpt lat="59.9751566" lon="17.7448834">
        <ele>17.4412</ele>
        <time>2012-10-11T19:21:49Z</time>
      </trkpt>
      <trkpt lat="59.9751681" lon="17.7448297">
        <ele>17.9218</ele>
        <time>2012-10-11T19:21:50Z</time>
      </trkpt>
      <trkpt lat="59.9751826" lon="17.744778">
        <ele>18.4023</ele>
        <time>2012-10-11T19:21:51Z</time>
      </trkpt>
      <trkpt lat="59.9751986" lon="17.7447405">
        <ele>18.4023</ele>
        <time>2012-10-11T19:21:52Z</time>
      </trkpt>
      <trkpt lat="59.97521" lon="17.7446972">
        <ele>18.4023</ele>
        <time>2012-10-11T19:21:53Z</time>
      </trkpt>
      <trkpt lat="59.9752212" lon="17.7446516">
        <ele>17.9218</ele>
        <time>2012-10-11T19:21:54Z</time>
      </trkpt>
      <trkpt lat="59.9752318" lon="17.7446064">
        <ele>17.4412</ele>
        <time>2012-10-11T19:21:55Z</time>
      </trkpt>
      <trkpt lat="59.9752402" lon="17.7445637">
        <ele>17.4412</ele>
        <time>2012-10-11T19:21:56Z</time>
      </trkpt>
      <trkpt lat="59.9752484" lon="17.7445223">
        <ele>16.9604</ele>
        <time>2012-10-11T19:21:57Z</time>
      </trkpt>
      <trkpt lat="59.9752575" lon="17.744478">
        <ele>16.9604</ele>
        <time>2012-10-11T19:21:58Z</time>
      </trkpt>
      <trkpt lat="59.9752697" lon="17.7444285">
        <ele>17.4412</ele>
        <time>2012-10-11T19:21:59Z</time>
      </trkpt>
      <trkpt lat="59.9752806" lon="17.744392">
        <ele>16.9604</ele>
        <time>2012-10-11T19:22:00Z</time>
      </trkpt>
      <trkpt lat="59.9752883" lon="17.7443444">
        <ele>17.4412</ele>
        <time>2012-10-11T19:22:01Z</time>
      </trkpt>
      <trkpt lat="59.9752968" lon="17.7442936">
        <ele>17.9218</ele>
        <time>2012-10-11T19:22:02Z</time>
      </trkpt>
      <trkpt lat="59.975306" lon="17.7442532">
        <ele>17.9218</ele>
        <time>2012-10-11T19:22:03Z</time>
      </trkpt>
      <trkpt lat="59.9753129" lon="17.7442013">
        <ele>17.9218</ele>
        <time>2012-10-11T19:22:04Z</time>
      </trkpt>
      <trkpt lat="59.9753181" lon="17.7441444">
        <ele>17.9218</ele>
        <time>2012-10-11T19:22:05Z</time>
      </trkpt>
      <trkpt lat="59.975323" lon="17.74409">
        <ele>17.9218</ele>
        <time>2012-10-11T19:22:06Z</time>
      </trkpt>
      <trkpt lat="59.9753292" lon="17.7440351">
        <ele>18.4023</ele>
        <time>2012-10-11T19:22:07Z</time>
      </trkpt>
      <trkpt lat="59.9753385" lon="17.7439843">
        <ele>18.4023</ele>
        <time>2012-10-11T19:22:08Z</time>
      </trkpt>
      <trkpt lat="59.9753474" lon="17.7439318">
        <ele>18.4023</ele>
        <time>2012-10-11T19:22:09Z</time>
      </trkpt>
      <trkpt lat="59.9753556" lon="17.7438723">
        <ele>18.4023</ele>
        <time>2012-10-11T19:22:10Z</time>
      </trkpt>
      <trkpt lat="59.9753649" lon="17.7438215">
        <ele>18.4023</ele>
        <time>2012-10-11T19:22:11Z</time>
      </trkpt>
      <trkpt lat="59.975371" lon="17.7437678">
        <ele>18.4023</ele>
        <time>2012-10-11T19:22:12Z</time>
      </trkpt>
      <trkpt lat="59.9753775" lon="17.7437046">
        <ele>18.4023</ele>
        <time>2012-10-11T19:22:13Z</time>
      </trkpt>
      <trkpt lat="59.9753873" lon="17.7436538">
        <ele>18.4023</ele>
        <time>2012-10-11T19:22:14Z</time>
      </trkpt>
      <trkpt lat="59.975395" lon="17.7436065">
        <ele>18.4023</ele>
        <time>2012-10-11T19:22:15Z</time>
      </trkpt>
      <trkpt lat="59.9754038" lon="17.7435568">
        <ele>18.8831</ele>
        <time>2012-10-11T19:22:16Z</time>
      </trkpt>
      <trkpt lat="59.9754115" lon="17.7435005">
        <ele>18.4023</ele>
        <time>2012-10-11T19:22:17Z</time>
      </trkpt>
      <trkpt lat="59.9754132" lon="17.7434331">
        <ele>18.8831</ele>
        <time>2012-10-11T19:22:18Z</time>
      </trkpt>
      <trkpt lat="59.9754183" lon="17.7433682">
        <ele>18.8831</ele>
        <time>2012-10-11T19:22:19Z</time>
      </trkpt>
      <trkpt lat="59.9754271" lon="17.7433145">
        <ele>18.8831</ele>
        <time>2012-10-11T19:22:20Z</time>
      </trkpt>
      <trkpt lat="59.9754375" lon="17.7432674">
        <ele>18.8831</ele>
        <time>2012-10-11T19:22:21Z</time>
      </trkpt>
      <trkpt lat="59.9754482" lon="17.7432213">
        <ele>18.8831</ele>
        <time>2012-10-11T19:22:22Z</time>
      </trkpt>
      <trkpt lat="59.975457" lon="17.7431703">
        <ele>18.8831</ele>
        <time>2012-10-11T19:22:23Z</time>
      </trkpt>
      <trkpt lat="59.9754675" lon="17.7431216">
        <ele>19.3638</ele>
        <time>2012-10-11T19:22:24Z</time>
      </trkpt>
      <trkpt lat="59.9754784" lon="17.7430747">
        <ele>19.3638</ele>
        <time>2012-10-11T19:22:25Z</time>
      </trkpt>
      <trkpt lat="59.9754893" lon="17.7430285">
        <ele>19.3638</ele>
        <time>2012-10-11T19:22:26Z</time>
      </trkpt>
      <trkpt lat="59.9755009" lon="17.7429807">
        <ele>19.3638</ele>
        <time>2012-10-11T19:22:27Z</time>
      </trkpt>
      <trkpt lat="59.9755141" lon="17.7429332">
        <ele>19.3638</ele>
        <time>2012-10-11T19:22:28Z</time>
      </trkpt>
      <trkpt lat="59.975527" lon="17.7428866">
        <ele>19.8444</ele>
        <time>2012-10-11T19:22:29Z</time>
      </trkpt>
      <trkpt lat="59.975537" lon="17.7428348">
        <ele>19.8444</ele>
        <time>2012-10-11T19:22:30Z</time>
      </trkpt>
      <trkpt lat="59.9755481" lon="17.7427841">
        <ele>19.8444</ele>
        <time>2012-10-11T19:22:31Z</time>
      </trkpt>
      <trkpt lat="59.9755605" lon="17.742736">
        <ele>19.8444</ele>
        <time>2012-10-11T19:22:32Z</time>
      </trkpt>
      <trkpt lat="59.9755732" lon="17.7426887">
        <ele>19.8444</ele>
        <time>2012-10-11T19:22:33Z</time>
      </trkpt>
      <trkpt lat="59.9755843" lon="17.7426385">
        <ele>20.325</ele>
        <time>2012-10-11T19:22:34Z</time>
      </trkpt>
      <trkpt lat="59.9755939" lon="17.7425872">
        <ele>20.8057</ele>
        <time>2012-10-11T19:22:35Z</time>
      </trkpt>
      <trkpt lat="59.9756078" lon="17.742539">
        <ele>21.2864</ele>
        <time>2012-10-11T19:22:36Z</time>
      </trkpt>
      <trkpt lat="59.975625" lon="17.7424953">
        <ele>21.767</ele>
        <time>2012-10-11T19:22:37Z</time>
      </trkpt>
      <trkpt lat="59.9756392" lon="17.7424576">
        <ele>21.767</ele>
        <time>2012-10-11T19:22:38Z</time>
      </trkpt>
      <trkpt lat="59.9756506" lon="17.7424152">
        <ele>21.767</ele>
        <time>2012-10-11T19:22:39Z</time>
      </trkpt>
      <trkpt lat="59.9756657" lon="17.7423715">
        <ele>22.2476</ele>
        <time>2012-10-11T19:22:40Z</time>
      </trkpt>
      <trkpt lat="59.9756793" lon="17.7423291">
        <ele>21.767</ele>
        <time>2012-10-11T19:22:41Z</time>
      </trkpt>
      <trkpt lat="59.9756897" lon="17.7422785">
        <ele>22.2476</ele>
        <time>2012-10-11T19:22:42Z</time>
      </trkpt>
      <trkpt lat="59.9757043" lon="17.7422354">
        <ele>22.2476</ele>
        <time>2012-10-11T19:22:43Z</time>
      </trkpt>
      <trkpt lat="59.9757211" lon="17.7421956">
        <ele>22.2476</ele>
        <time>2012-10-11T19:22:44Z</time>
      </trkpt>
      <trkpt lat="59.9757349" lon="17.7421541">
        <ele>22.7283</ele>
        <time>2012-10-11T19:22:45Z</time>
      </trkpt>
      <trkpt lat="59.9757499" lon="17.7421182">
        <ele>22.2476</ele>
        <time>2012-10-11T19:22:46Z</time>
      </trkpt>
      <trkpt lat="59.9757648" lon="17.742079">
        <ele>22.2476</ele>
        <time>2012-10-11T19:22:47Z</time>
      </trkpt>
      <trkpt lat="59.975775" lon="17.7420407">
        <ele>22.2476</ele>
        <time>2012-10-11T19:22:48Z</time>
      </trkpt>
      <trkpt lat="59.9757839" lon="17.7420012">
        <ele>22.2476</ele>
        <time>2012-10-11T19:22:49Z</time>
      </trkpt>
      <trkpt lat="59.9757949" lon="17.7419583">
        <ele>22.2476</ele>
        <time>2012-10-11T19:22:50Z</time>
      </trkpt>
      <trkpt lat="59.9758052" lon="17.7419097">
        <ele>23.209</ele>
        <time>2012-10-11T19:22:51Z</time>
      </trkpt>
      <trkpt lat="59.9758135" lon="17.7418589">
        <ele>23.6896</ele>
        <time>2012-10-11T19:22:52Z</time>
      </trkpt>
      <trkpt lat="59.9758265" lon="17.7418162">
        <ele>24.1703</ele>
        <time>2012-10-11T19:22:53Z</time>
      </trkpt>
      <trkpt lat="59.9758409" lon="17.7417755">
        <ele>24.1703</ele>
        <time>2012-10-11T19:22:54Z</time>
      </trkpt>
      <trkpt lat="59.975853" lon="17.7417279">
        <ele>24.651</ele>
        <time>2012-10-11T19:22:55Z</time>
      </trkpt>
      <trkpt lat="59.9758653" lon="17.7416823">
        <ele>24.651</ele>
        <time>2012-10-11T19:22:56Z</time>
      </trkpt>
      <trkpt lat="59.9758772" lon="17.7416404">
        <ele>24.651</ele>
        <time>2012-10-11T19:22:57Z</time>
      </trkpt>
      <trkpt lat="59.9758885" lon="17.7415937">
        <ele>24.651</ele>
        <time>2012-10-11T19:22:58Z</time>
      </trkpt>
      <trkpt lat="59.9759017" lon="17.7415479">
        <ele>24.1703</ele>
        <time>2012-10-11T19:22:59Z</time>
      </trkpt>
      <trkpt lat="59.9759109" lon="17.7415011">
        <ele>24.1703</ele>
        <time>2012-10-11T19:23:00Z</time>
      </trkpt>
      <trkpt lat="59.9759197" lon="17.7414522">
        <ele>24.1703</ele>
        <time>2012-10-11T19:23:01Z</time>
      </trkpt>
      <trkpt lat="59.9759351" lon="17.7414073">
        <ele>24.1703</ele>
        <time>2012-10-11T19:23:02Z</time>
      </trkpt>
      <trkpt lat="59.9759492" lon="17.7413627">
        <ele>23.6896</ele>
        <time>2012-10-11T19:23:03Z</time>
      </trkpt>
      <trkpt lat="59.9759596" lon="17.7413134">
        <ele>24.1703</ele>
        <time>2012-10-11T19:23:04Z</time>
      </trkpt>
      <trkpt lat="59.9759721" lon="17.7412647">
        <ele>24.1703</ele>
        <time>2012-10-11T19:23:05Z</time>
      </trkpt>
      <trkpt lat="59.9759853" lon="17.7412203">
        <ele>23.6896</ele>
        <time>2012-10-11T19:23:06Z</time>
      </trkpt>
      <trkpt lat="59.9759954" lon="17.74117">
        <ele>24.1703</ele>
        <time>2012-10-11T19:23:07Z</time>
      </trkpt>
      <trkpt lat="59.9760078" lon="17.7411216">
        <ele>23.6896</ele>
        <time>2012-10-11T19:23:08Z</time>
      </trkpt>
      <trkpt lat="59.9760219" lon="17.7410806">
        <ele>23.6896</ele>
        <time>2012-10-11T19:23:09Z</time>
      </trkpt>
      <trkpt lat="59.9760342" lon="17.7410378">
        <ele>23.6896</ele>
        <time>2012-10-11T19:23:10Z</time>
      </trkpt>
      <trkpt lat="59.9760467" lon="17.7409938">
        <ele>23.209</ele>
        <time>2012-10-11T19:23:11Z</time>
      </trkpt>
      <trkpt lat="59.9760604" lon="17.7409519">
        <ele>23.209</ele>
        <time>2012-10-11T19:23:12Z</time>
      </trkpt>
      <trkpt lat="59.9760715" lon="17.7409069">
        <ele>22.7283</ele>
        <time>2012-10-11T19:23:13Z</time>
      </trkpt>
      <trkpt lat="59.9760855" lon="17.7408659">
        <ele>22.7283</ele>
        <time>2012-10-11T19:23:14Z</time>
      </trkpt>
      <trkpt lat="59.9761021" lon="17.7408299">
        <ele>22.7283</ele>
        <time>2012-10-11T19:23:15Z</time>
      </trkpt>
      <trkpt lat="59.9761171" lon="17.7407902">
        <ele>23.209</ele>
        <time>2012-10-11T19:23:16Z</time>
      </trkpt>
      <trkpt lat="59.9761342" lon="17.7407484">
        <ele>22.7283</ele>
        <time>2012-10-11T19:23:17Z</time>
      </trkpt>
      <trkpt lat="59.976149" lon="17.7407061">
        <ele>22.7283</ele>
        <time>2012-10-11T19:23:18Z</time>
      </trkpt>
      <trkpt lat="59.97616" lon="17.7406607">
        <ele>22.7283</ele>
        <time>2012-10-11T19:23:19Z</time>
      </trkpt>
      <trkpt lat="59.9761755" lon="17.7406219">
        <ele>22.7283</ele>
        <time>2012-10-11T19:23:20Z</time>
      </trkpt>
      <trkpt lat="59.9761921" lon="17.7405901">
        <ele>22.7283</ele>
        <time>2012-10-11T19:23:21Z</time>
      </trkpt>
      <trkpt lat="59.9762061" lon="17.7405462">
        <ele>22.7283</ele>
        <time>2012-10-11T19:23:22Z</time>
      </trkpt>
      <trkpt lat="59.9762234" lon="17.7405013">
        <ele>22.7283</ele>
        <time>2012-10-11T19:23:23Z</time>
      </trkpt>
      <trkpt lat="59.9762399" lon="17.7404546">
        <ele>22.7283</ele>
        <time>2012-10-11T19:23:24Z</time>
      </trkpt>
      <trkpt lat="59.9762569" lon="17.7404098">
        <ele>23.209</ele>
        <time>2012-10-11T19:23:25Z</time>
      </trkpt>
      <trkpt lat="59.9762748" lon="17.7403665">
        <ele>23.209</ele>
        <time>2012-10-11T19:23:26Z</time>
      </trkpt>
      <trkpt lat="59.9762917" lon="17.7403179">
        <ele>23.6896</ele>
        <time>2012-10-11T19:23:27Z</time>
      </trkpt>
      <trkpt lat="59.9763082" lon="17.7402717">
        <ele>23.6896</ele>
        <time>2012-10-11T19:23:28Z</time>
      </trkpt>
      <trkpt lat="59.9763195" lon="17.7402246">
        <ele>24.1703</ele>
        <time>2012-10-11T19:23:29Z</time>
      </trkpt>
      <trkpt lat="59.9763278" lon="17.7401773">
        <ele>24.1703</ele>
        <time>2012-10-11T19:23:30Z</time>
      </trkpt>
      <trkpt lat="59.9763326" lon="17.7401303">
        <ele>23.209</ele>
        <time>2012-10-11T19:23:31Z</time>
      </trkpt>
      <trkpt lat="59.9763259" lon="17.740083">
        <ele>23.6896</ele>
        <time>2012-10-11T19:23:32Z</time>
      </trkpt>
      <trkpt lat="59.9763211" lon="17.740035">
        <ele>23.6896</ele>
        <time>2012-10-11T19:23:33Z</time>
      </trkpt>
      <trkpt lat="59.9763106" lon="17.7399828">
        <ele>23.6896</ele>
        <time>2012-10-11T19:23:34Z</time>
      </trkpt>
      <trkpt lat="59.9762899" lon="17.7399296">
        <ele>23.6896</ele>
        <time>2012-10-11T19:23:35Z</time>
      </trkpt>
      <trkpt lat="59.9762678" lon="17.7398863">
        <ele>23.209</ele>
        <time>2012-10-11T19:23:36Z</time>
      </trkpt>
      <trkpt lat="59.9762476" lon="17.7398511">
        <ele>23.209</ele>
        <time>2012-10-11T19:23:37Z</time>
      </trkpt>
      <trkpt lat="59.9762243" lon="17.7398139">
        <ele>23.6896</ele>
        <time>2012-10-11T19:23:38Z</time>
      </trkpt>
      <trkpt lat="59.9761952" lon="17.7397714">
        <ele>24.1703</ele>
        <time>2012-10-11T19:23:39Z</time>
      </trkpt>
      <trkpt lat="59.9761647" lon="17.739706">
        <ele>25.6123</ele>
        <time>2012-10-11T19:23:40Z</time>
      </trkpt>
      <trkpt lat="59.9761361" lon="17.7396449">
        <ele>26.0929</ele>
        <time>2012-10-11T19:23:41Z</time>
      </trkpt>
      <trkpt lat="59.9761041" lon="17.739589">
        <ele>27.0543</ele>
        <time>2012-10-11T19:23:42Z</time>
      </trkpt>
      <trkpt lat="59.9760765" lon="17.7395386">
        <ele>27.0543</ele>
        <time>2012-10-11T19:23:43Z</time>
      </trkpt>
      <trkpt lat="59.9760487" lon="17.7394927">
        <ele>28.0155</ele>
        <time>2012-10-11T19:23:44Z</time>
      </trkpt>
      <trkpt lat="59.9760274" lon="17.7394596">
        <ele>28.4962</ele>
        <time>2012-10-11T19:23:45Z</time>
      </trkpt>
      <trkpt lat="59.9760065" lon="17.7394201">
        <ele>28.9769</ele>
        <time>2012-10-11T19:23:46Z</time>
      </trkpt>
      <trkpt lat="59.975986" lon="17.7393893">
        <ele>29.4575</ele>
        <time>2012-10-11T19:23:47Z</time>
      </trkpt>
      <trkpt lat="59.9759677" lon="17.7393648">
        <ele>29.9381</ele>
        <time>2012-10-11T19:23:48Z</time>
      </trkpt>
      <trkpt lat="59.975946" lon="17.7393289">
        <ele>30.8995</ele>
        <time>2012-10-11T19:23:49Z</time>
      </trkpt>
      <trkpt lat="59.9759216" lon="17.7393031">
        <ele>31.8607</ele>
        <time>2012-10-11T19:23:50Z</time>
      </trkpt>
      <trkpt lat="59.9758932" lon="17.7392859">
        <ele>32.3416</ele>
        <time>2012-10-11T19:23:51Z</time>
      </trkpt>
      <trkpt lat="59.9758669" lon="17.7392612">
        <ele>32.3416</ele>
        <time>2012-10-11T19:23:52Z</time>
      </trkpt>
      <trkpt lat="59.9758423" lon="17.7392267">
        <ele>32.8223</ele>
        <time>2012-10-11T19:23:53Z</time>
      </trkpt>
      <trkpt lat="59.9758146" lon="17.7391937">
        <ele>33.3029</ele>
        <time>2012-10-11T19:23:54Z</time>
      </trkpt>
      <trkpt lat="59.9757877" lon="17.7391588">
        <ele>33.3029</ele>
        <time>2012-10-11T19:23:55Z</time>
      </trkpt>
      <trkpt lat="59.9757647" lon="17.7391202">
        <ele>33.7834</ele>
        <time>2012-10-11T19:23:56Z</time>
      </trkpt>
      <trkpt lat="59.9757423" lon="17.739079">
        <ele>33.7834</ele>
        <time>2012-10-11T19:23:57Z</time>
      </trkpt>
      <trkpt lat="59.9757173" lon="17.7390353">
        <ele>34.2642</ele>
        <time>2012-10-11T19:23:58Z</time>
      </trkpt>
      <trkpt lat="59.9756902" lon="17.7389886">
        <ele>34.2642</ele>
        <time>2012-10-11T19:23:59Z</time>
      </trkpt>
      <trkpt lat="59.9756641" lon="17.7389415">
        <ele>34.7449</ele>
        <time>2012-10-11T19:24:00Z</time>
      </trkpt>
      <trkpt lat="59.9756384" lon="17.7388885">
        <ele>34.7449</ele>
        <time>2012-10-11T19:24:01Z</time>
      </trkpt>
      <trkpt lat="59.9756167" lon="17.7388447">
        <ele>35.2255</ele>
        <time>2012-10-11T19:24:02Z</time>
      </trkpt>
      <trkpt lat="59.9755994" lon="17.7388078">
        <ele>35.2255</ele>
        <time>2012-10-11T19:24:03Z</time>
      </trkpt>
      <trkpt lat="59.97558" lon="17.7387719">
        <ele>35.7061</ele>
        <time>2012-10-11T19:24:04Z</time>
      </trkpt>
      <trkpt lat="59.9755623" lon="17.7387451">
        <ele>35.7061</ele>
        <time>2012-10-11T19:24:05Z</time>
      </trkpt>
      <trkpt lat="59.9755432" lon="17.7387185">
        <ele>35.7061</ele>
        <time>2012-10-11T19:24:06Z</time>
      </trkpt>
      <trkpt lat="59.9755198" lon="17.738683">
        <ele>36.1868</ele>
        <time>2012-10-11T19:24:07Z</time>
      </trkpt>
      <trkpt lat="59.975493" lon="17.7386393">
        <ele>36.1868</ele>
        <time>2012-10-11T19:24:08Z</time>
      </trkpt>
      <trkpt lat="59.9754689" lon="17.7386021">
        <ele>36.1868</ele>
        <time>2012-10-11T19:24:09Z</time>
      </trkpt>
      <trkpt lat="59.975452" lon="17.7385732">
        <ele>36.1868</ele>
        <time>2012-10-11T19:24:10Z</time>
      </trkpt>
      <trkpt lat="59.9754378" lon="17.7385473">
        <ele>36.6675</ele>
        <time>2012-10-11T19:24:11Z</time>
      </trkpt>
      <trkpt lat="59.9754173" lon="17.7385211">
        <ele>36.6675</ele>
        <time>2012-10-11T19:24:12Z</time>
      </trkpt>
      <trkpt lat="59.975395" lon="17.7384922">
        <ele>36.6675</ele>
        <time>2012-10-11T19:24:13Z</time>
      </trkpt>
      <trkpt lat="59.9753747" lon="17.7384647">
        <ele>36.6675</ele>
        <time>2012-10-11T19:24:14Z</time>
      </trkpt>
      <trkpt lat="59.975357" lon="17.7384374">
        <ele>37.1481</ele>
        <time>2012-10-11T19:24:15Z</time>
      </trkpt>
      <trkpt lat="59.9753381" lon="17.738399">
        <ele>37.1481</ele>
        <time>2012-10-11T19:24:16Z</time>
      </trkpt>
      <trkpt lat="59.9753177" lon="17.738355">
        <ele>37.1481</ele>
        <time>2012-10-11T19:24:17Z</time>
      </trkpt>
      <trkpt lat="59.9752971" lon="17.7383141">
        <ele>37.1481</ele>
        <time>2012-10-11T19:24:18Z</time>
      </trkpt>
      <trkpt lat="59.9752775" lon="17.7382704">
        <ele>37.1481</ele>
        <time>2012-10-11T19:24:19Z</time>
      </trkpt>
      <trkpt lat="59.9752562" lon="17.7382286">
        <ele>37.1481</ele>
        <time>2012-10-11T19:24:20Z</time>
      </trkpt>
      <trkpt lat="59.9752375" lon="17.7381948">
        <ele>36.6675</ele>
        <time>2012-10-11T19:24:21Z</time>
      </trkpt>
      <trkpt lat="59.9752178" lon="17.7381552">
        <ele>37.1481</ele>
        <time>2012-10-11T19:24:22Z</time>
      </trkpt>
      <trkpt lat="59.9751987" lon="17.7381194">
        <ele>37.1481</ele>
        <time>2012-10-11T19:24:23Z</time>
      </trkpt>
      <trkpt lat="59.975183" lon="17.7380888">
        <ele>37.1481</ele>
        <time>2012-10-11T19:24:24Z</time>
      </trkpt>
      <trkpt lat="59.9751711" lon="17.7380547">
        <ele>37.6287</ele>
        <time>2012-10-11T19:24:25Z</time>
      </trkpt>
      <trkpt lat="59.9751541" lon="17.7380199">
        <ele>37.6287</ele>
        <time>2012-10-11T19:24:26Z</time>
      </trkpt>
      <trkpt lat="59.9751329" lon="17.7379845">
        <ele>37.6287</ele>
        <time>2012-10-11T19:24:27Z</time>
      </trkpt>
      <trkpt lat="59.9751112" lon="17.7379444">
        <ele>37.1481</ele>
        <time>2012-10-11T19:24:28Z</time>
      </trkpt>
      <trkpt lat="59.9750873" lon="17.7379042">
        <ele>36.6675</ele>
        <time>2012-10-11T19:24:29Z</time>
      </trkpt>
      <trkpt lat="59.9750563" lon="17.737868">
        <ele>36.1868</ele>
        <time>2012-10-11T19:24:30Z</time>
      </trkpt>
      <trkpt lat="59.9750313" lon="17.7378319">
        <ele>36.6675</ele>
        <time>2012-10-11T19:24:31Z</time>
      </trkpt>
      <trkpt lat="59.9750126" lon="17.7377971">
        <ele>36.6675</ele>
        <time>2012-10-11T19:24:32Z</time>
      </trkpt>
      <trkpt lat="59.9749975" lon="17.7377556">
        <ele>36.6675</ele>
        <time>2012-10-11T19:24:33Z</time>
      </trkpt>
      <trkpt lat="59.9749826" lon="17.7377086">
        <ele>36.6675</ele>
        <time>2012-10-11T19:24:34Z</time>
      </trkpt>
      <trkpt lat="59.9749664" lon="17.7376724">
        <ele>36.6675</ele>
        <time>2012-10-11T19:24:35Z</time>
      </trkpt>
      <trkpt lat="59.9749503" lon="17.7376343">
        <ele>37.1481</ele>
        <time>2012-10-11T19:24:36Z</time>
      </trkpt>
      <trkpt lat="59.9749319" lon="17.7375921">
        <ele>36.6675</ele>
        <time>2012-10-11T19:24:37Z</time>
      </trkpt>
      <trkpt lat="59.9749121" lon="17.7375563">
        <ele>36.6675</ele>
        <time>2012-10-11T19:24:38Z</time>
      </trkpt>
      <trkpt lat="59.9748938" lon="17.7375199">
        <ele>37.1481</ele>
        <time>2012-10-11T19:24:39Z</time>
      </trkpt>
      <trkpt lat="59.9748758" lon="17.7374834">
        <ele>37.1481</ele>
        <time>2012-10-11T19:24:40Z</time>
      </trkpt>
      <trkpt lat="59.9748558" lon="17.737446">
        <ele>37.1481</ele>
        <time>2012-10-11T19:24:41Z</time>
      </trkpt>
      <trkpt lat="59.9748394" lon="17.7374097">
        <ele>37.1481</ele>
        <time>2012-10-11T19:24:42Z</time>
      </trkpt>
      <trkpt lat="59.9748236" lon="17.737374">
        <ele>37.6287</ele>
        <time>2012-10-11T19:24:43Z</time>
      </trkpt>
      <trkpt lat="59.9748066" lon="17.737337">
        <ele>38.1094</ele>
        <time>2012-10-11T19:24:44Z</time>
      </trkpt>
      <trkpt lat="59.9747902" lon="17.7372942">
        <ele>38.1094</ele>
        <time>2012-10-11T19:24:45Z</time>
      </trkpt>
      <trkpt lat="59.9747724" lon="17.7372558">
        <ele>38.5901</ele>
        <time>2012-10-11T19:24:46Z</time>
      </trkpt>
      <trkpt lat="59.9747553" lon="17.7372194">
        <ele>38.5901</ele>
        <time>2012-10-11T19:24:47Z</time>
      </trkpt>
      <trkpt lat="59.9747362" lon="17.7371757">
        <ele>38.5901</ele>
        <time>2012-10-11T19:24:48Z</time>
      </trkpt>
      <trkpt lat="59.9747204" lon="17.7371391">
        <ele>38.5901</ele>
        <time>2012-10-11T19:24:49Z</time>
      </trkpt>
      <trkpt lat="59.9747044" lon="17.7371005">
        <ele>38.5901</ele>
        <time>2012-10-11T19:24:50Z</time>
      </trkpt>
      <trkpt lat="59.9746887" lon="17.737057">
        <ele>39.0707</ele>
        <time>2012-10-11T19:24:51Z</time>
      </trkpt>
      <trkpt lat="59.9746806" lon="17.737022">
        <ele>39.0707</ele>
        <time>2012-10-11T19:24:52Z</time>
      </trkpt>
      <trkpt lat="59.9746666" lon="17.736972">
        <ele>39.0707</ele>
        <time>2012-10-11T19:24:53Z</time>
      </trkpt>
      <trkpt lat="59.9746577" lon="17.7369164">
        <ele>39.5513</ele>
        <time>2012-10-11T19:24:54Z</time>
      </trkpt>
      <trkpt lat="59.9746464" lon="17.7368678">
        <ele>39.5513</ele>
        <time>2012-10-11T19:24:55Z</time>
      </trkpt>
      <trkpt lat="59.9746345" lon="17.7368238">
        <ele>39.5513</ele>
        <time>2012-10-11T19:24:56Z</time>
      </trkpt>
      <trkpt lat="59.9746215" lon="17.7367835">
        <ele>40.0321</ele>
        <time>2012-10-11T19:24:57Z</time>
      </trkpt>
      <trkpt lat="59.9746066" lon="17.736739">
        <ele>40.0321</ele>
        <time>2012-10-11T19:24:58Z</time>
      </trkpt>
      <trkpt lat="59.9745968" lon="17.7366931">
        <ele>40.0321</ele>
        <time>2012-10-11T19:24:59Z</time>
      </trkpt>
      <trkpt lat="59.9745874" lon="17.736642">
        <ele>40.9934</ele>
        <time>2012-10-11T19:25:00Z</time>
      </trkpt>
      <trkpt lat="59.9745758" lon="17.7365855">
        <ele>41.474</ele>
        <time>2012-10-11T19:25:01Z</time>
      </trkpt>
      <trkpt lat="59.9745604" lon="17.736537">
        <ele>41.9547</ele>
        <time>2012-10-11T19:25:02Z</time>
      </trkpt>
      <trkpt lat="59.9745462" lon="17.7364909">
        <ele>41.9547</ele>
        <time>2012-10-11T19:25:03Z</time>
      </trkpt>
      <trkpt lat="59.9745362" lon="17.7364425">
        <ele>42.4354</ele>
        <time>2012-10-11T19:25:04Z</time>
      </trkpt>
      <trkpt lat="59.9745266" lon="17.736399">
        <ele>41.9547</ele>
        <time>2012-10-11T19:25:05Z</time>
      </trkpt>
      <trkpt lat="59.9745144" lon="17.7363504">
        <ele>42.4354</ele>
        <time>2012-10-11T19:25:06Z</time>
      </trkpt>
      <trkpt lat="59.9745035" lon="17.7362969">
        <ele>42.916</ele>
        <time>2012-10-11T19:25:07Z</time>
      </trkpt>
      <trkpt lat="59.9744905" lon="17.736246">
        <ele>42.916</ele>
        <time>2012-10-11T19:25:08Z</time>
      </trkpt>
      <trkpt lat="59.9744753" lon="17.7361898">
        <ele>43.3966</ele>
        <time>2012-10-11T19:25:09Z</time>
      </trkpt>
      <trkpt lat="59.9744637" lon="17.7361402">
        <ele>43.3966</ele>
        <time>2012-10-11T19:25:10Z</time>
      </trkpt>
      <trkpt lat="59.9744538" lon="17.7360917">
        <ele>43.8773</ele>
        <time>2012-10-11T19:25:11Z</time>
      </trkpt>
      <trkpt lat="59.9744438" lon="17.7360378">
        <ele>43.8773</ele>
        <time>2012-10-11T19:25:12Z</time>
      </trkpt>
      <trkpt lat="59.9744401" lon="17.7359883">
        <ele>44.358</ele>
        <time>2012-10-11T19:25:13Z</time>
      </trkpt>
      <trkpt lat="59.9744314" lon="17.7359358">
        <ele>44.358</ele>
        <time>2012-10-11T19:25:14Z</time>
      </trkpt>
      <trkpt lat="59.9744252" lon="17.7358909">
        <ele>44.358</ele>
        <time>2012-10-11T19:25:15Z</time>
      </trkpt>
      <trkpt lat="59.974419" lon="17.7358519">
        <ele>44.358</ele>
        <time>2012-10-11T19:25:16Z</time>
      </trkpt>
      <trkpt lat="59.9744092" lon="17.735807">
        <ele>44.358</ele>
        <time>2012-10-11T19:25:17Z</time>
      </trkpt>
      <trkpt lat="59.9744003" lon="17.7357582">
        <ele>44.358</ele>
        <time>2012-10-11T19:25:18Z</time>
      </trkpt>
      <trkpt lat="59.9743946" lon="17.7357179">
        <ele>43.8773</ele>
        <time>2012-10-11T19:25:19Z</time>
      </trkpt>
      <trkpt lat="59.9743874" lon="17.7356633">
        <ele>44.358</ele>
        <time>2012-10-11T19:25:20Z</time>
      </trkpt>
      <trkpt lat="59.9743853" lon="17.7356184">
        <ele>44.358</ele>
        <time>2012-10-11T19:25:21Z</time>
      </trkpt>
      <trkpt lat="59.9743865" lon="17.7355789">
        <ele>43.3966</ele>
        <time>2012-10-11T19:25:22Z</time>
      </trkpt>
      <trkpt lat="59.9743771" lon="17.7355185">
        <ele>43.3966</ele>
        <time>2012-10-11T19:25:23Z</time>
      </trkpt>
      <trkpt lat="59.9743684" lon="17.7354646">
        <ele>42.916</ele>
        <time>2012-10-11T19:25:24Z</time>
      </trkpt>
      <trkpt lat="59.9743622" lon="17.7354095">
        <ele>42.916</ele>
        <time>2012-10-11T19:25:25Z</time>
      </trkpt>
      <trkpt lat="59.9743499" lon="17.7353514">
        <ele>42.916</ele>
        <time>2012-10-11T19:25:26Z</time>
      </trkpt>
      <trkpt lat="59.9743434" lon="17.7352952">
        <ele>43.3966</ele>
        <time>2012-10-11T19:25:27Z</time>
      </trkpt>
      <trkpt lat="59.9743372" lon="17.7352445">
        <ele>42.4354</ele>
        <time>2012-10-11T19:25:28Z</time>
      </trkpt>
      <trkpt lat="59.9743274" lon="17.7351843">
        <ele>42.4354</ele>
        <time>2012-10-11T19:25:29Z</time>
      </trkpt>
      <trkpt lat="59.974321" lon="17.7351251">
        <ele>42.4354</ele>
        <time>2012-10-11T19:25:30Z</time>
      </trkpt>
      <trkpt lat="59.9743153" lon="17.7350707">
        <ele>42.4354</ele>
        <time>2012-10-11T19:25:31Z</time>
      </trkpt>
      <trkpt lat="59.9743092" lon="17.7350118">
        <ele>41.9547</ele>
        <time>2012-10-11T19:25:32Z</time>
      </trkpt>
      <trkpt lat="59.9743057" lon="17.7349621">
        <ele>41.474</ele>
        <time>2012-10-11T19:25:33Z</time>
      </trkpt>
      <trkpt lat="59.9743056" lon="17.7349185">
        <ele>40.9934</ele>
        <time>2012-10-11T19:25:34Z</time>
      </trkpt>
      <trkpt lat="59.9743047" lon="17.7348674">
        <ele>40.5128</ele>
        <time>2012-10-11T19:25:35Z</time>
      </trkpt>
      <trkpt lat="59.9742957" lon="17.7347979">
        <ele>40.5128</ele>
        <time>2012-10-11T19:25:36Z</time>
      </trkpt>
      <trkpt lat="59.9742894" lon="17.7347389">
        <ele>40.0321</ele>
        <time>2012-10-11T19:25:37Z</time>
      </trkpt>
      <trkpt lat="59.9742901" lon="17.7346907">
        <ele>39.5513</ele>
        <time>2012-10-11T19:25:38Z</time>
      </trkpt>
      <trkpt lat="59.9742924" lon="17.734644">
        <ele>39.0707</ele>
        <time>2012-10-11T19:25:39Z</time>
      </trkpt>
      <trkpt lat="59.9742893" lon="17.7345954">
        <ele>39.0707</ele>
        <time>2012-10-11T19:25:40Z</time>
      </trkpt>
      <trkpt lat="59.9742895" lon="17.7345525">
        <ele>38.5901</ele>
        <time>2012-10-11T19:25:41Z</time>
      </trkpt>
      <trkpt lat="59.9742921" lon="17.7345109">
        <ele>38.1094</ele>
        <time>2012-10-11T19:25:42Z</time>
      </trkpt>
      <trkpt lat="59.9742878" lon="17.7344574">
        <ele>38.1094</ele>
        <time>2012-10-11T19:25:43Z</time>
      </trkpt>
      <trkpt lat="59.9742896" lon="17.734412">
        <ele>38.1094</ele>
        <time>2012-10-11T19:25:44Z</time>
      </trkpt>
      <trkpt lat="59.9742895" lon="17.7343582">
        <ele>38.1094</ele>
        <time>2012-10-11T19:25:45Z</time>
      </trkpt>
      <trkpt lat="59.9742911" lon="17.7342938">
        <ele>39.0707</ele>
        <time>2012-10-11T19:25:46Z</time>
      </trkpt>
      <trkpt lat="59.974293" lon="17.734242">
        <ele>39.0707</ele>
        <time>2012-10-11T19:25:47Z</time>
      </trkpt>
      <trkpt lat="59.9742935" lon="17.7341854">
        <ele>39.5513</ele>
        <time>2012-10-11T19:25:48Z</time>
      </trkpt>
      <trkpt lat="59.9742974" lon="17.7341375">
        <ele>39.5513</ele>
        <time>2012-10-11T19:25:49Z</time>
      </trkpt>
      <trkpt lat="59.9742999" lon="17.7340852">
        <ele>40.0321</ele>
        <time>2012-10-11T19:25:50Z</time>
      </trkpt>
      <trkpt lat="59.9743024" lon="17.734025">
        <ele>40.0321</ele>
        <time>2012-10-11T19:25:51Z</time>
      </trkpt>
      <trkpt lat="59.9743067" lon="17.7339691">
        <ele>40.9934</ele>
        <time>2012-10-11T19:25:52Z</time>
      </trkpt>
      <trkpt lat="59.9743088" lon="17.7339106">
        <ele>40.9934</ele>
        <time>2012-10-11T19:25:53Z</time>
      </trkpt>
      <trkpt lat="59.9743128" lon="17.7338494">
        <ele>41.9547</ele>
        <time>2012-10-11T19:25:54Z</time>
      </trkpt>
      <trkpt lat="59.9743159" lon="17.7337967">
        <ele>41.9547</ele>
        <time>2012-10-11T19:25:55Z</time>
      </trkpt>
      <trkpt lat="59.9743202" lon="17.7337412">
        <ele>41.9547</ele>
        <time>2012-10-11T19:25:56Z</time>
      </trkpt>
      <trkpt lat="59.9743232" lon="17.7336856">
        <ele>41.9547</ele>
        <time>2012-10-11T19:25:57Z</time>
      </trkpt>
      <trkpt lat="59.9743247" lon="17.7336309">
        <ele>41.9547</ele>
        <time>2012-10-11T19:25:58Z</time>
      </trkpt>
      <trkpt lat="59.974329" lon="17.7335809">
        <ele>41.9547</ele>
        <time>2012-10-11T19:25:59Z</time>
      </trkpt>
      <trkpt lat="59.974333" lon="17.7335334">
        <ele>41.9547</ele>
        <time>2012-10-11T19:26:00Z</time>
      </trkpt>
      <trkpt lat="59.9743373" lon="17.7334856">
        <ele>41.9547</ele>
        <time>2012-10-11T19:26:01Z</time>
      </trkpt>
      <trkpt lat="59.9743414" lon="17.7334346">
        <ele>41.9547</ele>
        <time>2012-10-11T19:26:02Z</time>
      </trkpt>
      <trkpt lat="59.9743447" lon="17.7333801">
        <ele>41.9547</ele>
        <time>2012-10-11T19:26:03Z</time>
      </trkpt>
      <trkpt lat="59.9743474" lon="17.7333232">
        <ele>41.9547</ele>
        <time>2012-10-11T19:26:04Z</time>
      </trkpt>
      <trkpt lat="59.9743491" lon="17.7332646">
        <ele>41.9547</ele>
        <time>2012-10-11T19:26:05Z</time>
      </trkpt>
      <trkpt lat="59.974353" lon="17.7332123">
        <ele>41.474</ele>
        <time>2012-10-11T19:26:06Z</time>
      </trkpt>
      <trkpt lat="59.9743579" lon="17.7331637">
        <ele>41.9547</ele>
        <time>2012-10-11T19:26:07Z</time>
      </trkpt>
      <trkpt lat="59.9743635" lon="17.733117">
        <ele>41.9547</ele>
        <time>2012-10-11T19:26:08Z</time>
      </trkpt>
      <trkpt lat="59.9743667" lon="17.733074">
        <ele>41.9547</ele>
        <time>2012-10-11T19:26:09Z</time>
      </trkpt>
      <trkpt lat="59.9743662" lon="17.7330279">
        <ele>41.9547</ele>
        <time>2012-10-11T19:26:10Z</time>
      </trkpt>
      <trkpt lat="59.9743676" lon="17.7329797">
        <ele>41.9547</ele>
        <time>2012-10-11T19:26:11Z</time>
      </trkpt>
      <trkpt lat="59.9743703" lon="17.7329313">
        <ele>42.4354</ele>
        <time>2012-10-11T19:26:12Z</time>
      </trkpt>
      <trkpt lat="59.9743729" lon="17.7328798">
        <ele>42.4354</ele>
        <time>2012-10-11T19:26:13Z</time>
      </trkpt>
      <trkpt lat="59.9743732" lon="17.7328262">
        <ele>42.4354</ele>
        <time>2012-10-11T19:26:14Z</time>
      </trkpt>
      <trkpt lat="59.9743732" lon="17.7327698">
        <ele>42.916</ele>
        <time>2012-10-11T19:26:15Z</time>
      </trkpt>
      <trkpt lat="59.9743751" lon="17.7327202">
        <ele>42.916</ele>
        <time>2012-10-11T19:26:16Z</time>
      </trkpt>
      <trkpt lat="59.9743767" lon="17.7326704">
        <ele>42.916</ele>
        <time>2012-10-11T19:26:17Z</time>
      </trkpt>
      <trkpt lat="59.9743767" lon="17.732615">
        <ele>42.916</ele>
        <time>2012-10-11T19:26:18Z</time>
      </trkpt>
      <trkpt lat="59.9743755" lon="17.7325615">
        <ele>42.4354</ele>
        <time>2012-10-11T19:26:19Z</time>
      </trkpt>
      <trkpt lat="59.9743714" lon="17.732503">
        <ele>42.4354</ele>
        <time>2012-10-11T19:26:20Z</time>
      </trkpt>
      <trkpt lat="59.9743665" lon="17.7324461">
        <ele>42.4354</ele>
        <time>2012-10-11T19:26:21Z</time>
      </trkpt>
      <trkpt lat="59.9743608" lon="17.7323891">
        <ele>42.916</ele>
        <time>2012-10-11T19:26:22Z</time>
      </trkpt>
      <trkpt lat="59.9743549" lon="17.7323234">
        <ele>42.916</ele>
        <time>2012-10-11T19:26:23Z</time>
      </trkpt>
      <trkpt lat="59.9743508" lon="17.7322642">
        <ele>42.916</ele>
        <time>2012-10-11T19:26:24Z</time>
      </trkpt>
      <trkpt lat="59.9743468" lon="17.7322095">
        <ele>42.916</ele>
        <time>2012-10-11T19:26:25Z</time>
      </trkpt>
      <trkpt lat="59.9743455" lon="17.7321559">
        <ele>42.916</ele>
        <time>2012-10-11T19:26:26Z</time>
      </trkpt>
      <trkpt lat="59.9743439" lon="17.7321074">
        <ele>42.916</ele>
        <time>2012-10-11T19:26:27Z</time>
      </trkpt>
      <trkpt lat="59.9743413" lon="17.7320566">
        <ele>43.3966</ele>
        <time>2012-10-11T19:26:28Z</time>
      </trkpt>
      <trkpt lat="59.9743433" lon="17.7320126">
        <ele>43.3966</ele>
        <time>2012-10-11T19:26:29Z</time>
      </trkpt>
      <trkpt lat="59.9743397" lon="17.7319612">
        <ele>43.3966</ele>
        <time>2012-10-11T19:26:30Z</time>
      </trkpt>
      <trkpt lat="59.974335" lon="17.731906">
        <ele>43.3966</ele>
        <time>2012-10-11T19:26:31Z</time>
      </trkpt>
      <trkpt lat="59.9743326" lon="17.7318464">
        <ele>43.8773</ele>
        <time>2012-10-11T19:26:32Z</time>
      </trkpt>
      <trkpt lat="59.9743272" lon="17.73178">
        <ele>44.8386</ele>
        <time>2012-10-11T19:26:33Z</time>
      </trkpt>
      <trkpt lat="59.9743241" lon="17.731721">
        <ele>44.8386</ele>
        <time>2012-10-11T19:26:34Z</time>
      </trkpt>
      <trkpt lat="59.9743273" lon="17.7316749">
        <ele>44.8386</ele>
        <time>2012-10-11T19:26:35Z</time>
      </trkpt>
      <trkpt lat="59.9743318" lon="17.7316347">
        <ele>44.8386</ele>
        <time>2012-10-11T19:26:36Z</time>
      </trkpt>
      <trkpt lat="59.974333" lon="17.7315905">
        <ele>44.358</ele>
        <time>2012-10-11T19:26:37Z</time>
      </trkpt>
      <trkpt lat="59.9743372" lon="17.7315438">
        <ele>43.8773</ele>
        <time>2012-10-11T19:26:38Z</time>
      </trkpt>
      <trkpt lat="59.9743439" lon="17.7315031">
        <ele>43.3966</ele>
        <time>2012-10-11T19:26:39Z</time>
      </trkpt>
      <trkpt lat="59.974345" lon="17.7314563">
        <ele>42.916</ele>
        <time>2012-10-11T19:26:40Z</time>
      </trkpt>
      <trkpt lat="59.974345" lon="17.731408">
        <ele>42.4354</ele>
        <time>2012-10-11T19:26:41Z</time>
      </trkpt>
      <trkpt lat="59.9743475" lon="17.7313604">
        <ele>41.474</ele>
        <time>2012-10-11T19:26:42Z</time>
      </trkpt>
      <trkpt lat="59.9743496" lon="17.7313136">
        <ele>41.474</ele>
        <time>2012-10-11T19:26:43Z</time>
      </trkpt>
      <trkpt lat="59.9743491" lon="17.7312569">
        <ele>41.474</ele>
        <time>2012-10-11T19:26:44Z</time>
      </trkpt>
      <trkpt lat="59.9743532" lon="17.7312068">
        <ele>41.474</ele>
        <time>2012-10-11T19:26:45Z</time>
      </trkpt>
      <trkpt lat="59.9743565" lon="17.7311621">
        <ele>40.9934</ele>
        <time>2012-10-11T19:26:46Z</time>
      </trkpt>
      <trkpt lat="59.9743573" lon="17.7311045">
        <ele>41.474</ele>
        <time>2012-10-11T19:26:47Z</time>
      </trkpt>
      <trkpt lat="59.9743625" lon="17.7310599">
        <ele>40.9934</ele>
        <time>2012-10-11T19:26:48Z</time>
      </trkpt>
      <trkpt lat="59.9743649" lon="17.7310108">
        <ele>40.9934</ele>
        <time>2012-10-11T19:26:49Z</time>
      </trkpt>
      <trkpt lat="59.9743679" lon="17.7309567">
        <ele>40.9934</ele>
        <time>2012-10-11T19:26:50Z</time>
      </trkpt>
      <trkpt lat="59.9743734" lon="17.7309111">
        <ele>40.5128</ele>
        <time>2012-10-11T19:26:51Z</time>
      </trkpt>
      <trkpt lat="59.9743772" lon="17.7308662">
        <ele>40.0321</ele>
        <time>2012-10-11T19:26:52Z</time>
      </trkpt>
      <trkpt lat="59.9743824" lon="17.7308216">
        <ele>39.5513</ele>
        <time>2012-10-11T19:26:53Z</time>
      </trkpt>
      <trkpt lat="59.9743889" lon="17.7307811">
        <ele>39.0707</ele>
        <time>2012-10-11T19:26:54Z</time>
      </trkpt>
      <trkpt lat="59.9743932" lon="17.7307345">
        <ele>38.5901</ele>
        <time>2012-10-11T19:26:55Z</time>
      </trkpt>
      <trkpt lat="59.9744007" lon="17.7306936">
        <ele>38.1094</ele>
        <time>2012-10-11T19:26:56Z</time>
      </trkpt>
      <trkpt lat="59.9744082" lon="17.7306583">
        <ele>37.6287</ele>
        <time>2012-10-11T19:26:57Z</time>
      </trkpt>
      <trkpt lat="59.9744147" lon="17.7306173">
        <ele>36.6675</ele>
        <time>2012-10-11T19:26:58Z</time>
      </trkpt>
      <trkpt lat="59.9744211" lon="17.7305689">
        <ele>36.1868</ele>
        <time>2012-10-11T19:26:59Z</time>
      </trkpt>
      <trkpt lat="59.9744266" lon="17.7305243">
        <ele>35.7061</ele>
        <time>2012-10-11T19:27:00Z</time>
      </trkpt>
      <trkpt lat="59.9744315" lon="17.7304801">
        <ele>35.7061</ele>
        <time>2012-10-11T19:27:01Z</time>
      </trkpt>
      <trkpt lat="59.9744372" lon="17.7304376">
        <ele>35.2255</ele>
        <time>2012-10-11T19:27:02Z</time>
      </trkpt>
      <trkpt lat="59.9744397" lon="17.7303916">
        <ele>35.2255</ele>
        <time>2012-10-11T19:27:03Z</time>
      </trkpt>
      <trkpt lat="59.9744443" lon="17.7303452">
        <ele>35.7061</ele>
        <time>2012-10-11T19:27:04Z</time>
      </trkpt>
      <trkpt lat="59.9744507" lon="17.7302978">
        <ele>35.2255</ele>
        <time>2012-10-11T19:27:05Z</time>
      </trkpt>
      <trkpt lat="59.9744553" lon="17.730248">
        <ele>35.2255</ele>
        <time>2012-10-11T19:27:06Z</time>
      </trkpt>
      <trkpt lat="59.9744589" lon="17.7301945">
        <ele>35.2255</ele>
        <time>2012-10-11T19:27:07Z</time>
      </trkpt>
      <trkpt lat="59.974461" lon="17.7301435">
        <ele>35.2255</ele>
        <time>2012-10-11T19:27:08Z</time>
      </trkpt>
      <trkpt lat="59.9744631" lon="17.7300974">
        <ele>35.2255</ele>
        <time>2012-10-11T19:27:09Z</time>
      </trkpt>
      <trkpt lat="59.9744677" lon="17.7300481">
        <ele>35.2255</ele>
        <time>2012-10-11T19:27:10Z</time>
      </trkpt>
      <trkpt lat="59.9744745" lon="17.7300087">
        <ele>35.2255</ele>
        <time>2012-10-11T19:27:11Z</time>
      </trkpt>
      <trkpt lat="59.9744787" lon="17.7299643">
        <ele>35.2255</ele>
        <time>2012-10-11T19:27:12Z</time>
      </trkpt>
      <trkpt lat="59.9744828" lon="17.7299187">
        <ele>35.2255</ele>
        <time>2012-10-11T19:27:13Z</time>
      </trkpt>
      <trkpt lat="59.9744851" lon="17.7298706">
        <ele>35.2255</ele>
        <time>2012-10-11T19:27:14Z</time>
      </trkpt>
      <trkpt lat="59.9744869" lon="17.7298161">
        <ele>35.2255</ele>
        <time>2012-10-11T19:27:15Z</time>
      </trkpt>
      <trkpt lat="59.9744922" lon="17.7297647">
        <ele>35.2255</ele>
        <time>2012-10-11T19:27:16Z</time>
      </trkpt>
      <trkpt lat="59.9744957" lon="17.7297055">
        <ele>35.7061</ele>
        <time>2012-10-11T19:27:17Z</time>
      </trkpt>
      <trkpt lat="59.9745003" lon="17.7296467">
        <ele>35.7061</ele>
        <time>2012-10-11T19:27:18Z</time>
      </trkpt>
      <trkpt lat="59.974505" lon="17.7295905">
        <ele>35.2255</ele>
        <time>2012-10-11T19:27:19Z</time>
      </trkpt>
      <trkpt lat="59.9745088" lon="17.7295339">
        <ele>35.2255</ele>
        <time>2012-10-11T19:27:20Z</time>
      </trkpt>
      <trkpt lat="59.9745143" lon="17.729476">
        <ele>35.2255</ele>
        <time>2012-10-11T19:27:21Z</time>
      </trkpt>
      <trkpt lat="59.9745212" lon="17.7294313">
        <ele>35.2255</ele>
        <time>2012-10-11T19:27:22Z</time>
      </trkpt>
      <trkpt lat="59.9745356" lon="17.7294233">
        <ele>34.7449</ele>
        <time>2012-10-11T19:27:23Z</time>
      </trkpt>
      <trkpt lat="59.9745447" lon="17.7294448">
        <ele>34.2642</ele>
        <time>2012-10-11T19:27:24Z</time>
      </trkpt>
      <trkpt lat="59.9745459" lon="17.729486">
        <ele>33.7834</ele>
        <time>2012-10-11T19:27:25Z</time>
      </trkpt>
      <trkpt lat="59.9745427" lon="17.7295337">
        <ele>33.7834</ele>
        <time>2012-10-11T19:27:26Z</time>
      </trkpt>
      <trkpt lat="59.9745397" lon="17.7295857">
        <ele>33.7834</ele>
        <time>2012-10-11T19:27:27Z</time>
      </trkpt>
      <trkpt lat="59.9745398" lon="17.7296423">
        <ele>33.7834</ele>
        <time>2012-10-11T19:27:28Z</time>
      </trkpt>
      <trkpt lat="59.9745412" lon="17.7296994">
        <ele>34.2642</ele>
        <time>2012-10-11T19:27:29Z</time>
      </trkpt>
      <trkpt lat="59.9745412" lon="17.7297592">
        <ele>34.2642</ele>
        <time>2012-10-11T19:27:30Z</time>
      </trkpt>
      <trkpt lat="59.9745357" lon="17.7298196">
        <ele>34.2642</ele>
        <time>2012-10-11T19:27:31Z</time>
      </trkpt>
      <trkpt lat="59.9745315" lon="17.7298752">
        <ele>34.2642</ele>
        <time>2012-10-11T19:27:32Z</time>
      </trkpt>
      <trkpt lat="59.9745252" lon="17.7299338">
        <ele>34.2642</ele>
        <time>2012-10-11T19:27:33Z</time>
      </trkpt>
      <trkpt lat="59.9745149" lon="17.729987">
        <ele>34.2642</ele>
        <time>2012-10-11T19:27:34Z</time>
      </trkpt>
      <trkpt lat="59.9745093" lon="17.7300437">
        <ele>34.2642</ele>
        <time>2012-10-11T19:27:35Z</time>
      </trkpt>
      <trkpt lat="59.9745055" lon="17.7301036">
        <ele>34.2642</ele>
        <time>2012-10-11T19:27:36Z</time>
      </trkpt>
      <trkpt lat="59.9745004" lon="17.7301602">
        <ele>34.7449</ele>
        <time>2012-10-11T19:27:37Z</time>
      </trkpt>
      <trkpt lat="59.9744945" lon="17.7302227">
        <ele>34.7449</ele>
        <time>2012-10-11T19:27:38Z</time>
      </trkpt>
      <trkpt lat="59.9744851" lon="17.7302894">
        <ele>35.2255</ele>
        <time>2012-10-11T19:27:39Z</time>
      </trkpt>
      <trkpt lat="59.9744774" lon="17.7303522">
        <ele>35.2255</ele>
        <time>2012-10-11T19:27:40Z</time>
      </trkpt>
      <trkpt lat="59.9744718" lon="17.7304141">
        <ele>34.7449</ele>
        <time>2012-10-11T19:27:41Z</time>
      </trkpt>
      <trkpt lat="59.9744625" lon="17.7304776">
        <ele>34.7449</ele>
        <time>2012-10-11T19:27:42Z</time>
      </trkpt>
      <trkpt lat="59.9744526" lon="17.7305456">
        <ele>34.7449</ele>
        <time>2012-10-11T19:27:43Z</time>
      </trkpt>
      <trkpt lat="59.9744459" lon="17.7306058">
        <ele>34.2642</ele>
        <time>2012-10-11T19:27:44Z</time>
      </trkpt>
      <trkpt lat="59.9744453" lon="17.7306604">
        <ele>33.7834</ele>
        <time>2012-10-11T19:27:45Z</time>
      </trkpt>
      <trkpt lat="59.9744443" lon="17.730713">
        <ele>33.7834</ele>
        <time>2012-10-11T19:27:46Z</time>
      </trkpt>
      <trkpt lat="59.9744397" lon="17.7307676">
        <ele>33.3029</ele>
        <time>2012-10-11T19:27:47Z</time>
      </trkpt>
      <trkpt lat="59.974436" lon="17.7308175">
        <ele>33.3029</ele>
        <time>2012-10-11T19:27:48Z</time>
      </trkpt>
      <trkpt lat="59.9744321" lon="17.7308689">
        <ele>33.3029</ele>
        <time>2012-10-11T19:27:49Z</time>
      </trkpt>
      <trkpt lat="59.9744267" lon="17.7309237">
        <ele>33.3029</ele>
        <time>2012-10-11T19:27:50Z</time>
      </trkpt>
      <trkpt lat="59.9744233" lon="17.730977">
        <ele>33.3029</ele>
        <time>2012-10-11T19:27:51Z</time>
      </trkpt>
      <trkpt lat="59.9744189" lon="17.7310347">
        <ele>33.3029</ele>
        <time>2012-10-11T19:27:52Z</time>
      </trkpt>
      <trkpt lat="59.9744144" lon="17.7310925">
        <ele>32.8223</ele>
        <time>2012-10-11T19:27:53Z</time>
      </trkpt>
      <trkpt lat="59.9744112" lon="17.7311481">
        <ele>32.8223</ele>
        <time>2012-10-11T19:27:54Z</time>
      </trkpt>
      <trkpt lat="59.9744066" lon="17.731207">
        <ele>32.8223</ele>
        <time>2012-10-11T19:27:55Z</time>
      </trkpt>
      <trkpt lat="59.9744028" lon="17.7312608">
        <ele>32.8223</ele>
        <time>2012-10-11T19:27:56Z</time>
      </trkpt>
      <trkpt lat="59.9744002" lon="17.7313148">
        <ele>32.3416</ele>
        <time>2012-10-11T19:27:57Z</time>
      </trkpt>
      <trkpt lat="59.9743915" lon="17.7313748">
        <ele>31.8607</ele>
        <time>2012-10-11T19:27:58Z</time>
      </trkpt>
      <trkpt lat="59.9743817" lon="17.7314315">
        <ele>31.8607</ele>
        <time>2012-10-11T19:27:59Z</time>
      </trkpt>
      <trkpt lat="59.9743763" lon="17.731482">
        <ele>31.3801</ele>
        <time>2012-10-11T19:28:00Z</time>
      </trkpt>
      <trkpt lat="59.9743725" lon="17.7315322">
        <ele>31.3801</ele>
        <time>2012-10-11T19:28:01Z</time>
      </trkpt>
      <trkpt lat="59.9743719" lon="17.7315789">
        <ele>30.8995</ele>
        <time>2012-10-11T19:28:02Z</time>
      </trkpt>
      <trkpt lat="59.974373" lon="17.7316267">
        <ele>30.4188</ele>
        <time>2012-10-11T19:28:03Z</time>
      </trkpt>
      <trkpt lat="59.9743686" lon="17.7316837">
        <ele>29.9381</ele>
        <time>2012-10-11T19:28:04Z</time>
      </trkpt>
      <trkpt lat="59.9743615" lon="17.7317446">
        <ele>29.4575</ele>
        <time>2012-10-11T19:28:05Z</time>
      </trkpt>
      <trkpt lat="59.9743569" lon="17.7317981">
        <ele>28.9769</ele>
        <time>2012-10-11T19:28:06Z</time>
      </trkpt>
      <trkpt lat="59.9743531" lon="17.7318472">
        <ele>28.0155</ele>
        <time>2012-10-11T19:28:07Z</time>
      </trkpt>
      <trkpt lat="59.9743527" lon="17.7318933">
        <ele>27.5349</ele>
        <time>2012-10-11T19:28:08Z</time>
      </trkpt>
      <trkpt lat="59.9743543" lon="17.731938">
        <ele>27.5349</ele>
        <time>2012-10-11T19:28:09Z</time>
      </trkpt>
      <trkpt lat="59.9743574" lon="17.7319816">
        <ele>27.0543</ele>
        <time>2012-10-11T19:28:10Z</time>
      </trkpt>
      <trkpt lat="59.974361" lon="17.732026">
        <ele>26.5736</ele>
        <time>2012-10-11T19:28:11Z</time>
      </trkpt>
      <trkpt lat="59.9743603" lon="17.732073">
        <ele>26.0929</ele>
        <time>2012-10-11T19:28:12Z</time>
      </trkpt>
      <trkpt lat="59.9743609" lon="17.7321185">
        <ele>25.6123</ele>
        <time>2012-10-11T19:28:13Z</time>
      </trkpt>
      <trkpt lat="59.9743621" lon="17.7321684">
        <ele>25.6123</ele>
        <time>2012-10-11T19:28:14Z</time>
      </trkpt>
      <trkpt lat="59.9743593" lon="17.7322216">
        <ele>25.1317</ele>
        <time>2012-10-11T19:28:15Z</time>
      </trkpt>
      <trkpt lat="59.9743575" lon="17.7322703">
        <ele>25.1317</ele>
        <time>2012-10-11T19:28:16Z</time>
      </trkpt>
      <trkpt lat="59.974361" lon="17.7323114">
        <ele>24.651</ele>
        <time>2012-10-11T19:28:17Z</time>
      </trkpt>
      <trkpt lat="59.9743621" lon="17.7323529">
        <ele>24.1703</ele>
        <time>2012-10-11T19:28:18Z</time>
      </trkpt>
      <trkpt lat="59.9743625" lon="17.7324012">
        <ele>24.651</ele>
        <time>2012-10-11T19:28:19Z</time>
      </trkpt>
      <trkpt lat="59.9743647" lon="17.7324516">
        <ele>24.651</ele>
        <time>2012-10-11T19:28:20Z</time>
      </trkpt>
      <trkpt lat="59.9743683" lon="17.7325456">
        <ele>23.6896</ele>
        <time>2012-10-11T19:28:22Z</time>
      </trkpt>
      <trkpt lat="59.9743678" lon="17.7325941">
        <ele>23.209</ele>
        <time>2012-10-11T19:28:23Z</time>
      </trkpt>
      <trkpt lat="59.9743692" lon="17.7326394">
        <ele>23.209</ele>
        <time>2012-10-11T19:28:24Z</time>
      </trkpt>
      <trkpt lat="59.9743709" lon="17.7326874">
        <ele>23.209</ele>
        <time>2012-10-11T19:28:25Z</time>
      </trkpt>
      <trkpt lat="59.9743723" lon="17.7327384">
        <ele>22.7283</ele>
        <time>2012-10-11T19:28:26Z</time>
      </trkpt>
      <trkpt lat="59.974374" lon="17.732785">
        <ele>22.7283</ele>
        <time>2012-10-11T19:28:27Z</time>
      </trkpt>
      <trkpt lat="59.9743758" lon="17.732833">
        <ele>22.2476</ele>
        <time>2012-10-11T19:28:28Z</time>
      </trkpt>
      <trkpt lat="59.9743738" lon="17.7328845">
        <ele>21.767</ele>
        <time>2012-10-11T19:28:29Z</time>
      </trkpt>
      <trkpt lat="59.9743713" lon="17.7329283">
        <ele>21.767</ele>
        <time>2012-10-11T19:28:30Z</time>
      </trkpt>
      <trkpt lat="59.9743689" lon="17.7329797">
        <ele>21.767</ele>
        <time>2012-10-11T19:28:31Z</time>
      </trkpt>
      <trkpt lat="59.9743665" lon="17.7330388">
        <ele>21.2864</ele>
        <time>2012-10-11T19:28:32Z</time>
      </trkpt>
      <trkpt lat="59.9743646" lon="17.7330908">
        <ele>20.8057</ele>
        <time>2012-10-11T19:28:33Z</time>
      </trkpt>
      <trkpt lat="59.9743626" lon="17.7331407">
        <ele>20.8057</ele>
        <time>2012-10-11T19:28:34Z</time>
      </trkpt>
      <trkpt lat="59.9743594" lon="17.7331968">
        <ele>20.325</ele>
        <time>2012-10-11T19:28:35Z</time>
      </trkpt>
      <trkpt lat="59.974357" lon="17.7332491">
        <ele>20.325</ele>
        <time>2012-10-11T19:28:36Z</time>
      </trkpt>
      <trkpt lat="59.9743565" lon="17.7332945">
        <ele>19.8444</ele>
        <time>2012-10-11T19:28:37Z</time>
      </trkpt>
      <trkpt lat="59.9743562" lon="17.7333428">
        <ele>19.8444</ele>
        <time>2012-10-11T19:28:38Z</time>
      </trkpt>
      <trkpt lat="59.9743544" lon="17.7333909">
        <ele>19.8444</ele>
        <time>2012-10-11T19:28:39Z</time>
      </trkpt>
      <trkpt lat="59.9743512" lon="17.7334428">
        <ele>19.3638</ele>
        <time>2012-10-11T19:28:40Z</time>
      </trkpt>
      <trkpt lat="59.9743489" lon="17.7334919">
        <ele>19.3638</ele>
        <time>2012-10-11T19:28:41Z</time>
      </trkpt>
      <trkpt lat="59.9743486" lon="17.7335403">
        <ele>19.3638</ele>
        <time>2012-10-11T19:28:42Z</time>
      </trkpt>
      <trkpt lat="59.9743429" lon="17.7335924">
        <ele>19.3638</ele>
        <time>2012-10-11T19:28:43Z</time>
      </trkpt>
      <trkpt lat="59.9743381" lon="17.7336426">
        <ele>18.8831</ele>
        <time>2012-10-11T19:28:44Z</time>
      </trkpt>
      <trkpt lat="59.9743334" lon="17.733696">
        <ele>18.4023</ele>
        <time>2012-10-11T19:28:45Z</time>
      </trkpt>
      <trkpt lat="59.9743237" lon="17.7337537">
        <ele>18.4023</ele>
        <time>2012-10-11T19:28:46Z</time>
      </trkpt>
      <trkpt lat="59.9743139" lon="17.7338059">
        <ele>18.4023</ele>
        <time>2012-10-11T19:28:47Z</time>
      </trkpt>
      <trkpt lat="59.9743066" lon="17.7338525">
        <ele>17.9218</ele>
        <time>2012-10-11T19:28:48Z</time>
      </trkpt>
      <trkpt lat="59.9743023" lon="17.733897">
        <ele>16.9604</ele>
        <time>2012-10-11T19:28:49Z</time>
      </trkpt>
      <trkpt lat="59.9742989" lon="17.7339442">
        <ele>16.9604</ele>
        <time>2012-10-11T19:28:50Z</time>
      </trkpt>
      <trkpt lat="59.9742953" lon="17.7339939">
        <ele>16.4797</ele>
        <time>2012-10-11T19:28:51Z</time>
      </trkpt>
      <trkpt lat="59.9742948" lon="17.7340429">
        <ele>15.999</ele>
        <time>2012-10-11T19:28:52Z</time>
      </trkpt>
      <trkpt lat="59.9742919" lon="17.7340908">
        <ele>15.0377</ele>
        <time>2012-10-11T19:28:53Z</time>
      </trkpt>
      <trkpt lat="59.9742859" lon="17.7341333">
        <ele>14.557</ele>
        <time>2012-10-11T19:28:54Z</time>
      </trkpt>
      <trkpt lat="59.9742841" lon="17.7341764">
        <ele>14.0764</ele>
        <time>2012-10-11T19:28:55Z</time>
      </trkpt>
      <trkpt lat="59.9742802" lon="17.734224">
        <ele>13.5958</ele>
        <time>2012-10-11T19:28:56Z</time>
      </trkpt>
      <trkpt lat="59.9742792" lon="17.7342771">
        <ele>13.5958</ele>
        <time>2012-10-11T19:28:57Z</time>
      </trkpt>
      <trkpt lat="59.9742785" lon="17.7343244">
        <ele>13.1151</ele>
        <time>2012-10-11T19:28:58Z</time>
      </trkpt>
      <trkpt lat="59.9742746" lon="17.7343701">
        <ele>12.6344</ele>
        <time>2012-10-11T19:28:59Z</time>
      </trkpt>
      <trkpt lat="59.9742713" lon="17.7344183">
        <ele>12.1538</ele>
        <time>2012-10-11T19:29:00Z</time>
      </trkpt>
      <trkpt lat="59.9742777" lon="17.7344641">
        <ele>12.1538</ele>
        <time>2012-10-11T19:29:01Z</time>
      </trkpt>
      <trkpt lat="59.9742874" lon="17.7345099">
        <ele>12.6344</ele>
        <time>2012-10-11T19:29:02Z</time>
      </trkpt>
      <trkpt lat="59.9742931" lon="17.7345582">
        <ele>12.6344</ele>
        <time>2012-10-11T19:29:03Z</time>
      </trkpt>
      <trkpt lat="59.9742981" lon="17.7346026">
        <ele>12.6344</ele>
        <time>2012-10-11T19:29:04Z</time>
      </trkpt>
      <trkpt lat="59.9743013" lon="17.734653">
        <ele>13.1151</ele>
        <time>2012-10-11T19:29:05Z</time>
      </trkpt>
      <trkpt lat="59.9742995" lon="17.7347104">
        <ele>13.1151</ele>
        <time>2012-10-11T19:29:06Z</time>
      </trkpt>
      <trkpt lat="59.9742973" lon="17.7347637">
        <ele>13.1151</ele>
        <time>2012-10-11T19:29:07Z</time>
      </trkpt>
      <trkpt lat="59.9743013" lon="17.7348081">
        <ele>13.1151</ele>
        <time>2012-10-11T19:29:08Z</time>
      </trkpt>
      <trkpt lat="59.9743112" lon="17.7348514">
        <ele>13.5958</ele>
        <time>2012-10-11T19:29:09Z</time>
      </trkpt>
      <trkpt lat="59.9743191" lon="17.7349021">
        <ele>14.0764</ele>
        <time>2012-10-11T19:29:10Z</time>
      </trkpt>
      <trkpt lat="59.9743221" lon="17.7349611">
        <ele>14.557</ele>
        <time>2012-10-11T19:29:11Z</time>
      </trkpt>
      <trkpt lat="59.9743227" lon="17.7350158">
        <ele>15.0377</ele>
        <time>2012-10-11T19:29:12Z</time>
      </trkpt>
      <trkpt lat="59.9743284" lon="17.7350708">
        <ele>15.5184</ele>
        <time>2012-10-11T19:29:13Z</time>
      </trkpt>
      <trkpt lat="59.9743372" lon="17.7351253">
        <ele>15.999</ele>
        <time>2012-10-11T19:29:14Z</time>
      </trkpt>
      <trkpt lat="59.9743434" lon="17.73518">
        <ele>15.999</ele>
        <time>2012-10-11T19:29:15Z</time>
      </trkpt>
      <trkpt lat="59.9743502" lon="17.7352356">
        <ele>16.4797</ele>
        <time>2012-10-11T19:29:16Z</time>
      </trkpt>
      <trkpt lat="59.9743558" lon="17.7352915">
        <ele>16.4797</ele>
        <time>2012-10-11T19:29:17Z</time>
      </trkpt>
      <trkpt lat="59.9743565" lon="17.7353494">
        <ele>16.4797</ele>
        <time>2012-10-11T19:29:18Z</time>
      </trkpt>
      <trkpt lat="59.9743567" lon="17.7354069">
        <ele>16.9604</ele>
        <time>2012-10-11T19:29:19Z</time>
      </trkpt>
      <trkpt lat="59.9743608" lon="17.7354634">
        <ele>17.4412</ele>
        <time>2012-10-11T19:29:20Z</time>
      </trkpt>
      <trkpt lat="59.9743672" lon="17.735521">
        <ele>17.9218</ele>
        <time>2012-10-11T19:29:21Z</time>
      </trkpt>
      <trkpt lat="59.9743727" lon="17.7355749">
        <ele>18.4023</ele>
        <time>2012-10-11T19:29:22Z</time>
      </trkpt>
      <trkpt lat="59.9743786" lon="17.7356298">
        <ele>18.4023</ele>
        <time>2012-10-11T19:29:23Z</time>
      </trkpt>
      <trkpt lat="59.9743904" lon="17.7356881">
        <ele>18.4023</ele>
        <time>2012-10-11T19:29:24Z</time>
      </trkpt>
      <trkpt lat="59.9744038" lon="17.7357402">
        <ele>18.8831</ele>
        <time>2012-10-11T19:29:25Z</time>
      </trkpt>
      <trkpt lat="59.9744157" lon="17.735795">
        <ele>19.3638</ele>
        <time>2012-10-11T19:29:26Z</time>
      </trkpt>
      <trkpt lat="59.9744254" lon="17.7358521">
        <ele>19.3638</ele>
        <time>2012-10-11T19:29:27Z</time>
      </trkpt>
      <trkpt lat="59.9744355" lon="17.7359106">
        <ele>19.8444</ele>
        <time>2012-10-11T19:29:28Z</time>
      </trkpt>
      <trkpt lat="59.9744443" lon="17.7359674">
        <ele>19.3638</ele>
        <time>2012-10-11T19:29:29Z</time>
      </trkpt>
      <trkpt lat="59.9744553" lon="17.7360188">
        <ele>19.8444</ele>
        <time>2012-10-11T19:29:30Z</time>
      </trkpt>
      <trkpt lat="59.974463" lon="17.736067">
        <ele>20.325</ele>
        <time>2012-10-11T19:29:31Z</time>
      </trkpt>
      <trkpt lat="59.9744732" lon="17.7361145">
        <ele>20.325</ele>
        <time>2012-10-11T19:29:32Z</time>
      </trkpt>
      <trkpt lat="59.9744827" lon="17.7361602">
        <ele>20.325</ele>
        <time>2012-10-11T19:29:33Z</time>
      </trkpt>
      <trkpt lat="59.9744909" lon="17.736209">
        <ele>20.325</ele>
        <time>2012-10-11T19:29:34Z</time>
      </trkpt>
      <trkpt lat="59.9744996" lon="17.7362617">
        <ele>20.325</ele>
        <time>2012-10-11T19:29:35Z</time>
      </trkpt>
      <trkpt lat="59.9745072" lon="17.7363096">
        <ele>20.325</ele>
        <time>2012-10-11T19:29:36Z</time>
      </trkpt>
      <trkpt lat="59.9745157" lon="17.7363559">
        <ele>20.325</ele>
        <time>2012-10-11T19:29:37Z</time>
      </trkpt>
      <trkpt lat="59.9745257" lon="17.7364004">
        <ele>20.8057</ele>
        <time>2012-10-11T19:29:38Z</time>
      </trkpt>
      <trkpt lat="59.9745387" lon="17.7364385">
        <ele>21.2864</ele>
        <time>2012-10-11T19:29:39Z</time>
      </trkpt>
      <trkpt lat="59.9745492" lon="17.7364784">
        <ele>21.2864</ele>
        <time>2012-10-11T19:29:40Z</time>
      </trkpt>
      <trkpt lat="59.9745615" lon="17.7365203">
        <ele>21.767</ele>
        <time>2012-10-11T19:29:41Z</time>
      </trkpt>
      <trkpt lat="59.9745742" lon="17.7365598">
        <ele>21.767</ele>
        <time>2012-10-11T19:29:42Z</time>
      </trkpt>
      <trkpt lat="59.9745852" lon="17.7366058">
        <ele>22.2476</ele>
        <time>2012-10-11T19:29:43Z</time>
      </trkpt>
      <trkpt lat="59.9745951" lon="17.736653">
        <ele>22.2476</ele>
        <time>2012-10-11T19:29:44Z</time>
      </trkpt>
      <trkpt lat="59.9746046" lon="17.7366929">
        <ele>22.2476</ele>
        <time>2012-10-11T19:29:45Z</time>
      </trkpt>
      <trkpt lat="59.9746144" lon="17.7367345">
        <ele>22.7283</ele>
        <time>2012-10-11T19:29:46Z</time>
      </trkpt>
      <trkpt lat="59.9746256" lon="17.7367757">
        <ele>22.2476</ele>
        <time>2012-10-11T19:29:47Z</time>
      </trkpt>
      <trkpt lat="59.9746355" lon="17.7368114">
        <ele>22.2476</ele>
        <time>2012-10-11T19:29:48Z</time>
      </trkpt>
      <trkpt lat="59.9746459" lon="17.7368502">
        <ele>22.7283</ele>
        <time>2012-10-11T19:29:49Z</time>
      </trkpt>
      <trkpt lat="59.9746566" lon="17.7368906">
        <ele>22.7283</ele>
        <time>2012-10-11T19:29:50Z</time>
      </trkpt>
      <trkpt lat="59.974668" lon="17.7369312">
        <ele>22.7283</ele>
        <time>2012-10-11T19:29:51Z</time>
      </trkpt>
      <trkpt lat="59.974678" lon="17.7369741">
        <ele>22.7283</ele>
        <time>2012-10-11T19:29:52Z</time>
      </trkpt>
      <trkpt lat="59.974689" lon="17.7370166">
        <ele>22.7283</ele>
        <time>2012-10-11T19:29:53Z</time>
      </trkpt>
      <trkpt lat="59.9747023" lon="17.7370576">
        <ele>22.7283</ele>
        <time>2012-10-11T19:29:54Z</time>
      </trkpt>
      <trkpt lat="59.9747179" lon="17.7371025">
        <ele>23.209</ele>
        <time>2012-10-11T19:29:55Z</time>
      </trkpt>
      <trkpt lat="59.974734" lon="17.7371451">
        <ele>22.7283</ele>
        <time>2012-10-11T19:29:56Z</time>
      </trkpt>
      <trkpt lat="59.9747478" lon="17.7371823">
        <ele>23.209</ele>
        <time>2012-10-11T19:29:57Z</time>
      </trkpt>
      <trkpt lat="59.9747613" lon="17.7372237">
        <ele>23.209</ele>
        <time>2012-10-11T19:29:58Z</time>
      </trkpt>
      <trkpt lat="59.9747766" lon="17.7372657">
        <ele>22.7283</ele>
        <time>2012-10-11T19:29:59Z</time>
      </trkpt>
      <trkpt lat="59.9747925" lon="17.7373045">
        <ele>23.209</ele>
        <time>2012-10-11T19:30:00Z</time>
      </trkpt>
      <trkpt lat="59.9748073" lon="17.7373439">
        <ele>23.209</ele>
        <time>2012-10-11T19:30:01Z</time>
      </trkpt>
      <trkpt lat="59.9748221" lon="17.7373817">
        <ele>23.6896</ele>
        <time>2012-10-11T19:30:02Z</time>
      </trkpt>
      <trkpt lat="59.9748359" lon="17.7374149">
        <ele>24.1703</ele>
        <time>2012-10-11T19:30:03Z</time>
      </trkpt>
      <trkpt lat="59.9748519" lon="17.7374491">
        <ele>24.1703</ele>
        <time>2012-10-11T19:30:04Z</time>
      </trkpt>
      <trkpt lat="59.9748688" lon="17.7374828">
        <ele>24.1703</ele>
        <time>2012-10-11T19:30:05Z</time>
      </trkpt>
      <trkpt lat="59.9748846" lon="17.7375153">
        <ele>24.1703</ele>
        <time>2012-10-11T19:30:06Z</time>
      </trkpt>
      <trkpt lat="59.974899" lon="17.7375527">
        <ele>24.651</ele>
        <time>2012-10-11T19:30:07Z</time>
      </trkpt>
      <trkpt lat="59.9749128" lon="17.7375869">
        <ele>24.651</ele>
        <time>2012-10-11T19:30:08Z</time>
      </trkpt>
      <trkpt lat="59.9749272" lon="17.7376185">
        <ele>25.1317</ele>
        <time>2012-10-11T19:30:09Z</time>
      </trkpt>
      <trkpt lat="59.9749412" lon="17.7376558">
        <ele>25.6123</ele>
        <time>2012-10-11T19:30:10Z</time>
      </trkpt>
      <trkpt lat="59.9749562" lon="17.7376889">
        <ele>25.6123</ele>
        <time>2012-10-11T19:30:11Z</time>
      </trkpt>
      <trkpt lat="59.9749754" lon="17.7377148">
        <ele>26.0929</ele>
        <time>2012-10-11T19:30:12Z</time>
      </trkpt>
      <trkpt lat="59.9750019" lon="17.7377474">
        <ele>26.5736</ele>
        <time>2012-10-11T19:30:13Z</time>
      </trkpt>
      <trkpt lat="59.9750256" lon="17.7377784">
        <ele>27.5349</ele>
        <time>2012-10-11T19:30:14Z</time>
      </trkpt>
      <trkpt lat="59.9750452" lon="17.7378084">
        <ele>28.0155</ele>
        <time>2012-10-11T19:30:15Z</time>
      </trkpt>
      <trkpt lat="59.9750644" lon="17.7378472">
        <ele>28.0155</ele>
        <time>2012-10-11T19:30:16Z</time>
      </trkpt>
      <trkpt lat="59.9750841" lon="17.7378846">
        <ele>28.4962</ele>
        <time>2012-10-11T19:30:17Z</time>
      </trkpt>
      <trkpt lat="59.9751059" lon="17.7379205">
        <ele>28.9769</ele>
        <time>2012-10-11T19:30:18Z</time>
      </trkpt>
      <trkpt lat="59.9751249" lon="17.7379562">
        <ele>29.4575</ele>
        <time>2012-10-11T19:30:19Z</time>
      </trkpt>
      <trkpt lat="59.975141" lon="17.7379877">
        <ele>28.9769</ele>
        <time>2012-10-11T19:30:20Z</time>
      </trkpt>
      <trkpt lat="59.9751582" lon="17.7380226">
        <ele>29.4575</ele>
        <time>2012-10-11T19:30:21Z</time>
      </trkpt>
      <trkpt lat="59.9751752" lon="17.7380571">
        <ele>29.4575</ele>
        <time>2012-10-11T19:30:22Z</time>
      </trkpt>
      <trkpt lat="59.9751909" lon="17.7380909">
        <ele>28.9769</ele>
        <time>2012-10-11T19:30:23Z</time>
      </trkpt>
      <trkpt lat="59.9752089" lon="17.7381347">
        <ele>28.9769</ele>
        <time>2012-10-11T19:30:24Z</time>
      </trkpt>
      <trkpt lat="59.9752279" lon="17.7381717">
        <ele>28.4962</ele>
        <time>2012-10-11T19:30:25Z</time>
      </trkpt>
      <trkpt lat="59.9752463" lon="17.7382033">
        <ele>28.4962</ele>
        <time>2012-10-11T19:30:26Z</time>
      </trkpt>
      <trkpt lat="59.9752639" lon="17.7382363">
        <ele>28.4962</ele>
        <time>2012-10-11T19:30:27Z</time>
      </trkpt>
      <trkpt lat="59.9752805" lon="17.738268">
        <ele>28.4962</ele>
        <time>2012-10-11T19:30:28Z</time>
      </trkpt>
      <trkpt lat="59.9752965" lon="17.7382995">
        <ele>28.9769</ele>
        <time>2012-10-11T19:30:29Z</time>
      </trkpt>
      <trkpt lat="59.9753126" lon="17.7383297">
        <ele>28.4962</ele>
        <time>2012-10-11T19:30:30Z</time>
      </trkpt>
      <trkpt lat="59.9753271" lon="17.7383613">
        <ele>28.4962</ele>
        <time>2012-10-11T19:30:31Z</time>
      </trkpt>
      <trkpt lat="59.9753466" lon="17.7383958">
        <ele>28.4962</ele>
        <time>2012-10-11T19:30:32Z</time>
      </trkpt>
      <trkpt lat="59.975367" lon="17.7384297">
        <ele>28.4962</ele>
        <time>2012-10-11T19:30:33Z</time>
      </trkpt>
      <trkpt lat="59.9753832" lon="17.7384587">
        <ele>28.4962</ele>
        <time>2012-10-11T19:30:34Z</time>
      </trkpt>
      <trkpt lat="59.9754011" lon="17.7384907">
        <ele>28.4962</ele>
        <time>2012-10-11T19:30:35Z</time>
      </trkpt>
      <trkpt lat="59.9754199" lon="17.7385254">
        <ele>28.4962</ele>
        <time>2012-10-11T19:30:36Z</time>
      </trkpt>
      <trkpt lat="59.9754354" lon="17.7385515">
        <ele>28.0155</ele>
        <time>2012-10-11T19:30:37Z</time>
      </trkpt>
      <trkpt lat="59.9754514" lon="17.7385764">
        <ele>28.4962</ele>
        <time>2012-10-11T19:30:38Z</time>
      </trkpt>
      <trkpt lat="59.9754696" lon="17.7386102">
        <ele>28.0155</ele>
        <time>2012-10-11T19:30:39Z</time>
      </trkpt>
      <trkpt lat="59.9754895" lon="17.7386401">
        <ele>28.0155</ele>
        <time>2012-10-11T19:30:40Z</time>
      </trkpt>
      <trkpt lat="59.975507" lon="17.7386632">
        <ele>28.0155</ele>
        <time>2012-10-11T19:30:41Z</time>
      </trkpt>
      <trkpt lat="59.975525" lon="17.7386944">
        <ele>28.0155</ele>
        <time>2012-10-11T19:30:42Z</time>
      </trkpt>
      <trkpt lat="59.9755441" lon="17.7387327">
        <ele>27.5349</ele>
        <time>2012-10-11T19:30:43Z</time>
      </trkpt>
      <trkpt lat="59.975565" lon="17.7387679">
        <ele>27.5349</ele>
        <time>2012-10-11T19:30:44Z</time>
      </trkpt>
      <trkpt lat="59.9755851" lon="17.7388057">
        <ele>27.0543</ele>
        <time>2012-10-11T19:30:45Z</time>
      </trkpt>
      <trkpt lat="59.9756042" lon="17.7388439">
        <ele>27.0543</ele>
        <time>2012-10-11T19:30:46Z</time>
      </trkpt>
      <trkpt lat="59.9756199" lon="17.7388746">
        <ele>26.5736</ele>
        <time>2012-10-11T19:30:47Z</time>
      </trkpt>
      <trkpt lat="59.9756377" lon="17.7389052">
        <ele>26.5736</ele>
        <time>2012-10-11T19:30:48Z</time>
      </trkpt>
      <trkpt lat="59.975658" lon="17.7389373">
        <ele>26.5736</ele>
        <time>2012-10-11T19:30:49Z</time>
      </trkpt>
      <trkpt lat="59.9756783" lon="17.7389658">
        <ele>26.5736</ele>
        <time>2012-10-11T19:30:50Z</time>
      </trkpt>
      <trkpt lat="59.9756996" lon="17.7389973">
        <ele>27.0543</ele>
        <time>2012-10-11T19:30:51Z</time>
      </trkpt>
      <trkpt lat="59.9757254" lon="17.7390306">
        <ele>27.5349</ele>
        <time>2012-10-11T19:30:52Z</time>
      </trkpt>
      <trkpt lat="59.9757503" lon="17.7390612">
        <ele>27.5349</ele>
        <time>2012-10-11T19:30:53Z</time>
      </trkpt>
      <trkpt lat="59.9757717" lon="17.7390967">
        <ele>28.0155</ele>
        <time>2012-10-11T19:30:54Z</time>
      </trkpt>
      <trkpt lat="59.9757953" lon="17.739131">
        <ele>28.0155</ele>
        <time>2012-10-11T19:30:55Z</time>
      </trkpt>
      <trkpt lat="59.9758166" lon="17.7391624">
        <ele>28.0155</ele>
        <time>2012-10-11T19:30:56Z</time>
      </trkpt>
      <trkpt lat="59.9758358" lon="17.7391998">
        <ele>28.4962</ele>
        <time>2012-10-11T19:30:57Z</time>
      </trkpt>
      <trkpt lat="59.9758548" lon="17.739235">
        <ele>28.4962</ele>
        <time>2012-10-11T19:30:58Z</time>
      </trkpt>
      <trkpt lat="59.9758732" lon="17.7392652">
        <ele>28.4962</ele>
        <time>2012-10-11T19:30:59Z</time>
      </trkpt>
      <trkpt lat="59.9758929" lon="17.7393005">
        <ele>28.9769</ele>
        <time>2012-10-11T19:31:00Z</time>
      </trkpt>
      <trkpt lat="59.9759145" lon="17.739336">
        <ele>28.9769</ele>
        <time>2012-10-11T19:31:01Z</time>
      </trkpt>
      <trkpt lat="59.9759332" lon="17.7393647">
        <ele>29.4575</ele>
        <time>2012-10-11T19:31:02Z</time>
      </trkpt>
      <trkpt lat="59.9759492" lon="17.7393937">
        <ele>29.4575</ele>
        <time>2012-10-11T19:31:03Z</time>
      </trkpt>
      <trkpt lat="59.9759689" lon="17.7394227">
        <ele>29.4575</ele>
        <time>2012-10-11T19:31:04Z</time>
      </trkpt>
      <trkpt lat="59.9759897" lon="17.7394486">
        <ele>29.9381</ele>
        <time>2012-10-11T19:31:05Z</time>
      </trkpt>
      <trkpt lat="59.9760125" lon="17.7394776">
        <ele>30.4188</ele>
        <time>2012-10-11T19:31:06Z</time>
      </trkpt>
      <trkpt lat="59.9760357" lon="17.739507">
        <ele>30.4188</ele>
        <time>2012-10-11T19:31:07Z</time>
      </trkpt>
      <trkpt lat="59.9760565" lon="17.7395367">
        <ele>29.9381</ele>
        <time>2012-10-11T19:31:08Z</time>
      </trkpt>
      <trkpt lat="59.9760782" lon="17.739574">
        <ele>30.4188</ele>
        <time>2012-10-11T19:31:09Z</time>
      </trkpt>
      <trkpt lat="59.9760992" lon="17.7396193">
        <ele>30.4188</ele>
        <time>2012-10-11T19:31:10Z</time>
      </trkpt>
      <trkpt lat="59.9761145" lon="17.7396551">
        <ele>30.4188</ele>
        <time>2012-10-11T19:31:11Z</time>
      </trkpt>
      <trkpt lat="59.9761286" lon="17.7396873">
        <ele>30.4188</ele>
        <time>2012-10-11T19:31:12Z</time>
      </trkpt>
      <trkpt lat="59.9761445" lon="17.7397272">
        <ele>30.4188</ele>
        <time>2012-10-11T19:31:13Z</time>
      </trkpt>
      <trkpt lat="59.9761602" lon="17.7397607">
        <ele>30.4188</ele>
        <time>2012-10-11T19:31:14Z</time>
      </trkpt>
      <trkpt lat="59.9761777" lon="17.7397879">
        <ele>29.9381</ele>
        <time>2012-10-11T19:31:15Z</time>
      </trkpt>
      <trkpt lat="59.976194" lon="17.7398185">
        <ele>29.9381</ele>
        <time>2012-10-11T19:31:16Z</time>
      </trkpt>
      <trkpt lat="59.9762108" lon="17.7398481">
        <ele>29.9381</ele>
        <time>2012-10-11T19:31:17Z</time>
      </trkpt>
      <trkpt lat="59.9762287" lon="17.7398785">
        <ele>29.4575</ele>
        <time>2012-10-11T19:31:18Z</time>
      </trkpt>
      <trkpt lat="59.9762445" lon="17.7399082">
        <ele>29.4575</ele>
        <time>2012-10-11T19:31:19Z</time>
      </trkpt>
      <trkpt lat="59.9762609" lon="17.7399257">
        <ele>28.9769</ele>
        <time>2012-10-11T19:31:20Z</time>
      </trkpt>
      <trkpt lat="59.9762829" lon="17.7399318">
        <ele>28.9769</ele>
        <time>2012-10-11T19:31:21Z</time>
      </trkpt>
      <trkpt lat="59.9763077" lon="17.7399384">
        <ele>28.9769</ele>
        <time>2012-10-11T19:31:22Z</time>
      </trkpt>
      <trkpt lat="59.9763332" lon="17.7399397">
        <ele>28.9769</ele>
        <time>2012-10-11T19:31:23Z</time>
      </trkpt>
      <trkpt lat="59.9763626" lon="17.7399361">
        <ele>28.4962</ele>
        <time>2012-10-11T19:31:24Z</time>
      </trkpt>
      <trkpt lat="59.9763906" lon="17.7399366">
        <ele>28.4962</ele>
        <time>2012-10-11T19:31:25Z</time>
      </trkpt>
      <trkpt lat="59.9764093" lon="17.7399158">
        <ele>28.9769</ele>
        <time>2012-10-11T19:31:26Z</time>
      </trkpt>
      <trkpt lat="59.9764292" lon="17.7398827">
        <ele>28.9769</ele>
        <time>2012-10-11T19:31:27Z</time>
      </trkpt>
      <trkpt lat="59.9764531" lon="17.7398452">
        <ele>28.9769</ele>
        <time>2012-10-11T19:31:28Z</time>
      </trkpt>
      <trkpt lat="59.9764797" lon="17.7398153">
        <ele>28.9769</ele>
        <time>2012-10-11T19:31:29Z</time>
      </trkpt>
      <trkpt lat="59.9765056" lon="17.7397884">
        <ele>28.4962</ele>
        <time>2012-10-11T19:31:30Z</time>
      </trkpt>
      <trkpt lat="59.9765304" lon="17.7397582">
        <ele>28.9769</ele>
        <time>2012-10-11T19:31:31Z</time>
      </trkpt>
      <trkpt lat="59.9765558" lon="17.7397372">
        <ele>28.4962</ele>
        <time>2012-10-11T19:31:32Z</time>
      </trkpt>
      <trkpt lat="59.9765817" lon="17.7397242">
        <ele>28.4962</ele>
        <time>2012-10-11T19:31:33Z</time>
      </trkpt>
      <trkpt lat="59.9766084" lon="17.7397098">
        <ele>28.0155</ele>
        <time>2012-10-11T19:31:34Z</time>
      </trkpt>
      <trkpt lat="59.9766292" lon="17.7396825">
        <ele>28.0155</ele>
        <time>2012-10-11T19:31:35Z</time>
      </trkpt>
      <trkpt lat="59.9766396" lon="17.7396295">
        <ele>29.4575</ele>
        <time>2012-10-11T19:31:36Z</time>
      </trkpt>
    </trkseg>
  </trk>
</gpx>